[[[{"header":{"parameterUnit":"kt","parameterCategory":2,"dx":1,"dy":1,"la1":29.285339999999998,"la2":30.599998999999997,"lo1":-89.70041500000002,"lo2":-87.6738589999976,"nx":112,"ny":82,"refTime":"2022-10-23T00:00:00:Z","depth":0,"parameterNumber":1,"parameterNumberName":"U-component_of_WINDS"},"data":[-6.0378,-6.5028,0.0,-6.0971,-5.8123,0.0,-4.5597,0.0,0.0,0.0,0.0,0.0,0.0,0.0,0.0,0.0,0.0,0.0,0.0,0.0,0.0,0.0,0.0,0.0,0.0,0.0,0.0,0.0,0.0,0.0,0.0,0.0,-6.5256,-6.7452,-6.4464,-6.2411,-6.1644,-5.6458,-5.2924,-5.1292,-5.2852,-5.379,-5.4085,-5.4745,-5.6713,-5.9423,-5.7746,-5.6986,-5.6627,-5.5919,-5.489,-5.3785,-5.2848,-5.3152,-5.3949,-5.2582,-5.1557,-5.076,-5.0134,-4.9944,-4.9944,-4.9944,-4.9944,-5.0247,-5.2013,-5.2506,-5.2734,-5.3873,-5.4595,-5.486,-5.4329,-5.4595,-5.5012,-5.5012,-5.3833,-5.2787,-5.2913,-5.1898,-4.9381,-4.413,-4.2968,-4.1199,-3.5657,-3.4436,-3.4177,-3.4177,-3.4514,-3.4721,-3.4954,-3.5628,-3.5938,-3.5683,-3.5631,-3.5631,-3.5631,-3.5449,-3.5085,-3.454,-3.467,-3.4592,-3.4203,-3.4748,-3.5239,-3.5917,-3.6488,-3.7059,-3.7769,-3.4612,-3.4019,-3.5884,-2.755,-2.3748,0.0,0.0,-6.512,-5.5591,0.0,0.0,0.0,0.0,0.0,0.0,0.0,0.0,0.0,0.0,0.0,0.0,0.0,0.0,0.0,0.0,0.0,0.0,0.0,0.0,0.0,0.0,0.0,0.0,0.0,0.0,0.0,-6.3792,-6.672,-6.8526,-6.5678,-6.3459,-6.2028,-5.8551,-5.5563,-5.2896,-5.5403,-5.685,-5.7196,-5.7803,-5.9955,-6.3046,-6.0999,-5.9691,-5.88,-5.7648,-5.6015,-5.4101,-5.3266,-5.3607,-5.4443,-5.3342,-5.2582,-5.1975,-5.0836,-5.0171,-4.9982,-5.038,-5.0456,-5.0646,-5.1747,-5.2506,-5.3038,-5.3709,-5.4367,-5.486,-5.4329,-5.4405,-5.4595,-5.4595,-5.3949,-5.319,-5.2658,-5.1548,-4.9157,-4.4065,-4.2264,-4.0116,-3.5476,-3.4436,-3.4177,-3.4177,-3.467,-3.5032,-3.5239,-3.6046,-3.6358,-3.5994,-3.5943,-3.5787,-3.5371,-3.5709,-3.5527,-3.454,-3.467,-3.4592,-3.4203,-3.4748,-3.5162,-3.5631,-3.641,-3.6981,-3.7371,-3.4516,-3.4133,-3.5998,-2.8725,-2.5247,0.0,0.0,0.0,-4.3502,0.0,0.0,0.0,0.0,-3.2744,0.0,0.0,0.0,0.0,0.0,0.0,0.0,0.0,0.0,0.0,0.0,0.0,0.0,0.0,0.0,0.0,0.0,0.0,0.0,0.0,0.0,-6.384,-6.7355,-6.96,-7.0716,-6.821,-6.5649,-6.2944,-6.2846,-6.0531,-5.6205,-5.8931,-5.9765,-5.8983,-5.9902,-6.1776,-6.4154,-6.3789,-6.2733,-6.1217,-6.003,-5.777,-5.4936,-5.4203,-5.3899,-5.3899,-5.3899,-5.3899,-5.3671,-5.1937,-5.0836,-5.0134,-5.1026,-5.1292,-5.1254,-5.1292,-5.2431,-5.3861,-5.3861,-5.4367,-5.5012,-5.5012,-5.4405,-5.3899,-5.3899,-5.3114,-5.2468,-5.2468,-4.9743,-4.6563,-4.3834,-4.0612,-3.7376,-3.4688,-3.4177,-3.4177,-3.4177,-3.467,-3.5241,-3.5839,-3.5917,-3.5943,-3.5917,-3.5917,-3.5449,-3.428,-3.5241,-3.5657,-3.498,-3.4514,-3.4177,-3.4177,-3.4748,-3.4954,-3.498,-3.6068,-3.6774,-3.6774,-3.4348,-3.3222,-3.3085,-2.9762,-2.8263,-4.6032,0.0,0.0,0.0,0.0,0.0,0.0,0.0,0.0,0.0,0.0,0.0,0.0,0.0,0.0,0.0,0.0,0.0,0.0,0.0,0.0,0.0,0.0,0.0,0.0,0.0,0.0,0.0,0.0,0.0,-6.5109,-6.7706,-6.96,-7.0716,-6.821,-6.6508,-6.5744,-6.3768,-6.1848,-6.0106,-6.2573,-6.3652,-6.3701,-6.4927,-6.6714,-6.8648,-6.512,-6.3139,-6.2032,-5.8476,-5.6277,-5.4936,-5.4203,-5.3899,-5.3937,-5.4443,-5.4291,-5.3823,-5.3366,-5.2544,-5.1785,-5.1405,-5.0874,-5.0494,-5.1102,-5.2013,-5.3,-5.3607,-5.4367,-5.5012,-5.5012,-5.4405,-5.3899,-5.3899,-5.2696,-5.1633,-5.1633,-5.0822,-4.8659,-4.3478,-4.2148,-4.033,-3.515,-3.4177,-3.4177,-3.4177,-3.4696,-3.5006,-3.5187,-3.5683,-3.5787,-3.5265,-3.5213,-3.5008,-3.4228,-3.4462,-3.4592,-3.4436,-3.4254,-3.4177,-3.4177,-3.4332,-3.4618,-3.498,-3.5813,-3.6384,-3.6774,-3.656,-3.6475,-3.6249,-2.8609,-2.6177,0.0,0.0,0.0,0.0,0.0,0.0,-3.4347,0.0,-2.9031,0.0,0.0,0.0,0.0,0.0,0.0,0.0,0.0,0.0,0.0,0.0,0.0,0.0,0.0,0.0,0.0,0.0,0.0,0.0,0.0,-6.2035,-6.6964,-6.8819,-7.0039,-7.0765,-6.9331,-6.7974,-6.684,-6.6413,-6.5103,-6.3069,-6.5546,-6.679,-6.6973,-6.7804,-6.8523,-6.8956,-6.5637,-6.3069,-6.0846,-5.7441,-5.5385,-5.4443,-5.4051,-5.4089,-5.4329,-5.4822,-5.4708,-5.4253,-5.4013,-5.3683,-5.3304,-5.1785,-5.095,-5.057,-5.0722,-5.1595,-5.2544,-5.2696,-5.3569,-5.4405,-5.4063,-5.3607,-5.3152,-5.281,-5.1747,-5.076,-5.076,-4.9857,-4.8091,-4.4553,-4.2324,-4.0007,-3.642,-3.5857,-3.5478,-3.4381,-3.4696,-3.498,-3.498,-3.5265,-3.5449,-3.5006,-3.498,-3.4721,-3.4228,-3.441,-3.4436,-3.4203,-3.4177,-3.4177,-3.4177,-3.4177,-3.4332,-3.4696,-3.5267,-3.5968,-3.6774,-3.586,-3.6136,-3.7518,-3.0797,-2.8589,0.0,0.0,0.0,0.0,-3.4039,0.0,0.0,0.0,0.0,0.0,0.0,0.0,0.0,0.0,0.0,0.0,0.0,0.0,0.0,0.0,0.0,0.0,0.0,0.0,0.0,0.0,-5.976,-6.5793,-6.4573,-6.5207,-6.8973,-7.0185,-7.0765,-7.0765,-7.0765,-6.961,-6.7314,-6.961,-6.9037,-6.5825,-6.8124,-6.9168,-6.9168,-6.8897,-6.8101,-6.6794,-6.5166,-6.2352,-5.8689,-5.6627,-5.5029,-5.4013,-5.3899,-5.4215,-5.486,-5.4974,-5.5012,-5.4898,-5.4177,-5.4405,-5.4633,-5.2317,-5.1595,-5.1405,-5.0456,-5.1216,-5.2241,-5.1481,-5.2506,-5.3569,-5.2734,-5.2582,-5.2431,-5.1519,-5.0722,-5.0058,-4.9944,-4.8122,-4.6456,-4.6132,-4.22,-3.8955,-3.8654,-3.8052,-3.6871,-3.4586,-3.4644,-3.4877,-3.4877,-3.4877,-3.4877,-3.4877,-3.4877,-3.4748,-3.4228,-3.4722,-3.4826,-3.4228,-3.4228,-3.4254,-3.4177,-3.4177,-3.4177,-3.4177,-3.4826,-3.5576,-3.6696,-3.3957,-3.4405,-3.7734,-3.4522,-3.3222,0.0,0.0,0.0,0.0,0.0,-2.9491,0.0,0.0,0.0,0.0,0.0,0.0,0.0,0.0,0.0,0.0,0.0,0.0,0.0,0.0,0.0,0.0,0.0,0.0,0.0,-6.3255,-6.5256,-6.8193,-6.8868,-6.9592,-7.0332,-7.0668,-7.0765,-7.0765,-7.0765,-7.049,-7.0028,-7.049,-7.0392,-6.969,-7.0149,-7.0381,-7.0381,-6.8253,-6.7128,-6.665,-6.2085,-5.9651,-5.867,-5.5594,-5.4496,-5.4708,-5.4127,-5.3975,-5.4101,-5.4746,-5.5012,-5.4974,-5.4822,-5.486,-5.4822,-5.3683,-5.3404,-5.3038,-5.1519,-5.1292,-5.1481,-5.133,-5.2506,-5.3569,-5.2734,-5.3038,-5.3152,-5.1671,-5.1178,-5.0874,-5.0096,-4.9528,-4.854,-4.6456,-4.5262,-4.3867,-4.1806,-3.7851,-3.479,-3.4279,-3.428,-3.4358,-3.4358,-3.4358,-3.4358,-3.4358,-3.4358,-3.4306,-3.4177,-3.4722,-3.4826,-3.4228,-3.4644,-3.4696,-3.4203,-3.4177,-3.4177,-3.4177,-3.5215,-3.5891,-3.6098,-3.6452,-3.7194,-3.8306,-3.4689,-3.4384,0.0,0.0,0.0,-2.7175,0.0,0.0,0.0,0.0,0.0,0.0,0.0,0.0,0.0,0.0,0.0,0.0,0.0,0.0,0.0,0.0,0.0,0.0,0.0,0.0,0.0,-6.6378,-6.7267,-6.8876,-7.1076,-7.2394,-7.2394,-7.2394,-7.1852,-7.0765,-6.9517,-6.9424,-7.0765,-6.9424,-6.9424,-7.0765,-7.0765,-7.0765,-7.0674,-6.8068,-6.6127,-6.4641,-6.0617,-5.8143,-5.6818,-5.4713,-5.4355,-5.4936,-5.4557,-5.4405,-5.4443,-5.486,-5.5012,-5.4936,-5.4519,-5.4671,-5.4784,-5.3569,-5.3418,-5.3557,-5.1785,-5.1292,-5.1216,-5.0798,-5.1557,-5.2355,-5.1481,-5.1899,-5.2203,-5.095,-5.0646,-5.0532,-5.002,-4.9944,-4.9528,-4.8254,-4.6937,-4.5262,-4.2692,-3.8825,-3.5681,-3.4381,-3.4177,-3.4177,-3.4177,-3.4177,-3.4177,-3.4177,-3.4177,-3.4177,-3.4177,-3.4462,-3.4488,-3.4203,-3.4462,-3.4488,-3.4203,-3.4177,-3.4177,-3.4177,-3.506,-3.5943,-3.68,-3.5475,-3.5171,-3.5683,-3.2305,-3.1485,0.0,0.0,0.0,0.0,0.0,0.0,-2.6869,-3.0287,0.0,0.0,0.0,0.0,0.0,0.0,0.0,0.0,0.0,0.0,0.0,0.0,0.0,0.0,0.0,0.0,0.0,-6.7608,-6.8312,-6.9591,-7.2454,-7.4075,-7.4075,-7.3633,-7.2664,-7.0857,-6.8772,-6.8678,-7.0765,-6.8678,-6.8678,-7.0765,-7.0765,-7.049,-6.9888,-6.7314,-6.4544,-6.1863,-5.9214,-5.696,-5.4936,-5.4291,-5.4405,-5.5012,-5.5012,-5.5012,-5.5012,-5.5012,-5.5012,-5.486,-5.4063,-5.4291,-5.4746,-5.3266,-5.3342,-5.3721,-5.2241,-5.1671,-5.1367,-5.0494,-5.076,-5.1102,-5.0171,-5.076,-5.1292,-5.0171,-5.0058,-5.0134,-4.9982,-4.9944,-4.9944,-4.9944,-4.7835,-4.5262,-4.2692,-3.9923,-3.7146,-3.4586,-3.4177,-3.4177,-3.4177,-3.4177,-3.4177,-3.4177,-3.4177,-3.4177,-3.4177,-3.428,-3.4306,-3.4177,-3.428,-3.4306,-3.4177,-3.4177,-3.4177,-3.4177,-3.4644,-3.5709,-3.7319,-3.3758,-3.1996,-3.2038,-2.9491,-2.8378,0.0,0.0,0.0,0.0,0.0,0.0,-3.4872,-4.105,0.0,0.0,0.0,0.0,0.0,0.0,0.0,0.0,0.0,0.0,0.0,0.0,0.0,0.0,0.0,0.0,0.0,-6.8291,-6.9808,-7.2001,-7.3284,-7.4075,-7.4075,-7.2214,-7.104,-7.0765,-7.049,-7.049,-7.0765,-7.049,-7.049,-7.0765,-7.0765,-6.9517,-6.7219,-6.4448,-6.1765,-5.9214,-5.6589,-5.5286,-5.4974,-5.4898,-5.4936,-5.5012,-5.5012,-5.5012,-5.5012,-5.5012,-5.5012,-5.486,-5.4063,-5.4291,-5.486,-5.3949,-5.4177,-5.4671,-5.3861,-5.2962,-5.2203,-5.1405,-5.1216,-5.1102,-5.0171,-5.1081,-5.1975,-5.0323,-5.0608,-5.095,-5.0096,-4.9944,-4.9944,-4.9944,-4.7835,-4.5262,-4.2692,-3.9923,-3.7146,-3.4586,-3.4177,-3.4177,-3.4177,-3.4177,-3.4177,-3.4177,-3.4177,-3.4177,-3.4177,-3.467,-3.4644,-3.4203,-3.467,-3.4748,-3.4203,-3.4177,-3.4177,-3.4177,-3.4254,-3.4878,-3.6124,-3.3152,-3.0594,-2.86,-2.8431,-2.8378,0.0,0.0,0.0,0.0,0.0,0.0,0.0,-4.093,0.0,0.0,0.0,0.0,0.0,0.0,0.0,0.0,0.0,0.0,0.0,0.0,0.0,0.0,0.0,0.0,0.0,0.0,0.0,-7.3408,-7.3821,-7.4689,-7.6027,-7.395,-7.2123,-7.0765,-6.9238,-6.9238,-7.0765,-6.9238,-6.9238,-7.0765,-7.0765,-7.0213,-6.8959,-6.4693,-6.2159,-6.0915,-5.6755,-5.5012,-5.5078,-5.6652,-5.7266,-5.7266,-5.7266,-5.6383,-5.5012,-5.5012,-5.5012,-5.486,-5.4063,-5.4291,-5.486,-5.4165,-5.4329,-5.4822,-5.4127,-5.319,-5.2355,-5.1519,-5.095,-5.0494,-5.002,-5.0437,-5.0778,-5.0096,-5.0209,-5.0456,-5.002,-4.9944,-4.9944,-4.9944,-4.7835,-4.5746,-4.4645,-4.0917,-3.775,-3.6668,-3.5172,-3.4177,-3.4177,-3.4177,-3.4177,-3.4177,-3.4177,-3.4177,-3.4177,-3.441,-3.4436,-3.4203,-3.441,-3.4436,-3.4177,-3.4177,-3.4177,-3.4177,-3.4514,-3.4956,-3.5449,-3.2577,-2.9871,-2.7133,-2.4276,-2.2929,-2.0008,0.0,0.0,0.0,0.0,0.0,0.0,0.0,0.0,0.0,0.0,0.0,0.0,0.0,0.0,0.0,0.0,0.0,0.0,0.0,0.0,0.0,0.0,0.0,0.0,0.0,0.0,0.0,-7.5671,-7.6526,-7.7477,-7.5907,-7.3684,-7.0857,-6.8959,-6.8865,-7.0765,-6.8865,-6.8865,-7.0765,-7.0765,-7.0398,-6.9517,-6.4885,-6.2356,-6.1468,-5.696,-5.5389,-5.628,-5.8912,-5.9516,-5.8912,-5.8912,-5.7266,-5.5012,-5.5012,-5.5012,-5.486,-5.4063,-5.4291,-5.486,-5.4165,-5.4329,-5.4898,-5.4291,-5.338,-5.2393,-5.1785,-5.0874,-4.9944,-4.9944,-4.9944,-4.9944,-4.9944,-4.9944,-4.9944,-4.9944,-4.9944,-4.9944,-4.9944,-4.8445,-4.6937,-4.6132,-4.2299,-3.8955,-3.8253,-3.5857,-3.4177,-3.4177,-3.4177,-3.4177,-3.4177,-3.4177,-3.4177,-3.4177,-3.4177,-3.4177,-3.4177,-3.4177,-3.4177,-3.4177,-3.4177,-3.4177,-3.4177,-3.4618,-3.4721,-3.4721,-3.1266,-2.8514,-2.6356,-2.123,-1.8934,0.0,0.0,0.0,0.0,0.0,0.0,-4.8083,0.0,0.0,0.0,0.0,0.0,0.0,0.0,0.0,0.0,0.0,0.0,0.0,0.0,0.0,0.0,0.0,0.0,0.0,0.0,0.0,0.0,-7.9478,-7.9751,-7.7669,-7.75,-7.544,-7.0857,-7.0674,-7.0674,-7.0765,-7.0674,-7.0674,-7.0765,-7.0765,-6.9424,-6.6935,-6.406,-6.1369,-5.8811,-5.6177,-5.6486,-5.8912,-6.1567,-6.1171,-5.8912,-5.8912,-5.7266,-5.5012,-5.5012,-5.5012,-5.486,-5.4063,-5.4291,-5.486,-5.4165,-5.4329,-5.5012,-5.4974,-5.3797,-5.2506,-5.2468,-5.1195,-4.9944,-4.9944,-4.9944,-4.9944,-4.9944,-4.9944,-4.9944,-4.9944,-4.9944,-4.9944,-4.9944,-4.9944,-4.9016,-4.6552,-4.3867,-4.1182,-3.8554,-3.5857,-3.4177,-3.4177,-3.4177,-3.4177,-3.4177,-3.4177,-3.4177,-3.4177,-3.4177,-3.4177,-3.4177,-3.4177,-3.4177,-3.4177,-3.4177,-3.4177,-3.4177,-3.4203,-3.4203,-3.4203,-2.8733,-2.6145,-2.6148,-2.077,-1.8565,-2.4855,0.0,0.0,0.0,0.0,-4.6015,-5.1907,0.0,0.0,0.0,0.0,0.0,0.0,0.0,0.0,0.0,0.0,0.0,0.0,0.0,0.0,0.0,0.0,0.0,0.0,0.0,0.0,0.0,0.0,0.0,-7.7561,-7.3293,-7.0804,-7.0716,-7.0765,-7.0765,-7.0765,-7.0765,-7.0765,-7.0765,-7.0765,-7.0305,-6.9331,-6.6699,-6.406,-6.1369,-6.0575,-6.1709,-6.4157,-6.3139,-6.2257,-6.127,-5.9616,-5.7266,-5.5012,-5.5012,-5.5012,-5.4936,-5.4671,-5.4784,-5.4936,-5.4671,-5.4784,-5.4898,-5.4367,-5.3418,-5.2393,-5.1861,-5.0912,-4.9944,-4.9944,-4.9944,-4.9944,-4.9944,-4.9944,-4.9944,-4.9944,-4.9944,-4.9944,-4.9944,-4.9944,-4.9148,-4.6552,-4.3867,-4.1312,-3.8554,-3.5857,-3.4177,-3.4177,-3.4177,-3.4177,-3.4177,-3.4177,-3.4177,-3.4177,-3.4177,-3.4177,-3.4177,-3.4177,-3.4177,-3.4177,-3.4177,-3.4177,-3.4177,-3.4177,-3.4177,-3.4177,-2.8607,-2.602,-2.6129,-2.0622,-1.8262,0.0,0.0,0.0,-4.4088,-4.8138,-5.1639,-5.5934,0.0,0.0,0.0,0.0,0.0,0.0,0.0,0.0,0.0,0.0,0.0,0.0,0.0,0.0,0.0,0.0,0.0,0.0,0.0,0.0,0.0,0.0,-7.6525,-7.637,-7.2133,-7.0105,-7.0716,-7.0765,-7.0765,-7.0765,-7.0765,-7.0765,-7.0765,-7.0765,-7.0765,-7.0674,-6.8068,-6.5936,-6.4351,-6.5219,-6.6081,-6.6745,-6.493,-6.3671,-6.2552,-5.9917,-5.7266,-5.5012,-5.5012,-5.5012,-5.5012,-5.5012,-5.5012,-5.5012,-5.5012,-5.5012,-5.4822,-5.4127,-5.319,-5.2355,-5.1519,-5.0684,-4.9944,-4.9944,-4.9944,-4.9944,-4.9944,-4.9944,-4.9944,-4.9944,-4.9944,-4.9944,-4.9944,-4.9944,-4.9148,-4.6552,-4.4645,-4.2299,-3.8654,-3.6668,-3.5274,-3.4381,-3.4177,-3.4177,-3.4177,-3.4177,-3.4177,-3.4177,-3.4177,-3.4177,-3.4177,-3.4177,-3.4177,-3.4177,-3.4177,-3.4177,-3.4177,-3.4177,-3.4177,-3.4177,-2.8607,-2.5941,-2.6003,-2.044,-1.8109,0.0,-3.5066,0.0,-4.8053,-5.2462,0.0,0.0,0.0,0.0,0.0,0.0,0.0,0.0,0.0,0.0,0.0,0.0,0.0,0.0,0.0,0.0,0.0,0.0,0.0,0.0,0.0,0.0,0.0,-7.9451,-7.8651,-7.4339,-7.3898,-7.2882,-7.0857,-7.0765,-7.0765,-7.0765,-7.0765,-7.0765,-7.0765,-7.0765,-7.0765,-7.0674,-6.8162,-6.703,-6.7219,-6.9702,-6.9238,-6.684,-6.6745,-6.5027,-6.2356,-5.9717,-5.7164,-5.5012,-5.5012,-5.5012,-5.5012,-5.5012,-5.5012,-5.5012,-5.5012,-5.5012,-5.4822,-5.4127,-5.3228,-5.2393,-5.1557,-5.0722,-4.9982,-4.9944,-4.9944,-4.9944,-4.9944,-4.9944,-4.9944,-4.9944,-4.9944,-4.9944,-4.9944,-4.9944,-4.9148,-4.6552,-4.6035,-4.4256,-3.8955,-3.8052,-3.7174,-3.4586,-3.4177,-3.4177,-3.4177,-3.4177,-3.4177,-3.4177,-3.4177,-3.4177,-3.4177,-3.4177,-3.4177,-3.4177,-3.4177,-3.4177,-3.4177,-3.4177,-3.4177,-3.4177,-2.8607,-2.5889,-2.5909,-2.0426,-1.7884,0.0,0.0,-4.7457,-5.598,-5.7563,-5.8423,0.0,0.0,0.0,0.0,0.0,0.0,0.0,0.0,0.0,0.0,0.0,0.0,0.0,0.0,0.0,0.0,0.0,0.0,0.0,0.0,0.0,0.0,-7.7392,-7.5249,-7.4075,-7.2484,-7.1356,-7.0765,-7.0765,-7.0765,-7.0765,-7.0765,-7.0765,-7.0765,-7.0765,-7.0765,-7.0765,-7.0072,-6.9795,-6.9795,-7.049,-6.9238,-6.6745,-6.4641,-6.2257,-5.9616,-5.696,-5.5596,-5.5012,-5.5012,-5.5012,-5.5012,-5.5012,-5.5012,-5.5012,-5.5012,-5.5012,-5.4822,-5.4127,-5.3747,-5.3152,-5.1709,-5.114,-5.0836,-5.0096,-4.9944,-4.9944,-4.9944,-4.9944,-4.9944,-4.9944,-4.9944,-4.9944,-4.9944,-4.9944,-4.9148,-4.6552,-4.6035,-4.4256,-3.8955,-3.8052,-3.7174,-3.4586,-3.4177,-3.4177,-3.4177,-3.4177,-3.4177,-3.4177,-3.4177,-3.4177,-3.4177,-3.4177,-3.4177,-3.4177,-3.4177,-3.4177,-3.4177,-3.4177,-3.4177,-3.4177,-2.8607,-2.6937,-2.8711,-2.1053,-1.8662,-3.77,-4.5063,-5.2281,0.0,-6.0754,-6.057,-6.55,0.0,-6.3255,0.0,0.0,0.0,0.0,0.0,0.0,0.0,0.0,0.0,0.0,0.0,0.0,0.0,0.0,0.0,0.0,0.0,0.0,0.0,-7.5509,-7.3633,-7.2613,-7.1448,-7.0765,-7.0765,-7.0765,-7.0765,-7.0765,-7.0765,-7.0765,-7.0765,-7.0765,-7.0765,-7.0765,-7.0765,-7.0765,-7.0674,-6.9517,-6.8162,-6.6555,-6.265,-6.0217,-5.865,-5.5971,-5.5012,-5.5012,-5.5012,-5.5012,-5.5012,-5.5012,-5.5012,-5.5012,-5.5012,-5.5012,-5.4822,-5.4127,-5.3633,-5.2962,-5.1671,-5.1292,-5.1102,-5.0171,-5.0475,-5.0854,-5.0096,-5.0209,-5.0494,-5.002,-4.9944,-4.9944,-4.9944,-4.9944,-4.9148,-4.6552,-4.6035,-4.4256,-3.8955,-3.8052,-3.7174,-3.4586,-3.4177,-3.4177,-3.4177,-3.4177,-3.4177,-3.4177,-3.4177,-3.4177,-3.4177,-3.4177,-3.4177,-3.4177,-3.4177,-3.4177,-3.4177,-3.4177,-3.4177,-3.4177,-2.9772,-2.8398,-2.975,-2.3784,-2.2014,-3.5837,-4.4727,-5.4745,0.0,-6.2212,-6.2279,0.0,0.0,-6.3484,0.0,0.0,0.0,0.0,0.0,0.0,0.0,0.0,0.0,0.0,0.0,0.0,0.0,0.0,0.0,0.0,0.0,0.0,0.0,-7.381,-7.2793,-7.0857,-7.0765,-7.0765,-7.0765,-7.0765,-7.0765,-7.0765,-7.0765,-7.0765,-7.0765,-7.0765,-7.0765,-7.0765,-7.0765,-7.0765,-7.0582,-6.7974,-6.665,-6.5936,-6.0915,-5.871,-5.8143,-5.5868,-5.5012,-5.5012,-5.5012,-5.5012,-5.5012,-5.5012,-5.5012,-5.5012,-5.5012,-5.5012,-5.486,-5.4241,-5.3342,-5.2506,-5.1671,-5.1367,-5.1102,-5.0171,-5.1005,-5.1823,-5.0285,-5.0684,-5.1064,-5.0134,-4.9944,-4.9944,-4.9944,-4.9944,-4.9243,-4.6937,-4.636,-4.4354,-3.9425,-3.8354,-3.7174,-3.4586,-3.4177,-3.4177,-3.4177,-3.4177,-3.4177,-3.4177,-3.4177,-3.4177,-3.4177,-3.4177,-3.4177,-3.4177,-3.4177,-3.4177,-3.4177,-3.4177,-3.4177,-3.4177,-3.1325,-3.0164,-3.0498,-2.7355,-2.5994,-4.1744,-4.809,-5.4394,-6.0079,-6.1884,0.0,-6.4475,-6.4426,-6.4912,-6.7853,0.0,0.0,0.0,0.0,0.0,0.0,0.0,0.0,0.0,0.0,0.0,0.0,0.0,0.0,0.0,0.0,0.0,0.0,0.0,-7.1174,-7.0765,-7.0765,-7.0765,-7.0765,-7.0765,-7.0765,-7.0765,-7.0765,-7.0765,-7.0765,-7.0765,-7.0765,-7.0765,-7.0765,-7.0765,-7.0582,-6.7974,-6.5553,-6.3237,-6.0217,-5.7675,-5.5596,-5.5182,-5.5012,-5.5012,-5.5012,-5.5012,-5.5012,-5.5012,-5.5012,-5.5012,-5.5012,-5.5012,-5.4974,-5.4822,-5.4215,-5.338,-5.2544,-5.1823,-5.1102,-5.0171,-5.0134,-5.0285,-5.002,-5.0684,-5.1064,-5.0134,-4.9944,-4.9944,-4.9944,-4.9944,-4.9849,-4.9338,-4.7548,-4.5034,-4.1971,-3.9525,-3.7174,-3.4586,-3.4177,-3.4177,-3.4177,-3.4177,-3.4177,-3.4177,-3.4177,-3.4177,-3.4177,-3.4177,-3.4177,-3.4177,-3.4177,-3.4177,-3.4177,-3.4177,-3.4177,-3.4177,-3.1325,-3.1118,-3.333,-2.819,-2.7041,-4.2003,-4.7454,-5.2537,-5.539,0.0,-6.2631,-6.6636,-6.7087,-6.771,-7.1525,-7.2368,0.0,0.0,0.0,0.0,0.0,0.0,0.0,0.0,0.0,0.0,0.0,0.0,0.0,0.0,0.0,0.0,0.0,0.0,-7.0765,-7.0765,-7.0765,-7.0765,-7.0765,-7.0765,-7.0765,-7.0765,-7.0765,-7.0765,-7.0765,-7.0765,-7.0765,-7.0765,-7.0765,-7.0765,-7.0582,-6.6508,-6.406,-6.2454,-5.8549,-5.696,-5.7062,-5.7062,-5.7062,-5.7062,-5.7062,-5.6177,-5.5012,-5.5012,-5.5012,-5.4936,-5.4519,-5.4671,-5.4936,-5.4481,-5.3759,-5.3038,-5.262,-5.1937,-5.1102,-5.0171,-5.0588,-5.1005,-5.0134,-5.0247,-5.0532,-5.002,-4.9944,-4.9944,-4.9944,-4.9944,-4.9944,-4.9944,-4.8921,-4.6745,-4.2758,-3.8725,-3.5681,-3.4381,-3.4177,-3.4177,-3.4177,-3.4177,-3.4177,-3.4177,-3.4177,-3.4177,-3.4177,-3.4177,-3.4177,-3.4177,-3.4177,-3.4177,-3.4177,-3.4177,-3.4177,-3.4177,-3.2792,-3.2919,-3.4177,-3.1452,-3.0083,-4.1665,-4.6386,-5.0865,-5.2188,-5.5963,-6.1168,-6.8013,-6.912,-6.997,-7.4304,-7.3808,0.0,0.0,0.0,0.0,0.0,0.0,0.0,0.0,0.0,0.0,0.0,0.0,0.0,0.0,0.0,0.0,0.0,0.0,0.0,-7.0765,-7.0765,-7.0765,-7.0765,-7.0765,-7.0765,-7.0765,-7.0765,-7.0765,-7.0765,-7.0765,-7.0765,-7.0765,-7.0765,-7.0765,-7.049,-6.5699,-6.3627,-6.3237,-5.865,-5.7838,-5.9717,-5.9717,-5.9416,-5.8912,-5.8912,-5.7266,-5.5012,-5.5012,-5.5012,-5.486,-5.4165,-5.4215,-5.4633,-5.4089,-5.319,-5.2506,-5.2506,-5.1937,-5.1102,-5.0171,-5.0891,-5.1633,-5.0247,-4.9944,-4.9944,-4.9944,-4.9944,-4.9944,-4.9944,-4.9944,-4.9944,-4.9944,-4.9944,-4.8349,-4.3769,-3.8425,-3.4866,-3.4279,-3.4177,-3.4177,-3.4177,-3.4177,-3.4177,-3.4177,-3.4177,-3.4177,-3.4177,-3.4177,-3.4177,-3.4177,-3.4177,-3.4177,-3.4177,-3.4177,-3.4177,-3.4177,-3.4177,-3.4177,-3.4177,-3.4177,-3.2714,-4.3772,-4.7161,-5.0811,-5.4762,-5.5492,-5.7198,-6.4764,-6.7762,-7.0044,-7.3948,0.0,-7.6627,0.0,0.0,0.0,0.0,0.0,0.0,0.0,0.0,0.0,0.0,0.0,0.0,0.0,0.0,0.0,0.0,0.0,0.0,0.0,-7.0765,-7.0765,-7.0765,-7.0765,-7.0765,-7.0765,-7.0765,-7.0765,-7.0765,-7.0765,-7.0765,-7.0765,-7.0765,-7.0765,-7.0582,-6.7786,-6.6555,-6.6223,-6.3237,-6.2257,-6.2454,-6.2454,-6.0973,-5.8912,-5.8912,-5.7266,-5.5012,-5.5012,-5.5012,-5.486,-5.4165,-5.3937,-5.3975,-5.3899,-5.319,-5.2506,-5.2506,-5.1937,-5.1102,-5.0171,-5.0058,-5.0134,-4.9982,-4.9944,-4.9944,-4.9944,-4.9944,-4.9944,-4.9944,-4.9944,-4.9944,-4.9944,-4.9944,-4.9016,-4.6132,-4.1214,-3.6871,-3.4484,-3.4177,-3.4177,-3.4177,-3.4177,-3.4177,-3.4177,-3.4177,-3.4177,-3.4177,-3.4177,-3.4177,-3.4177,-3.4177,-3.4177,-3.4177,-3.4177,-3.4177,-3.4177,-3.4177,-3.4177,-3.4177,-3.4177,-3.2714,-3.7875,-4.1535,-4.5784,-4.9196,-5.365,-5.8265,-6.2965,0.0,0.0,0.0,-7.4344,-7.4644,-7.2177,0.0,0.0,0.0,0.0,0.0,0.0,0.0,0.0,0.0,0.0,0.0,0.0,0.0,0.0,0.0,0.0,0.0,0.0,-7.0765,-7.0765,-7.0765,-7.0765,-7.0765,-7.0765,-7.0765,-7.0765,-7.0765,-7.0765,-7.0765,-7.0765,-7.0765,-7.0765,-7.0674,-6.961,-6.8303,-6.665,-6.3963,-6.3768,-6.5264,-6.5264,-6.3574,-6.127,-6.127,-5.865,-5.5012,-5.5012,-5.5012,-5.486,-5.4165,-5.3899,-5.3785,-5.3152,-5.2431,-5.1899,-5.2355,-5.1937,-5.1216,-5.0874,-5.0798,-5.0646,-5.0058,-4.9944,-4.9944,-4.9944,-4.9944,-4.9944,-4.9944,-4.9944,-4.9944,-4.9944,-4.9944,-4.9016,-4.6456,-4.2888,-3.9025,-3.4764,-3.4177,-3.4177,-3.4177,-3.4177,-3.4177,-3.4177,-3.4177,-3.4177,-3.4177,-3.4177,-3.4177,-3.4177,-3.4177,-3.4177,-3.4177,-3.4177,-3.4177,-3.4177,-3.4177,-3.4177,-3.4177,-3.4177,-3.2714,-3.4653,-3.768,-4.1514,-4.4555,-5.0348,0.0,0.0,-6.2449,0.0,0.0,-7.3054,-7.4056,-7.0169,0.0,0.0,0.0,0.0,0.0,0.0,0.0,0.0,0.0,0.0,0.0,0.0,0.0,0.0,0.0,0.0,0.0,0.0,-7.0765,-7.0765,-7.0765,-7.0765,-7.0765,-7.0765,-7.0765,-7.0765,-7.0765,-7.0765,-7.0765,-7.0765,-7.0765,-7.0765,-7.0765,-7.0765,-6.9702,-6.788,-6.589,-6.6272,-6.7974,-6.7974,-6.589,-6.2748,-6.2748,-5.9516,-5.5012,-5.5012,-5.5012,-5.486,-5.4165,-5.3899,-5.3785,-5.3076,-5.2317,-5.1823,-5.2658,-5.2279,-5.1595,-5.1367,-5.1292,-5.1064,-5.0134,-4.9944,-4.9944,-4.9944,-4.9944,-4.9944,-4.9944,-4.9944,-4.9944,-4.9944,-4.9944,-4.9338,-4.7548,-4.4971,-4.2003,-3.8224,-3.6365,-3.507,-3.4279,-3.4177,-3.4177,-3.4177,-3.4177,-3.4177,-3.4177,-3.4177,-3.4177,-3.4177,-3.4177,-3.4177,-3.4177,-3.4177,-3.4177,-3.4177,-3.4177,-3.4177,-3.4177,-3.4177,-3.2714,-3.6607,-3.7679,-3.929,-4.256,-4.5415,0.0,-5.6806,-5.7773,-5.8967,-6.5716,-7.2185,-7.6198,-7.4861,0.0,0.0,0.0,0.0,0.0,0.0,0.0,0.0,0.0,0.0,0.0,0.0,0.0,0.0,0.0,0.0,0.0,0.0,-7.0765,-7.0765,-7.0765,-7.0765,-7.0765,-7.0765,-7.0765,-7.0765,-7.0765,-7.0765,-7.0765,-7.0765,-7.0765,-7.0765,-7.0765,-7.0765,-7.0765,-7.0674,-7.0674,-7.0674,-7.0674,-7.0674,-6.7456,-6.2748,-6.2748,-5.9516,-5.5012,-5.5012,-5.5012,-5.486,-5.4165,-5.3899,-5.3899,-5.3861,-5.319,-5.2658,-5.3532,-5.3152,-5.2317,-5.1519,-5.1292,-5.1064,-5.0134,-4.9944,-4.9944,-4.9944,-4.9944,-4.9944,-4.9944,-4.9944,-4.9944,-4.9944,-4.9944,-4.9944,-4.9944,-4.774,-4.6035,-4.5939,-4.1312,-3.7073,-3.4484,-3.4177,-3.4177,-3.4177,-3.4177,-3.4177,-3.4177,-3.4177,-3.4177,-3.4177,-3.4177,-3.4177,-3.4177,-3.4177,-3.4177,-3.4177,-3.4177,-3.4177,-3.4177,-3.4177,-3.2714,-3.3487,-3.602,-4.0049,-4.6627,-4.8482,-5.0788,-5.8694,-5.9338,-6.0663,-6.9132,-6.6349,-6.2459,-6.2755,0.0,0.0,0.0,0.0,0.0,0.0,0.0,0.0,0.0,0.0,0.0,0.0,0.0,0.0,0.0,0.0,0.0,0.0,-7.0765,-7.0765,-7.0765,-7.0765,-7.0765,-7.0765,-7.0765,-7.0765,-7.0765,-7.0765,-7.0765,-7.0765,-7.0765,-7.0765,-7.0765,-7.0765,-7.0765,-7.0765,-7.0765,-7.0765,-7.0582,-6.8772,-6.589,-6.2552,-6.0774,-5.794,-5.5012,-5.5012,-5.5012,-5.4936,-5.4708,-5.4215,-5.3785,-5.3076,-5.2355,-5.1747,-5.2013,-5.1899,-5.1747,-5.2051,-5.1709,-5.1064,-5.0134,-4.9944,-4.9944,-4.9944,-4.9944,-4.9944,-4.9944,-4.9944,-4.9944,-4.9944,-4.9944,-4.9944,-4.9944,-4.774,-4.5456,-4.3671,-4.0321,-3.7073,-3.4484,-3.4177,-3.4177,-3.4177,-3.4177,-3.4177,-3.4177,-3.4177,-3.4177,-3.4177,-3.4177,-3.4177,-3.4177,-3.4177,-3.4177,-3.4177,-3.4177,-3.4177,-3.4177,-3.4177,-3.2714,-3.4023,-3.6119,-3.9753,-4.7527,-4.8005,-4.8913,-5.7889,-5.6421,-5.5742,-6.5038,-6.0862,0.0,0.0,0.0,-7.0439,-7.2177,-7.6259,0.0,0.0,0.0,0.0,0.0,0.0,0.0,0.0,0.0,0.0,0.0,0.0,0.0,-7.0765,-7.0765,-7.0765,-7.0765,-7.0765,-7.0765,-7.0765,-7.0765,-7.0765,-7.0765,-7.0765,-7.0765,-7.0765,-7.0765,-7.0765,-7.0765,-7.0765,-7.0765,-7.0765,-7.0765,-7.0765,-7.0582,-6.8959,-6.6127,-6.2454,-5.9817,-5.7266,-5.5012,-5.5012,-5.5012,-5.5012,-5.5012,-5.4671,-5.4139,-5.3607,-5.2886,-5.2279,-5.262,-5.2241,-5.1709,-5.1595,-5.1216,-5.0684,-5.0058,-4.9944,-4.9944,-4.9944,-4.9944,-4.9944,-4.9944,-4.9944,-4.9944,-4.9944,-4.9944,-4.9944,-4.9944,-4.774,-4.5456,-4.3867,-4.0421,-3.7448,-3.5885,-3.4764,-3.4177,-3.4177,-3.4177,-3.4177,-3.4177,-3.4177,-3.4177,-3.4177,-3.4177,-3.4177,-3.4177,-3.4177,-3.4177,-3.4177,-3.4177,-3.4177,-3.4177,-3.4177,-3.2714,-3.6947,-3.7484,-3.8662,-4.5929,-4.4947,-4.4795,-5.4922,-5.0096,0.0,-5.5368,0.0,0.0,0.0,-6.7548,-7.1071,-7.2318,-7.68,-7.9432,0.0,0.0,0.0,0.0,0.0,0.0,0.0,0.0,0.0,0.0,0.0,0.0,-7.1132,-7.0857,-7.0765,-7.0765,-7.0765,-7.0765,-7.0765,-7.0765,-7.0668,-7.0521,-7.0716,-7.0668,-7.057,-7.0716,-7.0765,-7.0765,-7.0435,-7.0435,-7.0765,-7.0435,-7.0435,-7.0765,-7.0765,-6.7645,-6.2748,-5.9917,-5.7266,-5.5012,-5.5012,-5.5012,-5.5012,-5.5012,-5.5012,-5.4974,-5.4936,-5.4367,-5.4013,-5.4557,-5.3645,-5.2165,-5.0513,-5.002,-4.9944,-4.9944,-4.9944,-4.9944,-4.9944,-4.9944,-4.9944,-4.9944,-4.9944,-4.9944,-4.9944,-4.9944,-4.9944,-4.9944,-4.774,-4.6035,-4.5842,-4.1312,-3.8052,-3.7851,-3.5681,-3.4177,-3.4177,-3.4177,-3.4177,-3.4177,-3.4177,-3.4177,-3.4177,-3.4177,-3.4177,-3.4177,-3.4177,-3.4177,-3.4177,-3.4177,-3.4177,-3.4177,-3.3972,-3.238,-3.3292,-3.5193,-3.8558,-4.5235,-4.5264,-4.5532,-5.2917,-4.8393,0.0,0.0,0.0,0.0,0.0,-5.5868,0.0,-6.3582,-7.1901,-7.7254,0.0,0.0,0.0,0.0,0.0,0.0,0.0,0.0,0.0,0.0,0.0,0.0,-7.3328,-7.172,-7.0765,-7.0765,-7.0765,-7.0765,-7.0765,-7.0765,-6.9844,-6.8282,-6.9983,-6.9844,-6.8282,-6.9941,-7.0765,-7.0576,-6.7286,-6.7707,-7.0527,-6.7195,-6.7755,-7.0765,-7.0765,-6.8724,-6.5361,-6.0617,-5.7266,-5.5012,-5.5012,-5.5012,-5.5012,-5.5012,-5.5012,-5.486,-5.4253,-5.3949,-5.3671,-5.2468,-5.2317,-5.2431,-5.2013,-5.0891,-4.9944,-4.9944,-4.9944,-4.9944,-4.9944,-4.9944,-4.9944,-4.9944,-4.9944,-4.9944,-4.9944,-4.9944,-4.9944,-4.9944,-4.774,-4.5359,-4.3378,-4.0222,-3.7376,-3.5376,-3.4586,-3.4177,-3.4177,-3.4177,-3.4177,-3.4177,-3.4177,-3.4177,-3.4177,-3.4177,-3.4177,-3.4177,-3.4177,-3.4177,-3.4177,-3.4177,-3.4177,-3.4177,-3.1968,-2.9438,-3.3877,-3.5924,-3.8315,-4.0993,-4.0853,-4.0962,-4.4548,0.0,0.0,0.0,0.0,0.0,0.0,0.0,-5.5713,-5.8257,0.0,-7.086,-7.0543,-7.3225,0.0,0.0,0.0,0.0,0.0,0.0,0.0,0.0,0.0,0.0,-7.4075,-7.1943,-7.0765,-7.0765,-7.0765,-7.0765,-7.0765,-7.0765,-6.96,-6.7413,-6.9649,-6.9551,-6.755,-6.9697,-7.0765,-7.0625,0.0,-6.8643,-7.0576,-6.8268,-6.8643,-7.0765,-7.0765,-6.9145,-6.6364,-6.2159,-5.9013,-5.6691,-5.5389,-5.5012,-5.5012,-5.5012,-5.5012,-5.4936,-5.4481,-5.4329,-5.4139,-5.3266,-5.3038,-5.2924,-5.2165,-5.1292,-5.0532,-5.002,-4.9944,-4.9944,-4.9944,-4.9944,-4.9944,-4.9944,-4.9944,-4.9944,-4.9944,-4.9944,-4.9528,-4.8349,-4.5939,-4.3378,-4.0619,-3.7952,-3.5783,-3.4381,-3.4177,-3.4177,-3.4177,-3.4177,-3.4177,-3.4177,-3.4177,-3.4177,-3.4177,-3.4177,-3.4177,-3.4177,-3.4177,-3.4177,-3.4177,-3.4177,-3.4177,-3.4177,-3.2586,-2.9772,-3.5391,-3.7143,-3.7872,-3.6452,-3.5312,-3.47,-3.5051,0.0,0.0,0.0,0.0,0.0,0.0,-5.3199,-5.6879,0.0,0.0,-6.2849,0.0,0.0,-7.0652,-6.8018,0.0,0.0,0.0,0.0,0.0,0.0,0.0,-7.6509,-7.4163,-7.1943,-7.0765,-7.0765,-7.0765,-7.0765,-7.0765,-7.0765,-6.96,-6.7413,-6.9649,-6.9551,-6.755,-6.9697,-7.0765,-7.0765,0.0,-7.0149,-7.0716,-7.0009,-7.0198,-7.0765,-7.0765,-6.9145,-6.6555,-6.3821,-6.1171,-5.8549,-5.5868,-5.5012,-5.5012,-5.5012,-5.5012,-5.5012,-5.5012,-5.5012,-5.5012,-5.5012,-5.4405,-5.3557,-5.2051,-5.1481,-5.1102,-5.0285,-5.002,-4.9944,-4.9944,-4.9944,-4.9944,-4.9944,-4.9944,-4.9944,-4.9944,-4.9944,-4.9016,-4.6456,-4.3867,-4.1182,-3.8454,-3.5885,-3.4177,-3.4177,-3.4177,-3.4177,-3.4177,-3.4177,-3.4177,-3.4177,-3.4177,-3.4177,-3.4177,-3.4177,-3.4177,-3.4177,-3.4177,-3.4177,-3.4177,-3.4177,-3.4177,-3.4177,-3.3741,-3.1015,-3.2403,-3.4694,-3.6828,-3.7544,-3.4768,-3.2123,-3.3045,0.0,0.0,0.0,-3.44,-3.551,0.0,-4.2075,0.0,0.0,0.0,0.0,-6.4448,-6.6421,-6.7349,-6.789,-6.9118,0.0,0.0,0.0,0.0,0.0,0.0,-7.6509,-7.4163,-7.1943,-7.0765,-7.0765,-7.0765,-7.0765,-7.0765,-7.0765,-6.96,-6.7413,-6.9649,-6.9551,-6.755,-6.9697,-7.0765,-7.0576,0.0,0.0,-7.0435,-6.6823,-6.7473,-7.0765,-7.0765,-6.9145,-6.6555,-6.3821,-6.1171,-5.8549,-5.5868,-5.5012,-5.5012,-5.5012,-5.5012,-5.5012,-5.5012,-5.5012,-5.5012,-5.5012,-5.4405,-5.3823,-5.3557,-5.2355,-5.1254,-5.114,-5.0532,-4.9944,-4.9944,-4.9944,-4.9944,-4.9944,-4.9944,-4.9944,-4.9944,-4.9944,-4.9016,-4.6456,-4.3867,-4.1182,-3.8454,-3.5885,-3.4177,-3.4177,-3.4177,-3.4177,-3.4177,-3.4177,-3.4177,-3.4177,-3.4177,-3.4177,-3.4177,-3.4177,-3.4177,-3.4177,-3.4177,-3.4177,-3.4177,-3.4177,-3.4177,-3.4177,-3.1762,-3.0164,-3.3594,-3.5075,-3.6085,-3.4823,-3.2342,-3.0068,-2.9459,-2.8336,-2.8508,0.0,-3.2981,-3.4343,-3.8992,-3.988,-4.1535,-4.6587,-4.9724,0.0,0.0,0.0,-6.4915,-6.4322,-6.8196,0.0,0.0,0.0,0.0,0.0,0.0,-7.6509,-7.4163,-7.1943,-7.0765,-7.0765,-7.0765,-7.0765,-7.0765,-7.0765,-6.96,-6.7413,-6.9649,-6.8377,-6.4154,-6.871,-6.9443,-6.7334,-6.7707,-6.8879,-7.0576,-6.8643,-6.9018,-7.0765,-7.0765,-6.998,-6.8444,-6.4306,-6.206,-6.0417,-5.6383,-5.5012,-5.5012,-5.5012,-5.5012,-5.5012,-5.5012,-5.5012,-5.4898,-5.4481,-5.4063,-5.3785,-5.3228,-5.2203,-5.1292,-5.1292,-5.0646,-4.9944,-4.9944,-4.9944,-4.9944,-4.9944,-4.9944,-4.9944,-4.9944,-4.9944,-4.8635,-4.4548,-4.2954,-4.0718,-3.6567,-3.4968,-3.4177,-3.4177,-3.4177,-3.4177,-3.4177,-3.4177,-3.4177,-3.4177,-3.4177,-3.4177,-3.4177,-3.4177,-3.4177,-3.4177,-3.4177,-3.4177,-3.4177,-3.4177,-3.4177,-3.4177,-3.2919,-3.1428,-3.7338,0.0,-3.7934,-3.4872,-3.2639,-3.051,0.0,-2.7821,-2.8473,-3.0758,-3.2148,-3.3837,-3.6758,-3.8589,-4.068,-4.3587,-4.8091,-5.2344,-5.522,0.0,0.0,-6.1578,-6.7949,0.0,0.0,0.0,0.0,0.0,0.0,-7.6509,-7.4163,-7.1943,-7.0765,-7.0765,-7.0765,-7.0765,-7.0765,-7.0765,-6.9844,-6.8282,-6.9983,-6.7637,-6.2007,-6.7968,-6.8455,-6.4606,-6.8879,-7.0765,-7.0765,-7.0765,-7.0765,-7.0765,-7.0765,-7.0398,-6.9331,-6.45,-6.2356,-6.1171,-5.6589,-5.5012,-5.5012,-5.5012,-5.5012,-5.5012,-5.5012,-5.5012,-5.486,-5.4253,-5.4013,-5.3747,-5.2962,-5.2051,-5.1292,-5.1292,-5.0646,-4.9944,-4.9944,-4.9944,-4.9944,-4.9944,-4.9944,-4.9944,-4.9944,-4.9433,-4.7644,-4.3671,-4.1971,-3.9724,-3.5654,-3.4586,-3.4177,-3.4177,-3.4177,-3.4177,-3.4177,-3.4177,-3.4177,-3.4177,-3.4177,-3.4177,-3.4177,-3.4177,-3.4177,-3.4177,-3.4177,-3.4177,-3.4177,-3.4177,-3.4177,-3.4177,-3.4177,-3.3022,0.0,-4.5635,-4.4815,-4.2522,-3.9139,-3.5721,-3.2988,-2.9822,0.0,-2.8641,-2.9628,-3.0803,-3.2258,-3.4338,-3.5861,-3.6165,-4.3693,-4.9377,0.0,-5.5025,0.0,0.0,-6.8276,0.0,0.0,0.0,0.0,0.0,0.0,0.0,-7.4163,-7.1943,-7.0765,-7.0765,-7.0765,-7.0765,-7.0765,-7.0765,-7.0668,-7.057,-7.0716,-6.8407,-6.4235,-6.8734,-6.8455,0.0,-6.8879,-7.0765,-7.0765,-7.0765,-7.0765,-7.0765,-7.0765,-6.9238,-6.684,-6.3866,-6.127,-5.8751,-5.5971,-5.5012,-5.5012,-5.5012,-5.5012,-5.5012,-5.5012,-5.5012,-5.4974,-5.4936,-5.4367,-5.3861,-5.3823,-5.2506,-5.1292,-5.1292,-5.0646,-4.9944,-4.9944,-4.9944,-4.9944,-4.9944,-4.9944,-4.9944,-4.9944,-4.7931,-4.6263,-4.5842,-4.1609,-3.8253,-3.7851,-3.5681,-3.4177,-3.4177,-3.4177,-3.4177,-3.4177,-3.4177,-3.4177,-3.4177,-3.4177,-3.4177,-3.4177,-3.4177,-3.4177,-3.4177,-3.4177,-3.4177,-3.4177,-3.4177,-3.4177,-3.4177,-3.4177,-3.4074,-4.6719,-4.761,-4.7497,-4.4979,-4.143,-3.7553,-3.3737,-3.0857,-2.8898,-2.8629,-2.8875,-2.9948,-3.2703,-3.3238,-3.5337,-4.1389,-4.475,0.0,0.0,0.0,0.0,-6.3386,0.0,0.0,0.0,0.0,0.0,0.0,0.0,0.0,-7.4024,-7.1943,-7.0765,-7.0765,-7.0765,-7.0765,-7.0765,-7.0765,-7.0765,-7.0765,-7.0765,-6.8503,-6.4469,-6.883,-6.8455,-6.4606,-6.8879,-6.9255,0.0,-6.9631,-6.9206,-6.7009,-6.968,-7.0213,-6.8959,-6.6318,-6.3671,-6.0973,-5.8346,-5.6383,-5.5012,-5.5012,-5.5012,-5.5012,-5.5012,-5.5012,-5.4898,-5.4367,-5.3645,-5.3114,-5.3645,-5.2165,-5.076,-5.1823,-5.1026,-4.9944,-4.9944,-4.9944,-4.9944,-4.9944,-4.9944,-4.9944,-4.9944,-4.9148,-4.7931,-4.636,-4.2986,-4.0023,-3.8354,-3.5885,-3.4177,-3.4177,-3.4177,-3.4177,-3.4177,-3.4177,-3.4177,-3.4177,-3.4177,-3.4177,-3.4177,-3.4177,-3.4177,-3.4177,-3.4177,-3.4177,-3.4177,-3.4177,-3.4177,-3.4177,-3.4177,-3.4177,-5.0324,-5.1189,-5.1796,-4.9168,-4.4976,-4.0399,-3.6025,-3.2908,-3.0519,-2.8935,-2.8881,-3.0077,-3.3273,-3.314,-3.552,-4.4529,-4.5646,0.0,0.0,0.0,0.0,-6.3499,-6.8728,0.0,0.0,0.0,0.0,0.0,0.0,0.0,-7.511,-7.2394,-7.0765,-7.0765,-7.0765,-7.0765,-7.0765,-7.0765,-7.0765,-7.0765,-7.0765,-6.8503,-6.4469,-6.883,-6.8455,-6.4606,-6.8879,-6.8316,-6.4652,-6.9018,-6.8268,-6.4789,-6.9066,-7.0765,-7.049,-6.7786,-6.5123,-6.2454,-5.9817,-5.7164,-5.5012,-5.5012,-5.5012,-5.5012,-5.5012,-5.5012,-5.486,-5.4329,-5.3569,-5.3,-5.3304,-5.1899,-5.0646,-5.1519,-5.074,-4.9944,-4.9944,-4.9944,-4.9944,-4.9944,-4.9944,-4.9944,-4.9944,-4.9243,-4.8445,-4.7453,-4.3671,-4.052,-3.9525,-3.6365,-3.4177,-3.4177,-3.4177,-3.4177,-3.4177,-3.4177,-3.4177,-3.4177,-3.4177,-3.4177,-3.4177,-3.4177,-3.4177,-3.4177,-3.4177,-3.4177,-3.4177,-3.4177,-3.4177,-3.4177,-3.4177,-3.4177,-5.5538,-5.7198,-5.8498,-5.6002,-5.0706,-4.4995,0.0,0.0,-3.223,-2.9202,-2.9541,-3.1037,-3.3405,-3.3868,-3.622,-4.3393,0.0,0.0,-5.4992,-5.8031,-6.0277,0.0,0.0,0.0,0.0,0.0,0.0,0.0,0.0,0.0,-7.7584,-7.3201,-7.0765,-7.0765,-7.0765,-7.0765,-7.0765,-7.0765,-7.0765,-7.0765,-7.0765,-6.8503,-6.4559,-6.883,-6.8455,-6.4606,-6.8879,-6.8268,0.0,-6.9018,-6.822,-6.4743,-6.9066,-7.0765,-7.049,-6.788,-6.5123,-6.2454,-5.9817,-5.7164,-5.5012,-5.5012,-5.5012,-5.5012,-5.5012,-5.5012,-5.5012,-5.5012,-5.4405,-5.3709,-5.2734,-5.1899,-5.1102,-5.0134,-4.9944,-4.9944,-4.9944,-4.9944,-4.9944,-4.9944,-4.9944,-4.9944,-4.9944,-4.7835,-4.6937,-4.9528,-4.3182,-3.9125,-4.1774,-3.7549,-3.4177,-3.4177,-3.4177,-3.4177,-3.4177,-3.4177,-3.4177,-3.4177,-3.4177,-3.4177,-3.4177,-3.4177,-3.4177,-3.4177,-3.4177,-3.4177,-3.4177,-3.4177,-3.4177,-3.4177,-3.4177,-3.4177,-5.4658,-5.6384,-5.8776,-5.7456,-5.2009,-4.5647,0.0,0.0,-3.2852,-2.9331,-2.9541,-3.1271,-3.4331,-3.4897,-3.7862,0.0,0.0,-5.1474,-5.9116,-6.2135,-6.4049,0.0,0.0,-7.0092,0.0,0.0,0.0,0.0,0.0,0.0,-7.5023,-7.2304,-7.0765,-7.0765,-7.0765,-7.0765,-7.0765,-7.0765,-7.0765,-7.0765,-7.0765,-7.0057,-6.8879,-7.0198,-7.0009,-6.8879,-7.0198,-6.659,0.0,-6.7707,-6.6404,-6.0566,-6.7894,-7.0765,-7.0674,-6.9888,-6.6699,-6.265,-6.1863,-5.8751,-5.5012,-5.5012,-5.5012,-5.5012,-5.5012,-5.5012,-5.5012,-5.5012,-5.4822,-5.4443,-5.3607,-5.2355,-5.1254,-5.0988,-5.0456,-4.9944,-4.9944,-4.9944,-4.9944,-4.9944,-4.9944,-4.9944,-4.9944,-4.9338,-4.8445,-4.7357,-4.3671,-4.0619,-3.9425,-3.6365,-3.4177,-3.4177,-3.4177,-3.4177,-3.4177,-3.4177,-3.4177,-3.4177,-3.4177,-3.4177,-3.4177,-3.4177,-3.4177,-3.4177,-3.4177,-3.4177,-3.4177,-3.4177,-3.4177,-3.4177,-3.4177,-3.4177,-5.6284,-5.7492,-5.9501,-5.8738,-5.3616,-4.7822,-4.4013,0.0,-3.5128,-3.1904,-3.148,-3.3101,-3.7552,-3.8837,-4.2118,0.0,0.0,0.0,-6.0254,-6.3367,-6.5283,-6.6003,-6.8746,0.0,0.0,0.0,0.0,0.0,0.0,0.0,-7.2742,-7.1448,-7.0765,-7.0765,-7.0765,-7.0765,-7.0765,-7.0765,-7.0765,-7.0765,-7.0765,-7.0765,-7.0765,-7.0765,-7.0765,-7.0765,-7.0765,-6.6823,0.0,-6.7894,-6.6728,-6.1151,-6.8081,-7.0765,-7.0674,-6.961,-6.6462,-6.265,-6.1567,-5.8549,-5.5012,-5.5012,-5.5012,-5.5012,-5.5012,-5.5012,-5.5012,-5.5012,-5.5012,-5.4898,-5.4405,-5.3038,-5.1595,-5.095,-5.0418,-4.9944,-4.9944,-4.9944,-4.9944,-4.9944,-4.9944,-4.9944,-4.9944,-4.9944,-4.9016,-4.6456,-4.3867,-4.1182,-3.8454,-3.5885,-3.4177,-3.4177,-3.4177,-3.4177,-3.4177,-3.4177,-3.4177,-3.4177,-3.4177,-3.4177,-3.4177,-3.4177,-3.4177,-3.4177,-3.4177,-3.4177,-3.4177,-3.4177,-3.4177,-3.4177,-3.4177,-3.4177,-5.9362,-5.9737,-6.0431,-5.9566,-5.527,-5.0641,-4.8156,0.0,0.0,-3.5466,-3.4359,-3.5682,-4.1224,-4.3541,-4.7314,0.0,0.0,-5.6533,-6.0354,-6.3334,-6.5194,-6.527,0.0,0.0,-7.6472,0.0,0.0,0.0,0.0,0.0,-7.1539,-7.0949,-7.0765,-7.0765,-7.0765,-7.0765,-7.0765,-7.0765,-7.0765,-7.0765,-7.0765,-7.0765,-7.0765,-7.0765,-7.0765,-7.0765,-7.0765,-6.8316,0.0,-6.9018,-6.8268,-6.4789,-6.9066,-7.0765,-7.049,-6.7786,-6.5123,-6.2454,-5.9817,-5.7164,-5.5012,-5.5012,-5.5012,-5.5012,-5.5012,-5.5012,-5.5012,-5.5012,-5.5012,-5.4974,-5.4898,-5.3721,-5.2127,-5.0437,-4.9982,-4.9944,-4.9944,-4.9944,-4.9944,-4.9944,-4.9944,-4.9944,-4.9944,-4.9944,-4.9016,-4.6132,-4.3671,-4.1083,-3.8153,-3.5681,-3.4177,-3.4177,-3.4177,-3.4177,-3.4177,-3.4177,-3.4177,-3.4177,-3.4177,-3.4177,-3.4177,-3.4177,-3.4177,-3.4177,-3.4177,-3.4177,-3.4177,-3.4177,-3.4177,-3.4177,-3.4177,-3.4177,-5.9987,-5.9856,-6.0264,-5.8671,-5.527,-5.0933,-4.544,-4.28,0.0,0.0,-3.3929,-3.5474,-3.6777,-4.0001,-4.574,0.0,-5.9258,-6.2508,-6.787,-6.9125,-6.922,0.0,-6.979,0.0,-7.2955,-7.3854,0.0,0.0,0.0,0.0,-7.5974,-7.2664,-7.0765,-7.0765,-7.0765,-7.0765,-7.0765,-7.0765,-7.0765,-7.0765,-7.0765,-7.0765,-7.0765,-7.0765,-7.0765,-7.0765,-7.0765,-6.8316,-6.4652,-6.9018,-6.8268,-6.4789,-6.9066,-7.0765,-7.049,-6.7786,-6.5123,-6.2454,-5.9817,-5.7164,-5.5012,-5.5012,-5.5012,-5.5012,-5.5012,-5.5012,-5.5012,-5.5012,-5.5012,-5.486,-5.4215,-5.3266,-5.2241,-5.1254,-5.0532,-4.9944,-4.9944,-4.9944,-4.9944,-4.9944,-4.9944,-4.9944,-4.9944,-4.9944,-4.8349,-4.3671,-4.2561,-4.039,-3.5681,-3.4586,-3.4177,-3.4177,-3.4177,-3.4177,-3.4177,-3.4177,-3.4177,-3.4177,-3.4177,-3.4177,-3.4177,-3.4177,-3.4177,-3.4177,-3.4177,-3.4177,-3.4177,-3.4177,-3.4177,-3.4177,-3.4177,-3.4177,-6.0159,-6.0445,-6.1581,-6.0366,-5.7582,-5.4263,-5.0705,0.0,0.0,0.0,-3.83,-3.871,-3.9595,-4.3382,0.0,-5.6873,-6.0971,-6.3979,-6.6608,-6.9627,0.0,-6.8341,-7.0589,-7.2812,0.0,-7.4534,0.0,0.0,0.0,-7.4889,-7.6534,-7.2846,-7.0765,-7.0765,-7.0765,-7.0765,-7.0765,-7.0765,-7.0765,-7.0765,-7.0765,-7.0765,-7.0765,-7.0765,-7.0765,-7.0765,-7.0765,-6.9443,-6.7568,-6.982,-6.9443,-6.7659,-6.9868,-7.0765,-7.0305,-6.6413,-6.406,-6.2257,-5.8346,-5.6177,-5.5012,-5.5012,-5.5012,-5.5012,-5.5012,-5.5012,-5.5012,-5.5012,-5.4708,-5.4291,-5.3975,-5.2848,-5.1823,-5.1405,-5.0646,-4.9944,-4.9944,-4.9944,-4.9944,-4.9944,-4.9944,-4.9944,-4.9944,-4.9944,-4.8217,-4.2986,-4.2168,-4.0222,-3.4866,-3.4177,-3.4177,-3.4177,-3.4177,-3.4177,-3.4177,-3.4177,-3.4177,-3.4177,-3.4177,-3.4177,-3.4177,-3.4177,-3.4177,-3.4177,-3.4177,-3.4177,-3.4177,-3.4177,-3.4177,-3.4177,-3.4177,-3.4177,-6.1248,-6.1777,-6.2994,-6.2287,-6.0406,-5.8268,-5.6675,-5.3417,0.0,0.0,-4.4439,-4.3807,-4.5264,-4.8766,-5.3424,-5.9364,-6.279,-6.4697,-6.4982,-6.9452,-7.1417,0.0,-7.0524,-7.3617,-7.6059,-7.5844,0.0,0.0,0.0,-7.6022,-7.4592,-7.1722,-7.0374,-7.0765,-7.0765,-7.0765,-7.0765,-7.0765,-7.0765,-7.0765,-7.0765,-7.0765,-7.0765,-7.0765,-7.0387,-6.968,-7.0435,0.0,-6.8988,-7.0203,-7.049,-7.0121,-7.0582,-7.0765,-7.0072,-6.4789,-6.3042,-6.265,-5.696,-5.5286,-5.5596,-5.522,-5.5012,-5.5012,-5.5012,-5.5012,-5.5012,-5.5012,-5.4519,-5.4013,-5.3645,-5.2544,-5.1443,-5.114,-5.0532,-4.9944,-4.9944,-4.9944,-4.9944,-4.9944,-4.9944,-4.9944,-4.9944,-4.9528,-4.7644,-4.2856,-4.1774,-3.9724,-3.4866,-3.4177,-3.4177,-3.4177,-3.4177,-3.4177,-3.4177,-3.4177,-3.4177,-3.4177,-3.4177,-3.4177,-3.4177,-3.4177,-3.4177,-3.4177,-3.4177,-3.4177,-3.4177,-3.4177,-3.4177,-3.4177,-3.4177,-3.4177,-6.5187,-6.4621,-6.2762,-6.1281,-6.134,-6.0233,-5.4264,-5.4004,-5.3799,-4.9679,0.0,-4.9634,-4.9449,-5.1068,-5.5474,-6.4556,0.0,-6.9062,-7.3986,-7.4528,-7.2972,-6.9218,-6.8274,-6.9782,-7.4453,-7.4829,-7.6453,-8.0386,-7.5969,-7.2087,-7.0147,-6.8682,-6.877,-7.0716,-7.0765,-7.0765,-7.0765,-7.0765,-7.0765,-7.0765,-7.0765,-7.0765,-7.0765,-7.0765,-6.8691,-6.5342,-6.9206,-6.731,-6.2131,-6.8241,-6.9424,-6.7598,-6.9888,-7.0765,-7.0072,-6.4789,-6.4254,-6.5264,-5.7675,-5.6486,-5.8042,-5.5803,-5.5012,-5.5012,-5.5012,-5.5012,-5.5012,-5.5012,-5.4936,-5.4519,-5.3076,-5.2506,-5.1975,-5.0437,-5.002,-4.9944,-4.9944,-4.9944,-4.9944,-4.9944,-4.9944,-4.9944,-4.9944,-4.8122,-4.5552,-4.2692,-4.0122,-3.7549,-3.4586,-3.4177,-3.4177,-3.4177,-3.4177,-3.4177,-3.4177,-3.4177,-3.4177,-3.4177,-3.4177,-3.4177,-3.4177,-3.4177,-3.4177,-3.4177,-3.4177,-3.4177,-3.4177,-3.4177,-3.4177,-3.4177,-3.4177,-3.4177,-6.1377,-6.28,-6.4097,-6.3328,-6.2763,-6.1593,-5.8624,-5.9058,-5.8998,-5.5227,-5.4863,0.0,-5.2596,0.0,0.0,0.0,0.0,0.0,-7.1143,-7.0789,-6.8745,0.0,-6.6603,0.0,-7.0722,-7.3848,-7.5501,0.0,-7.3179,-7.2087,-7.1759,-6.9562,-6.9112,-7.0716,-7.0765,-7.0765,-7.0765,-7.0765,-7.0765,-7.0765,-7.0765,-7.0765,-7.0765,-7.0765,-6.9771,-6.799,0.0,-6.6802,-6.4188,-6.7317,-6.788,-6.7125,-6.9702,-7.0765,-7.0305,-6.6508,-6.4834,-6.3866,-5.8953,-5.794,-5.8447,-5.5868,-5.5012,-5.5012,-5.5012,-5.5012,-5.5012,-5.5012,-5.4671,-5.4025,-5.2848,-5.2165,-5.1519,-5.0209,-4.9944,-4.9944,-4.9944,-4.9944,-4.9944,-4.9944,-4.9944,-4.9528,-4.8027,-4.6841,-4.4645,-4.052,-3.8855,-3.7174,-3.4586,-3.4177,-3.4177,-3.4177,-3.4177,-3.4177,-3.4177,-3.4177,-3.4177,-3.4177,-3.4177,-3.4177,-3.4177,-3.4177,-3.4177,-3.4177,-3.4177,-3.4177,-3.4177,-3.4177,-3.333,-3.1865,-3.1865,-3.1015,-5.8537,-6.0766,-6.3515,-6.4796,-6.4068,-6.2968,-6.2476,-6.322,-6.3351,-6.0937,-6.0401,-5.9779,0.0,0.0,0.0,-6.6537,-6.6158,0.0,-6.9501,-6.9192,0.0,-6.2553,0.0,-6.7134,-6.654,-7.1383,0.0,0.0,-7.0108,-7.0969,-7.1329,-6.934,-6.9014,-7.0716,-7.0765,-7.0765,-7.0765,-7.0765,-7.0765,-7.0765,-7.0765,-7.0765,-7.0765,-7.0765,-6.9782,-6.8056,-6.7176,-6.5853,-6.4351,-6.6134,-6.684,-6.7125,-6.9702,-7.0398,-6.9424,-6.6794,-6.4544,-6.2454,-5.9817,-5.8447,-5.7573,-5.5596,-5.5012,-5.5012,-5.5012,-5.5012,-5.4936,-5.4746,-5.4253,-5.3633,-5.2468,-5.1747,-5.1064,-5.0134,-4.9944,-4.9944,-4.9944,-4.9944,-4.9944,-4.9944,-4.9944,-4.9148,-4.6552,-4.4971,-4.2692,-3.8755,-3.7549,-3.6365,-3.4484,-3.4177,-3.4177,-3.4177,-3.4177,-3.4177,-3.4177,-3.4177,-3.4177,-3.4177,-3.4177,-3.4177,-3.4177,-3.4177,-3.4177,-3.4177,-3.3536,-3.3125,-3.3125,-3.238,-3.1015,-2.8919,-2.8919,-2.7773,-6.0654,-6.0321,-5.9087,-6.3922,-6.5029,-6.4492,-6.2788,-6.4251,-6.5861,-6.5759,-6.5704,-6.5834,0.0,0.0,-6.7752,-7.3243,-7.28,-7.2664,-7.5127,-7.4727,-7.16,0.0,0.0,0.0,0.0,0.0,0.0,-6.5731,0.0,-6.6456,-6.4912,-6.5621,-6.7452,-7.0668,-7.0765,-7.0765,-7.0765,-7.0765,-7.0765,-7.0765,-7.0765,-7.0765,-7.0765,-7.0765,-6.7171,-6.1025,-6.5115,-6.3135,-5.7373,-6.4071,-6.684,-6.7125,-6.9702,-6.9238,-6.6745,-6.406,-6.2944,-6.2454,-5.9817,-5.7266,-5.5182,-5.5078,-5.5012,-5.5012,-5.5012,-5.5012,-5.4822,-5.4165,-5.3899,-5.3519,-5.1785,-5.133,-5.1064,-5.0134,-4.9944,-4.9944,-4.9944,-4.9944,-4.9944,-4.9944,-4.9944,-4.9148,-4.6552,-4.1905,-3.8454,-3.8153,-3.5959,-3.4381,-3.4279,-3.4177,-3.4177,-3.4177,-3.4177,-3.4177,-3.4177,-3.4177,-3.4177,-3.4177,-3.4177,-3.4177,-3.4177,-3.4177,-3.4177,-3.4177,-3.1531,-3.0187,-3.0187,-2.7564,-2.6204,-2.6099,-2.6099,-2.5994,-5.5717,-5.7553,-5.9367,-6.1876,-6.4431,-6.5956,-6.4483,-6.6079,-6.7685,-6.6888,-6.7405,-6.7992,-6.8221,-6.8195,-6.9272,-7.2816,-7.0919,-6.9267,-7.017,-6.7335,-6.3894,-6.0396,-5.9969,-6.1034,0.0,0.0,0.0,-6.2765,-6.6579,-6.8861,-6.8376,-6.7448,-6.8087,-7.0668,-7.0765,-7.0765,-7.0765,-7.0765,-7.0765,-7.0765,-7.0765,-7.0765,-7.0765,-7.0765,-6.9361,-6.6893,-6.4999,-6.3853,-6.3179,-6.3942,-6.5219,-6.7125,-6.9702,-6.9145,-6.6745,-6.5744,-6.3281,-5.9917,-5.7266,-5.5803,-5.5012,-5.5012,-5.5012,-5.5012,-5.5012,-5.4633,-5.4139,-5.3975,-5.338,-5.2696,-5.1595,-5.1292,-5.1064,-5.0134,-4.9944,-4.9944,-4.9944,-4.9944,-4.9433,-4.774,-4.7453,-4.6649,-4.4062,-4.052,-3.7549,-3.5857,-3.4764,-3.4177,-3.4177,-3.2586,-3.1452,-3.1452,-2.9876,-2.8815,-2.8815,-2.8815,-2.8815,-2.8815,-2.8815,-2.8815,-2.8815,-2.8815,-2.8968,-2.9086,-2.8132,-2.7618,-2.7779,-2.6826,-2.5416,-2.3564,-2.3564,-2.2573,-5.1955,-5.3945,-5.6765,-5.9304,-6.2867,-6.5612,-6.5205,-6.7124,-6.8637,-6.736,-6.8055,-6.9044,-6.9044,-6.9684,-7.0789,-7.2418,-7.0614,-6.8579,-6.7426,-6.4192,-6.0803,-5.7721,-5.8652,0.0,0.0,0.0,0.0,-6.4322,-6.7569,-6.9546,-6.9033,-6.8041,-6.8331,-7.0088,-7.057,-7.0765,-7.0765,-7.0765,-7.0765,-7.0765,-7.0765,-7.0765,-7.0765,-7.0765,-7.0305,-6.9238,-6.5699,-6.5168,-6.6745,-6.493,-6.5699,-6.835,-7.0072,-6.9145,-6.6745,-6.584,-6.2202,-5.7369,-5.5596,-5.5012,-5.5012,-5.5012,-5.5012,-5.4936,-5.4671,-5.4215,-5.3785,-5.3214,-5.2544,-5.1899,-5.1064,-5.0874,-5.0722,-5.0058,-4.9944,-4.9944,-4.9944,-4.9243,-4.8122,-4.6456,-4.5359,-4.3867,-4.1312,-3.9325,-3.7146,-3.4586,-3.4177,-3.3536,-3.1659,-2.8875,-2.7063,-2.7063,-2.4534,-2.3273,-2.4256,-2.4361,-2.48,-2.5784,-2.5889,-2.5889,-2.5889,-2.5889,-2.5922,-2.611,-2.528,-2.4835,-2.5093,-2.4103,-2.2687,-2.082,-2.0714,-1.9574,0.0,0.0,-5.0962,-5.6317,-6.0457,-6.3518,-6.4681,-6.7008,-6.8579,-6.7244,-6.8055,-6.9044,-6.9044,-7.0963,-7.2592,-7.265,-7.2592,-7.1268,-6.7698,-6.6521,-6.3595,-5.7102,-6.0678,-6.0958,0.0,-6.2673,-6.9153,-7.0166,-6.924,-6.787,-6.6085,-6.6867,-6.7852,-6.8924,-7.0039,-7.0668,-7.0716,-7.0716,-7.0716,-7.0765,-7.0765,-7.0765,-7.0765,-7.0765,-6.9331,-6.6935,-6.6935,-6.6935,-6.6935,-6.6935,-6.8397,-7.0765,-7.0765,-6.9145,-6.6459,-6.3671,-5.9416,-5.5078,-5.4974,-5.5012,-5.5012,-5.5012,-5.4974,-5.4822,-5.4127,-5.3861,-5.338,-5.1747,-5.1292,-5.1064,-5.0171,-4.9944,-4.9944,-4.9944,-4.9944,-4.9849,-4.9849,-4.7835,-4.5939,-4.5842,-4.3769,-4.1182,-3.8454,-3.7952,-3.6944,-3.4457,-3.3972,-3.1841,-2.6413,-2.315,-2.1203,-2.1098,-1.8503,-1.7975,-2.0782,-2.0993,-2.2185,-2.5134,-2.5364,-2.5364,-2.5364,-2.5364,-2.5364,-2.5383,-2.3001,-2.1685,-2.1718,-1.9134,-1.7937,-1.7924,-1.7536,-1.7297,-4.8868,0.0,0.0,-5.5363,-5.9542,-6.282,-6.125,-6.4332,-6.695,-6.474,-6.6775,-6.9044,-6.9044,-6.8753,-6.9218,-7.1138,-6.98,-6.8008,-6.6106,-6.4812,-6.2972,-5.9742,-6.0717,-6.1747,-6.2188,-6.9572,-7.2624,-6.8417,-6.923,-6.9361,-6.8171,-6.699,-6.6818,-6.7803,-6.8233,-6.877,-6.9502,-6.9551,-6.9941,-7.0765,-7.0765,-7.0765,-7.0765,-7.0765,-7.0398,-6.961,-6.7692,-6.788,-6.9517,-6.7598,-6.8397,-7.0765,-7.0765,-6.7927,-6.3574,-6.0915,-5.9013,-5.7573,-5.57,-5.5012,-5.5012,-5.5012,-5.4595,-5.4063,-5.3937,-5.3024,-5.1899,-5.1405,-5.0874,-5.0247,-4.9982,-4.9944,-4.9944,-4.9944,-4.854,-4.7129,-4.7129,-4.5068,-4.2692,-4.0718,-3.9724,-3.8354,-3.5756,-3.3587,-3.1919,-3.1222,-2.7584,-2.4373,-2.2817,-2.0117,-1.7459,-1.5359,-1.272,-1.1351,-1.2211,-1.2211,-1.2534,-1.3403,-1.3511,-1.3511,-1.3511,-1.3511,-1.3557,-1.3763,-1.5309,-1.6213,-1.646,-1.8015,-1.8631,-1.8433,-1.8354,-1.809,-4.7054,0.0,0.0,0.0,-5.3987,-5.7742,-5.7712,-6.1308,-6.4216,-6.2646,-6.5496,-6.8346,-6.8928,-6.8811,-6.9223,0.0,-6.9689,-6.7893,-6.5617,-6.4608,-6.3405,-6.1666,-6.3876,-6.6523,-6.9196,-7.3753,-7.4372,-6.8957,-6.9714,-6.9388,-6.7151,-6.6277,-6.6183,-6.6818,-6.7257,-6.7706,-6.8339,-6.8778,-6.9314,-7.0039,-7.057,-7.0765,-7.0765,-7.0765,-7.0765,-7.0674,-6.9145,-6.9331,-7.0674,-6.9145,-6.9424,-7.0674,-6.9517,-6.7267,-6.406,-6.0317,-5.8245,-5.7062,-5.5493,-5.5012,-5.5012,-5.5012,-5.4443,-5.3823,-5.3342,-5.2355,-5.1216,-5.0874,-5.0418,-4.9944,-4.9944,-4.9944,-4.9717,-4.8635,-4.7284,-4.6136,-4.5058,-4.2876,-4.0349,-3.731,-3.585,-3.4152,-3.1246,-2.9357,-2.7,-2.3342,-1.8999,-1.6141,-1.6141,-1.4606,-1.2502,-0.9607,-0.7778,-0.6347,-0.521,-0.4007,-0.3785,-0.4974,-0.5082,-0.5082,-0.5082,-0.5082,-0.5125,-0.5333,-0.8458,-1.0201,-1.0385,-1.3411,-1.4825,-1.47,-1.5873,-1.4912,-4.3903,0.0,0.0,-4.2334,-4.601,-5.0013,0.0,0.0,-5.9639,-5.9584,-6.2705,-6.5835,-6.7288,-6.8564,-6.9614,-7.0207,-7.0265,-6.916,-6.5897,-6.5303,-6.4825,-6.3589,-6.8476,-7.2624,-7.4665,-7.5908,-7.4999,-7.1001,-7.0543,-6.868,-6.4896,-6.5376,-6.5598,-6.5353,-6.6525,-6.7062,-6.6877,-6.8047,-6.8778,-6.9022,-7.0039,-7.0668,-7.0765,-7.0765,-7.0765,-7.0765,-7.0765,-7.0765,-7.0765,-7.049,-7.0305,-7.0121,-6.7409,-6.6223,-6.5361,-6.0317,-5.696,-5.5012,-5.5012,-5.5012,-5.5012,-5.5012,-5.4367,-5.3494,-5.2734,-5.1393,-4.9991,-4.928,-4.8566,-4.815,-4.8561,-4.8598,-4.8159,-4.6281,-4.5922,-4.5371,-4.2649,-4.0468,-3.7942,-3.4588,-3.1959,-2.9301,-2.6007,-2.5173,-2.2025,-1.3673,-1.0066,-0.8256,-0.8256,-0.7918,-0.677,-0.4121,-0.3453,-0.2213,0.0218,0.3141,0.3669,0.1184,0.0968,0.0968,0.0968,0.0968,0.0969,0.0971,-0.2225,-0.3849,-0.3863,-0.6702,-0.815,-0.8132,-1.0757,-0.8782,0.0,0.0,0.0,0.0,0.0,0.0,0.0,0.0,-4.9736,-4.9535,-5.2423,-5.5759,-5.8119,-5.9429,-6.1487,-6.5608,-6.6252,-6.6213,-6.5962,-6.675,-6.7681,-6.8469,-7.0407,-7.2822,-7.5931,-7.6419,-7.5558,-7.3062,-7.1305,-6.9306,-6.7004,-6.5426,-6.3792,-6.2035,-6.3889,-6.4475,-6.3596,-6.5549,-6.7316,-6.9022,-6.9217,-6.9844,-7.0765,-7.0765,-7.0765,-7.0765,-7.0765,-7.0765,-7.0582,-6.8444,-6.7598,-6.7409,-6.4641,-6.2257,-6.0017,-5.696,-5.5493,-5.5012,-5.5012,-5.5012,-5.5012,-5.5012,-5.3987,-5.2734,-5.2544,-4.8246,-4.3312,-4.3082,-3.9738,-3.688,-3.9799,-4.06,-4.1141,-4.3616,-4.2663,-4.0333,-3.7382,-3.4775,-3.207,-2.8782,-2.7624,-2.6159,-2.3199,-2.0594,-1.6819,-1.0505,-0.7052,-0.5105,-0.5105,-0.3163,-0.143,-0.0892,0.1561,0.3225,0.3435,0.6123,0.7594,0.7042,0.7042,0.7042,0.7042,0.7042,0.7085,0.7066,0.3878,0.2249,0.254,-0.0578,-0.1954,-0.1817,-0.2376,-0.0564,0.0,0.0,0.0,0.0,0.0,0.0,0.0,0.0,0.0,0.0,0.0,-5.0939,0.0,0.0,-5.9479,-6.2647,-6.4798,-6.6107,-6.6089,-6.7168,-6.8583,-7.0275,-7.1417,-7.3077,-7.5362,-7.4722,-7.3469,-7.2058,-7.0058,-6.8073,-6.5999,-6.3861,-6.2132,-6.1058,-6.2083,-6.2376,-6.1839,-6.4524,-6.6427,-6.7413,-6.7949,-6.8868,-6.9893,-6.9893,-7.0185,-7.0765,-7.0765,-7.0765,-7.0674,-6.9331,-6.7974,-6.6364,-6.1015,-5.8143,-5.6432,-5.1752,-5.1891,-5.3983,-5.1128,-5.1994,-5.4443,-5.486,-5.4139,-5.3152,-5.3152,-5.0249,-4.6942,-4.6942,-4.4845,-4.2692,-4.3108,-4.3202,-4.3023,-4.2061,-3.982,-3.7232,-3.4278,-3.0371,-2.6429,-2.3198,-2.1211,-1.8985,-1.5929,-1.2831,-0.9317,-0.5015,-0.3123,-0.212,-0.212,-0.09,0.0,0.0,0.2547,0.4842,0.638,0.8911,1.1336,1.3162,1.3401,1.3461,1.3461,1.3351,1.3182,1.3072,0.9861,0.8278,0.8414,0.5424,0.4081,0.4528,0.9767,1.1672,0.0,0.0,0.0,0.0,0.0,0.0,0.0,0.0,0.0,0.0,0.0,0.0,0.0,0.0,0.0,-5.9468,-6.3284,-6.6041,-6.6263,-6.713,-6.8508,-7.0717,-7.1778,-7.2883,-7.4104,-7.2451,-7.0847,-7.0112,-6.8183,-6.6316,-6.4447,-6.262,-6.1449,-6.1058,-6.14,-6.1449,-6.101,-6.4036,-6.5695,-6.589,0.0,0.0,-6.8681,-6.8681,-6.8613,-6.8599,-6.9668,-6.9528,-6.8508,-6.9163,-6.797,-6.5044,-5.8002,-5.4995,-5.388,-4.8528,-4.9545,-5.2912,-4.8356,-4.9896,-5.4013,-5.4746,-5.4443,-5.3899,-5.3899,-5.1996,0.0,-5.0045,-4.8766,-4.7155,-4.5497,-4.4607,-4.3224,-3.9481,-3.6519,-3.3711,-3.0269,-2.5934,-2.1496,-1.7465,-1.468,-1.1888,-0.8558,-0.5424,-0.2721,-0.0338,0.0,0.0,0.0,0.0572,0.0916,0.0895,0.3767,0.6725,0.9474,1.1739,1.4448,1.7703,1.795,1.7787,1.7734,1.7822,1.7712,1.7408,1.5177,1.4239,1.4792,1.2385,1.1365,1.1964,1.9212,2.0562,0.0,0.0,0.0,0.0,0.0,0.0,0.0,0.0,0.0,0.0,0.0,0.0,0.0,0.0,0.0,0.0,-5.886,-6.3197,-6.6465,-6.7052,-6.81,-7.0614,-7.1022,-7.1603,-7.2825,-7.1212,-6.9773,-6.8908,-6.6982,-6.5456,-6.4398,0.0,0.0,0.0,0.0,-6.2962,-6.1058,-6.3304,-6.4963,-6.589,-6.6037,-6.6622,-6.7608,-6.7608,-6.503,-6.0659,-6.5623,-6.4988,-6.0613,-6.3514,-6.3606,-6.1496,-5.7746,-5.4773,-5.2672,-5.191,-5.2047,-5.2635,-5.2837,0.0,0.0,-5.4746,-5.4443,-5.3899,-5.3899,-4.7877,-4.1142,-4.1142,-3.5493,-3.0254,-3.315,-3.183,-3.0396,-3.3123,-3.1468,-2.7685,-2.1825,-2.0013,-1.776,-1.1711,-1.0009,-0.8789,-0.5787,-0.2619,-0.0331,0.0,0.0,0.0,0.0,0.2476,0.4292,0.434,0.0,0.0,1.3195,1.5002,1.6654,1.8117,1.7009,1.6205,1.5829,1.7052,1.7647,1.7613,1.8568,2.0194,2.2495,2.2127,2.2254,2.2656,1.7899,1.7166,0.0,0.0,0.0,0.0,0.0,0.0,0.0,0.0,0.0,0.0,0.0,0.0,0.0,0.0,0.0,0.0,-5.3617,-5.8575,-5.948,-6.1376,-6.4138,-6.8167,-6.87,-6.901,-6.9923,-6.8208,-6.6724,-6.6032,-6.4197,-6.2799,-6.2457,-6.1839,-6.1107,-6.018,-6.1595,-6.1937,-6.101,-6.3206,-6.4524,-6.4963,-6.4963,-6.5549,-6.6574,-6.6574,-6.5569,-6.3984,-6.4994,-6.4095,-6.1878,-6.1874,-6.042,0.0,0.0,0.0,0.0,0.0,-5.2203,-5.1431,-4.893,-5.0236,-5.2926,-5.2617,-5.2241,-5.1675,-4.9962,-4.6678,-4.3524,-4.3524,-3.9587,-3.5321,-3.5138,-3.2774,-2.9932,-2.7933,-2.5142,-2.1769,-1.7163,-1.3393,-0.9969,-0.7389,-0.518,0.0,-0.225,-0.094,0.0,0.0,0.0,0.0679,0.2598,0.3997,0.561,0.7348,1.1204,1.3608,1.3843,1.5703,0.0,0.0,0.0,1.7602,1.7642,1.8174,0.0,0.0,0.0,1.9926,0.0,0.0,0.0,0.0,2.1471,2.0181,0.0,0.0,0.0,0.0,0.0,0.0,0.0,0.0,0.0,0.0,0.0,0.0,0.0,0.0,0.0,0.0,0.0,-5.1684,-5.0837,-5.4863,-5.9189,-6.2977,-6.4461,-6.5096,-6.5004,-6.3971,-6.3271,-6.3219,-6.1622,-6.0717,-6.101,-6.0326,-5.9624,-5.9105,-6.0595,-6.0888,-5.9708,-6.2096,-6.3054,-6.2328,-6.2328,-6.2707,-6.3466,-6.3466,-6.3045,-6.2314,-6.2146,-6.1154,-5.9708,-5.8824,-5.7447,-5.562,-5.2276,-5.0806,-5.0705,-5.0705,-4.9905,-4.8319,-4.4935,-4.6506,-4.9826,-4.9265,-4.9017,-4.863,-4.6597,-4.4906,-4.3605,-4.3788,-4.0348,-3.6108,-3.4075,-3.0519,-2.648,-2.2027,-1.8687,-1.555,-1.2343,-0.8047,-0.4621,-0.3704,-0.1558,0.0,0.0,0.0,0.0,0.0,0.0819,0.0,0.455,0.6343,0.8307,1.0627,1.3176,1.4847,1.5196,1.65,1.7695,1.8723,1.842,1.8473,1.9066,1.9423,2.0502,2.2317,2.199,2.1414,0.0,0.0,0.0,0.0,0.0,0.0,0.0,0.0,0.0,0.0,0.0,0.0,0.0,0.0,0.0,0.0,0.0,0.0,0.0,0.0,0.0,0.0,0.0,0.0,-4.1828,-4.8644,-5.3794,-5.4245,-5.7871,-5.9638,-5.7476,-5.8493,-5.9699,-6.0707,-6.0002,-5.9985,-6.0961,-6.0961,-6.0037,-5.805,-6.0932,-6.0503,-5.6137,-5.9193,-5.9606,-5.7362,-5.7362,-5.7362,-5.7362,-5.7362,-5.444,-4.9655,-5.5057,-5.4261,-4.9511,-5.2601,-5.422,-5.4497,-5.1291,-4.8482,-4.6202,-4.6202,-4.4616,-4.2494,-4.3137,-4.3496,-4.3726,-4.4471,-4.4698,-4.4828,-4.5297,-4.1451,-3.6973,-3.7412,-3.1131,-2.4014,-2.3915,-1.9348,-1.4663,-1.4555,-1.2124,-0.896,-0.5858,-0.5024,-0.3925,-0.0716,-0.012,0.0,0.0,0.0,0.0,0.0,0.2729,0.0,0.4794,1.03,1.4141,1.4244,1.6959,1.8817,1.8935,1.7651,1.755,1.8987,1.7761,1.7616,1.9026,2.035,2.1789,2.3263,2.63,2.7126,2.5376,0.0,0.0,0.0,0.0,0.0,0.0,0.0,0.0,0.0,0.0,0.0,0.0,0.0,0.0,0.0,0.0,0.0,0.0,0.0,0.0,0.0,0.0,0.0,0.0,0.0,-4.7526,-5.0962,-5.215,-5.1624,-4.9123,-5.1247,-5.2427,-5.1563,-5.3854,-5.5388,-5.5718,-5.5772,-5.5455,-5.4718,-5.6405,-5.6882,-5.6007,-5.7053,-5.7408,-5.7141,-5.7141,-5.7141,-5.7141,-5.7141,-5.6122,-5.435,-5.4678,-5.377,-5.1931,-5.1402,-4.8926,-4.5148,-4.4095,-4.3088,-4.2334,-4.2334,-4.1935,-4.1299,-3.9768,-3.9785,-3.999,-3.7062,-3.6085,-3.5818,-3.4031,-3.0768,-2.7732,-2.7836,-2.2814,-1.7374,-1.7313,-1.4232,-1.0599,-0.846,-0.7161,-0.5503,-0.2277,-0.1665,-0.1303,-0.024,0.2921,0.4958,0.3453,0.3168,0.2531,0.032,0.2787,0.5564,0.7641,1.1672,1.5154,1.7264,1.8387,1.9092,1.9092,1.8644,1.8565,1.9053,1.8631,1.8578,1.9066,1.9542,2.1439,2.4943,2.6465,2.5556,2.2323,0.0,0.0,0.0,0.0,0.0,0.0,0.0,0.0,0.0,0.0,0.0,0.0,0.0,0.0,0.0,0.0,0.0,0.0,0.0,0.0,0.0,0.0,0.0,0.0,0.0,0.0,-4.3219,-4.3265,0.0,-3.9739,-4.1747,-4.2872,-4.2036,-4.5068,-4.7605,-4.9167,-4.9749,-5.0263,-5.0935,-5.2968,-5.3585,-5.2506,-5.3712,-5.4049,-5.3664,-5.3997,-5.4164,-5.4164,-5.4448,-5.4573,-5.4482,-5.1999,-5.0819,-5.0324,-4.5726,-4.1278,-3.734,-3.6636,-3.5608,-3.4504,-3.3792,-3.3104,-3.2364,-3.0616,-3.0557,-3.077,-2.7647,-2.63,-2.5527,-2.2943,-2.0328,-1.8109,-1.7919,-1.3279,-0.8413,-0.8005,-0.537,-0.2365,-0.0355,0.0238,0.0837,0.2992,0.3193,0.2926,0.306,0.5801,0.7497,0.578,0.5518,0.4412,0.1233,0.4447,0.7794,0.9371,1.3388,1.6821,1.8856,1.9092,1.9092,1.9092,1.9092,1.9092,1.9092,1.9092,1.9092,1.9092,2.1068,2.3022,2.4924,2.6382,2.5309,0.0,0.0,0.0,0.0,0.0,0.0,0.0,0.0,0.0,0.0,0.0,0.0,0.0,0.0,0.0,0.0,0.0,0.0,0.0,0.0,0.0,0.0,0.0,0.0,0.0,0.0,0.0,-3.1333,-3.1596,0.0,0.0,0.0,0.0,-3.2409,-3.4198,-3.7117,-4.1394,-4.2885,-4.4339,-4.5947,-4.998,-5.0084,-4.584,-4.9179,-4.957,-4.7278,-4.811,-4.845,-4.8396,-4.9133,-4.9509,-4.932,-4.6734,-4.5319,-4.4175,-3.5508,-3.1565,-3.0821,-2.885,-2.6155,-2.3277,-2.1288,-1.8968,-1.6815,-1.6624,-1.659,-1.6611,-1.647,-1.5685,-1.4468,-1.295,-1.0857,0.0,0.0,-0.3189,0.2111,0.335,0.6323,0.9047,0.9079,0.9313,0.9536,0.9536,0.874,0.8365,0.0,0.8447,0.7794,0.6758,0.0,0.5526,0.2513,0.7396,1.0855,0.9688,1.4953,1.8856,1.9132,1.9119,1.9119,1.9119,1.9119,1.9106,1.9092,1.9092,1.9092,1.9329,2.4318,2.599,2.3413,2.6204,0.0,0.0,0.0,0.0,0.0,0.0,0.0,0.0,0.0,0.0,0.0,0.0,0.0,0.0,0.0,0.0,0.0,0.0,0.0,0.0,0.0,0.0,0.0,0.0,0.0,0.0,-2.0504,-2.2641,-2.314,-2.1586,-1.9695,0.0,0.0,0.0,0.0,0.0,0.0,-3.0602,-3.0456,-3.0858,-3.1977,-3.6555,-3.9312,-3.9746,-4.4253,-4.5904,-4.4853,-4.5068,-4.4221,-4.2613,-4.2817,-4.2884,-4.2697,-4.0117,-3.8918,-3.7765,-2.4334,-1.8737,-1.8429,-1.6627,-1.572,-1.5297,-1.4242,-1.3748,-1.3137,-1.0639,-0.9744,-0.9502,-0.8003,-0.7241,-0.692,-0.7321,0.0,0.0,0.0,0.0,0.3481,0.5287,0.6435,0.7443,0.8589,0.8855,0.8995,0.8995,0.8408,0.8843,0.0,1.2287,1.0727,0.7728,0.0,0.0,0.0,0.0,0.7399,0.9546,1.3167,1.6602,1.9455,1.9554,1.9302,1.9302,1.9302,1.921,1.9106,1.9092,2.0141,2.2461,2.156,2.1951,2.416,0.0,0.0,0.0,0.0,0.0,0.0,0.0,0.0,0.0,0.0,0.0,0.0,0.0,0.0,0.0,0.0,0.0,0.0,0.0,0.0,0.0,0.0,0.0,0.0,0.0,0.0,0.0,-1.4243,-1.6006,-1.6771,-1.4086,-1.1773,0.0,0.0,0.0,0.0,0.0,0.0,0.0,0.0,0.0,-2.4269,-2.7469,-2.9717,-3.0931,-3.5457,-3.7722,-3.7547,-3.8671,-3.8666,-3.7605,-3.5875,-3.5131,-3.499,-3.1287,-2.7846,-2.3939,-1.4078,-0.997,-0.9875,0.0,0.0,0.0,0.0,-0.604,-0.5975,-0.3685,-0.2954,-0.2775,-0.1771,0.0,0.0,0.0,0.0,0.0,0.0,0.0,0.7314,0.0,0.0,1.1236,1.2106,1.228,1.2134,1.2335,1.0889,1.037,0.0,1.2958,1.1693,0.8798,0.0,0.0,0.0,0.0,0.6803,0.9535,1.2657,1.5915,1.9566,1.9831,1.9725,1.9725,1.9485,1.9341,1.9171,2.0202,2.0599,2.0406,2.0947,2.0587,0.0,0.0,0.0,0.0,0.0,0.0,0.0,0.0,0.0,0.0,0.0,0.0,0.0,0.0,0.0,0.0,0.0,0.0,0.0,0.0,0.0,0.0,0.0,0.0,0.0,0.0,0.0,0.0,0.0,-1.0653,-1.1219,0.0,0.0,0.0,0.0,0.0,0.0,0.0,0.0,0.0,0.0,0.0,0.0,0.0,-2.1214,-2.1416,-2.552,-2.769,-2.8007,-3.0284,-3.1431,-3.1456,-2.817,-2.671,-2.6371,-2.0323,0.0,-0.7502,-0.4793,0.0,0.0,0.0,0.0,0.0,0.0,0.0,0.0,0.0,0.0,0.0,0.0,0.0,0.0,0.0,0.0,0.0,0.0,0.0,0.0,0.0,0.0,1.606,1.6258,1.6165,1.6133,0.0,1.3972,1.194,1.1794,1.172,0.0,0.0,0.0,0.0,0.0,0.0,0.0,0.969,1.2439,1.5616,1.9708,2.0068,2.0042,2.0042,1.9765,1.9433,1.9354,2.0991,2.0334,1.6842,2.1192,0.0,0.0,0.0,0.0,0.0,0.0,0.0,0.0,0.0,0.0,0.0,0.0,0.0,0.0,0.0,0.0,0.0,0.0,0.0,0.0,0.0,0.0,0.0,0.0,0.0,0.0,0.0,0.0,0.0,0.0,0.0,0.0,0.0,0.0,0.0,0.0,0.0,0.0,0.0,0.0,0.0,0.0,0.0,0.0,0.0,0.0,0.0,0.0,0.0,0.0,-2.1166,-2.0401,-1.8555,-1.7897,-1.7619,-1.6992,-0.5682,0.0209,0.1899,0.2491,0.0,0.0,0.0,0.0,0.0,0.0,0.0,0.0,0.0,0.0,0.0,0.0,0.0,0.0,0.0,0.0,0.0,0.0,0.0,0.0,0.0,0.0,0.0,0.0,1.3317,1.3348,1.2478,0.0,0.0,0.0,0.0,0.0,0.0,0.0,0.0,0.0,0.0,0.0,0.9636,1.0627,1.3342,1.9984,2.0464,2.0319,2.0319,2.0068,1.9699,1.9198,1.77,1.7634,0.0,0.0,0.0,0.0,0.0,0.0,0.0,0.0,0.0,0.0,0.0,0.0,0.0,0.0,0.0,0.0,0.0,0.0,0.0,0.0,0.0,0.0,0.0,0.0,0.0,0.0,0.0,0.0,0.0,0.0,0.0,0.0,0.0,0.0,0.0,0.0,0.0,0.0,0.0,0.0,0.0,0.0,0.0,0.0,0.0,0.0,0.0,0.0,0.0,0.0,0.0,0.0,0.0,0.0,0.0,0.0,0.0,0.0,0.0,0.3248,0.0,0.0,0.0,0.0,0.0,0.0,0.0,0.0,0.0,0.0,0.0,0.0,0.0,0.0,0.0,0.0,0.0,0.0,0.0,0.0,0.0,0.0,0.0,0.0,0.0,0.0,0.0,0.0,0.0,0.0,0.0,0.0,0.0,0.0,0.0,0.0,0.0,0.0,0.0,0.0,0.9589,1.0279,1.2957,2.0021,2.0714,2.0622,2.0622,2.0226,1.9409,1.8051,1.7792,0.0,0.0,0.0,0.0,0.0,0.0,0.0,0.0,0.0,0.0,0.0,0.0,0.0,0.0,0.0,0.0,0.0,0.0,0.0,0.0,0.0,0.0,0.0,0.0,0.0,0.0,0.0,0.0,0.0,0.0,0.0,0.0,0.0,0.0,0.0,0.0,0.0,0.0,0.0,0.0,0.0,0.0,0.0,0.0,0.0,0.0,0.0,0.0,0.0,0.0,0.0,0.0,0.0,0.0,0.0,0.0,0.0,0.0,0.0,0.298,0.0,0.0,0.0,0.0,0.0,0.0,0.0,0.0,0.0,0.0,0.0,0.0,0.0,0.0,0.0,0.0,0.0,0.0,0.0,0.0,0.0,0.0,0.0,0.0,0.0,0.0,0.0,0.0,0.0,0.0,0.0,0.0,0.0,0.0,0.0,0.0,0.0,0.0,0.0,0.0,0.0,0.9589,1.0536,1.3149,2.0059,2.0833,2.0833,2.0833,2.0253,1.9013,1.697,1.7612,0.0,0.0,0.0,0.0,0.0,0.0,0.0,0.0,0.0,0.0,0.0,0.0,0.0,0.0,0.0,0.0,0.0,0.0,0.0,0.0,0.0,0.0,0.0,0.0,0.0,0.0,0.0,0.0,0.0,0.0,0.0,0.0,0.0,0.0,0.0,0.0,0.0,0.0,0.0,0.0,0.0,0.0,0.0,0.0,0.0,0.0,0.0,0.0,0.0,0.0,0.0,0.0,0.0,0.0,0.0,0.0,0.0,0.0,0.0,0.0,0.0,0.0,0.0,0.0,0.0,0.0,0.0,0.0,0.0,0.0,0.0,0.0,0.0,0.0,0.0,0.0,0.0,0.0,0.0,0.0,0.0,0.0,0.0,0.0,0.0,0.0,0.0,0.0,0.0,0.0,0.0,0.0,0.0,0.0,0.0,0.0,0.0,0.0,0.0,0.0,0.0,0.9589,1.0536,1.3149,2.0059,2.0833,2.0833,2.0833,2.0068,1.8697,1.6653,0.0,0.0,0.0,0.0,0.0,0.0,0.0,0.0,0.0,0.0,0.0,0.0,0.0,0.0,0.0,0.0,0.0,0.0,0.0,0.0,0.0,0.0,0.0,0.0,0.0,0.0,0.0,0.0,0.0,0.0,0.0,0.0,0.0,0.0,0.0,0.0,0.0,0.0,0.0,0.0,0.0,0.0,0.0,0.0,0.0,0.0,0.0,0.0,0.0,0.0,0.0,0.0,0.0,0.0,0.0,0.0,0.0,0.0,0.0,0.0,0.0,0.0,0.0,0.0,0.0,0.0,0.0,0.0,0.0,0.0,0.0,0.0,0.0,0.0,0.0,0.0,0.0,0.0,0.0,0.0,0.0,0.0,0.0,0.0,0.0,0.0,0.0,0.0,0.0,0.0,0.0,0.0,0.0,0.0,0.0,0.0,0.0,0.0,0.0,0.0,0.0,0.0,0.9671,1.0453,1.3161,2.0034,2.0833,2.0833,2.0833,1.9905,1.8096,1.511,0.0,0.0,0.0,0.0,0.0,0.0,0.0,0.0,0.0,0.0,0.0,0.0,0.0,0.0,0.0,0.0,0.0,0.0,0.0,0.0,0.0,0.0,0.0,0.0,0.0,0.0,0.0,0.0,0.0,0.0,0.0,0.0,0.0,0.0,0.0,0.0,0.0,0.0,0.0,0.0,0.0,0.0,0.0,0.0,0.0,0.0,0.0,0.0,0.0,0.0,0.0,0.0,0.0,0.0,0.0,0.0,0.0,0.0,0.0,0.0,0.0,0.0,0.0,0.0,0.0,0.0,0.0,0.0,0.0,0.0,0.0,0.0,0.0,0.0,0.0,0.0,0.0,0.0,0.0,0.0,0.0,0.0,0.0,0.0,0.0,0.0,0.0,0.0,0.0,0.0,0.0,0.0,0.0,0.0,0.0,0.0,0.0,0.0,0.0,0.0,0.0,0.0,0.8293,0.9829,1.2693,1.8591,2.0188,2.0833,2.0833,1.9839,1.7756,1.424,0.0,0.0,0.0,0.0,0.0,0.0,0.0,0.0,0.0,0.0,0.0,0.0,0.0,0.0,0.0,0.0,0.0,0.0,0.0,0.0,0.0,0.0,0.0,0.0,0.0,0.0,0.0,0.0,0.0,0.0,0.0,0.0,0.0,0.0,0.0,0.0,0.0,0.0,0.0,0.0,0.0,0.0,0.0,0.0,0.0,0.0,0.0,0.0,0.0,0.0,0.0,0.0,0.0,0.0,0.0,0.0,0.0,0.0,0.0,0.0,0.0,0.0,0.0,0.0,0.0,0.0,0.0,0.0,0.0,0.0,0.0,0.0,0.0,0.0,0.0,0.0,0.0,0.0,0.0,0.0,0.0,0.0,0.0,0.0,0.0,0.0,0.0,0.0,0.0,0.0,0.0,0.0,0.0,0.0,0.0,0.0,0.0,0.0,0.0,0.0,0.0,0.0,0.4922,0.8357,1.1791,1.5202,1.8744,2.0833,2.0833,1.9765,1.7734,0.0,0.0,0.0,0.0,0.0,0.0,0.0,0.0,0.0,0.0,0.0,0.0,0.0,0.0,0.0,0.0,0.0,0.0,0.0,0.0,0.0,0.0,0.0,0.0,0.0,0.0,0.0,0.0,0.0,0.0,0.0,0.0,0.0,0.0,0.0,0.0,0.0,0.0,0.0,0.0,0.0,0.0,0.0,0.0,0.0,0.0,0.0,0.0,0.0,0.0,0.0,0.0,0.0,0.0,0.0,0.0,0.0,0.0,0.0,0.0,0.0,0.0,0.0,0.0,0.0,0.0,0.0,0.0,0.0,0.0,0.0,0.0,0.0,0.0,0.0,0.0,0.0,0.0,0.0,0.0,0.0,0.0,0.0,0.0,0.0,0.0,0.0,0.0,0.0,0.0,0.0,0.0,0.0,0.0,0.0,0.0,0.0,0.0,0.0,0.0,0.0,0.0,0.0,0.4949,0.8287,1.1826,0.0,1.8637,2.0833,2.0833,1.9826,1.7945,1.4633,0.0,0.0,0.0,0.0,0.0,0.0,0.0,0.0,0.0,0.0,0.0,0.0,0.0,0.0,0.0,0.0,0.0,0.0,0.0,0.0,0.0,0.0,0.0,0.0,0.0,0.0,0.0,0.0,0.0,0.0,0.0,0.0,0.0,0.0,0.0,0.0,0.0,0.0,0.0,0.0,0.0,0.0,0.0,0.0,0.0,0.0,0.0,0.0,0.0,0.0,0.0,0.0,0.0,0.0,0.0,0.0,0.0,0.0,0.0,0.0,0.0,0.0,0.0,0.0,0.0,0.0,0.0,0.0,0.0,0.0,0.0,0.0,0.0,0.0,0.0,0.0,0.0,0.0,0.0,0.0,0.0,0.0,0.0,0.0,0.0,0.0,0.0,0.0,0.0,0.0,0.0,0.0,0.0,0.0,0.0,0.0,0.0,0.0,0.0,0.0,0.0,0.0,0.0,0.6312,0.9741,0.0,1.657,1.9221,2.0389,1.9804,1.7919,1.4633,0.0,0.0,0.0,0.0,0.0,0.0,0.0,0.0,0.0,0.0,0.0,0.0,0.0,0.0,0.0,0.0,0.0,0.0,0.0,0.0,0.0,0.0,0.0,0.0,0.0,0.0,0.0,0.0,0.0,0.0,0.0,0.0,0.0,0.0,0.0,0.0,0.0,0.0,0.0,0.0,0.0,0.0,0.0,0.0,0.0,0.0,0.0,0.0,0.0,0.0,0.0,0.0,0.0,0.0,0.0,0.0,0.0,0.0,0.0,0.0,0.0,0.0,0.0,0.0,0.0,0.0,0.0,0.0,0.0,0.0,0.0,0.0,0.0,0.0,0.0,0.0,0.0,0.0,0.0,0.0,0.0,0.0,0.0,0.0,0.0,0.0,0.0,0.0,0.0,0.0,0.0,0.0,0.0,0.0,0.0,0.0,0.0,0.0,0.0,0.0,0.0,0.0,0.0,0.3286,0.6634,0.9283,1.2971,1.635,1.9481,1.9328,1.7747,1.462,1.2711,0.0,0.0,0.0,0.0,0.0,0.0,0.0,0.0,0.0,0.0,0.0,0.0,0.0,0.0,0.0,0.0,0.0,0.0,0.0,0.0,0.0,0.0,0.0,0.0,0.0,0.0,0.0,0.0,0.0,0.0,0.0,0.0,0.0,0.0,0.0,0.0,0.0,0.0,0.0,0.0,0.0,0.0,0.0,0.0,0.0,0.0,0.0,0.0,0.0,0.0,0.0,0.0,0.0,0.0,0.0,0.0,0.0,0.0,0.0,0.0,0.0,0.0,0.0,0.0,0.0,0.0,0.0,0.0,0.0,0.0,0.0,0.0,0.0,0.0,0.0,0.0,0.0,0.0,0.0,0.0,0.0,0.0,0.0,0.0,0.0,0.0,0.0,0.0,0.0,0.0,0.0,0.0,0.0,0.0,0.0,0.0,0.0,0.0,0.0,0.0,0.0,0.0,0.5747,0.7919,0.645,1.1651,1.5472,1.6226,1.8162,1.7972,1.4633,1.2988,0.0,0.0,0.0,0.0,0.0,0.0,0.0,0.0,0.0,0.0,0.0,0.0,0.0,0.0,0.0,0.0,0.0,0.0,0.0,0.0,0.0,0.0,0.0,0.0,0.0,0.0,0.0,0.0,0.0,0.0,0.0,0.0,0.0,0.0,0.0,0.0,0.0,0.0,0.0,0.0,0.0,0.0,0.0,0.0,0.0,0.0,0.0,0.0,0.0,0.0,0.0,0.0,0.0,0.0,0.0,0.0,0.0,0.0,0.0,0.0,0.0,0.0,0.0,0.0,0.0,0.0,0.0,0.0,0.0,0.0,0.0,0.0,0.0,0.0,0.0,0.0,0.0,0.0,0.0,0.0,0.0,0.0,0.0,0.0,0.0,0.0,0.0,0.0,0.0,0.0,0.0,0.0,0.0,0.0,0.0,0.0,0.0,0.0,0.0,0.0,0.0,0.0,0.4926,0.5949,0.5184,0.9581,1.3209,1.4668,1.7486,1.7708,1.4332,1.2763,0.0,0.0,0.0,0.0,0.0,0.0,0.0,0.0,0.0,0.0,0.0,0.0,0.0,0.0,0.0,0.0,0.0,0.0,0.0,0.0,0.0,0.0,0.0,0.0,0.0,0.0,0.0,0.0,0.0,0.0,0.0,0.0,0.0,0.0,0.0,0.0,0.0,0.0,0.0,0.0,0.0,0.0,0.0,0.0,0.0,0.0,0.0,0.0,0.0,0.0,0.0,0.0,0.0,0.0,0.0,0.0,0.0,0.0,0.0,0.0,0.0,0.0,0.0,0.0,0.0,0.0,0.0,0.0,0.0,0.0,0.0,0.0,0.0,0.0,0.0,0.0,0.0,0.0,0.0,0.0,0.0,0.0,0.0,0.0,0.0,0.0,0.0,0.0,0.0,0.0,0.0,0.0,0.0,0.0,0.0,0.0,0.0,0.0,0.0,0.0,0.0,0.0,0.0,0.3568,0.5538,0.8394,1.1035,1.3425,1.6611,1.7194,1.3929,0.0,0.0,0.0,0.0,0.0,0.0,0.0,0.0,0.0,0.0,0.0,0.0,0.0,0.0,0.0,0.0,0.0,0.0,0.0,0.0,0.0,0.0,0.0,0.0,0.0,0.0,0.0,0.0,0.0,0.0,0.0,0.0,0.0,0.0,0.0,0.0,0.0,0.0,0.0,0.0,0.0,0.0,0.0,0.0,0.0,0.0,0.0,0.0,0.0,0.0,0.0,0.0,0.0,0.0,0.0,0.0,0.0,0.0,0.0,0.0,0.0,0.0,0.0,0.0,0.0,0.0,0.0,0.0,0.0,0.0,0.0,0.0,0.0,0.0,0.0,0.0,0.0,0.0,0.0,0.0,0.0,0.0,0.0,0.0,0.0,0.0,0.0,0.0,0.0,0.0,0.0,0.0,0.0,0.0,0.0,0.0,0.0,0.0,0.0,0.0,0.0,0.0,0.0,0.0,0.5474,0.9239,1.1566,1.2,1.0057,1.4923,1.6666,1.3628,0.0,0.0,0.0,0.0,0.0,0.0,0.0,0.0,0.0,0.0,0.0,0.0,0.0,0.0]}],[{"header":{"parameterUnit":"kt","parameterCategory":2,"dx":1,"dy":1,"la1":29.285339999999998,"la2":30.599998999999997,"lo1":-89.70041500000002,"lo2":-87.6738589999976,"nx":112,"ny":82,"refTime":"2022-10-23T00:00:00:Z","depth":0,"parameterNumber":2,"parameterNumberName":"V-component_of_WINDS"},"data":[6.8848,6.8825,0.0,6.0047,5.6006,0.0,4.3176,0.0,0.0,0.0,0.0,0.0,0.0,0.0,0.0,0.0,0.0,0.0,0.0,0.0,0.0,0.0,0.0,0.0,0.0,0.0,0.0,0.0,0.0,0.0,0.0,0.0,7.7769,8.0386,8.6524,8.9132,8.7629,9.1235,9.1667,8.884,8.7743,8.7349,8.7614,8.5314,8.5481,8.7686,8.5612,8.6301,8.8887,8.7988,8.9792,9.2924,9.1536,9.2062,9.3443,9.1075,8.93,8.7919,8.7053,8.6724,8.6724,8.6724,8.6724,8.725,9.0089,9.0944,9.1338,9.3311,9.4561,9.5021,9.41,9.4561,9.5284,9.5284,9.4909,9.4017,9.2112,9.1729,9.1903,9.2521,9.2146,9.2535,9.5052,9.4613,9.3899,9.3899,9.4827,9.5721,9.6363,9.8219,9.9076,9.8038,9.7895,9.7895,9.7895,9.7396,9.6397,9.4898,9.5255,9.5041,9.3971,9.5469,9.7149,9.868,10.025,10.1819,10.3419,10.4198,10.4313,10.3847,10.6049,10.712,0.0,0.0,6.2203,5.5228,0.0,0.0,0.0,0.0,0.0,0.0,0.0,0.0,0.0,0.0,0.0,0.0,0.0,0.0,0.0,0.0,0.0,0.0,0.0,0.0,0.0,0.0,0.0,0.0,0.0,0.0,0.0,7.6024,7.9514,8.1666,8.6371,8.8762,8.838,9.0811,9.0894,8.869,8.6966,8.63,8.6618,8.4103,8.4638,8.7375,8.4733,8.5844,8.9471,8.8138,9.008,9.3706,9.2259,9.2851,9.4298,9.2391,9.1075,9.0023,8.805,8.7119,8.679,8.7261,8.7393,8.7722,8.9629,9.0944,9.1864,9.2792,9.4166,9.5021,9.41,9.4232,9.4561,9.4561,9.3443,9.2128,9.1207,9.088,9.1247,9.2384,9.2471,9.3093,9.5201,9.4613,9.3899,9.3899,9.5255,9.6578,9.7149,9.9037,9.9893,9.8894,9.8751,9.8323,9.7181,9.8109,9.761,9.4898,9.5255,9.5041,9.3971,9.5469,9.6934,9.7895,10.0036,10.1605,10.2676,10.391,10.4276,10.3808,10.5815,10.6698,0.0,0.0,0.0,4.9714,0.0,0.0,0.0,0.0,3.8936,0.0,0.0,0.0,0.0,0.0,0.0,0.0,0.0,0.0,0.0,0.0,0.0,0.0,0.0,0.0,0.0,0.0,0.0,0.0,0.0,0.0,7.6082,8.027,8.2946,8.409,8.6136,8.7914,8.9685,8.9754,8.932,8.8436,8.6552,8.4958,8.3652,8.4955,8.4638,8.3043,8.3132,8.4972,8.7835,8.6533,8.9598,9.5152,9.3647,9.3121,9.3121,9.3121,9.3121,9.2727,8.9957,8.805,8.7053,8.8379,8.884,8.8774,8.884,9.0812,9.3055,9.3055,9.4166,9.5284,9.5284,9.4232,9.3121,9.3121,9.1996,9.0878,9.0878,9.067,9.0895,9.2158,9.2297,9.2509,9.3711,9.3899,9.3899,9.3899,9.5255,9.6825,9.8466,9.868,9.8751,9.868,9.868,9.7396,9.4185,9.6825,9.7966,9.6435,9.4827,9.3899,9.3899,9.5469,9.6363,9.6435,9.9433,10.1034,10.1034,10.3406,10.457,10.4534,10.5528,10.594,5.1124,0.0,0.0,0.0,0.0,0.0,0.0,0.0,0.0,0.0,0.0,0.0,0.0,0.0,0.0,0.0,0.0,0.0,0.0,0.0,0.0,0.0,0.0,0.0,0.0,0.0,0.0,0.0,0.0,0.0,7.7594,8.0867,8.2946,8.409,8.6136,8.7265,8.7842,8.9194,8.9153,8.7864,8.6124,8.5046,8.4534,8.273,8.2568,8.3834,8.335,8.5522,8.9211,8.8138,9.0722,9.5152,9.3647,9.3121,9.3187,9.4298,9.4035,9.2989,9.2201,9.101,8.9694,8.9037,8.8116,8.7459,8.8511,9.0089,9.1799,9.2851,9.4166,9.5284,9.5284,9.4232,9.3121,9.3121,9.1273,8.9431,8.9431,8.9371,8.9618,9.0645,9.1689,9.2752,9.3701,9.3899,9.3899,9.3899,9.5326,9.6506,9.7006,9.8038,9.8323,9.722,9.7077,9.6183,9.4042,9.4684,9.5041,9.4613,9.4113,9.3899,9.3899,9.4327,9.5112,9.6435,9.8394,9.9964,10.1034,10.2886,10.3722,10.3801,10.5847,10.6474,0.0,0.0,0.0,0.0,0.0,0.0,4.0663,0.0,3.6091,0.0,0.0,0.0,0.0,0.0,0.0,0.0,0.0,0.0,0.0,0.0,0.0,0.0,0.0,0.0,0.0,0.0,0.0,0.0,0.0,7.393,7.9805,8.2015,8.3469,8.4148,8.5236,8.6225,8.7107,8.7338,8.7184,8.6609,8.4845,8.3967,8.3821,8.207,8.2756,8.5344,8.4391,8.6609,9.0847,8.9088,9.0825,9.4298,9.3384,9.3449,9.41,9.4955,9.4758,9.3969,9.3318,9.2982,9.2325,8.9694,8.8248,8.759,8.7853,8.9366,9.101,9.1273,9.2785,9.4232,9.364,9.2851,9.2062,9.147,8.9629,8.7919,8.7919,8.8347,8.8803,8.9359,9.1022,9.2561,9.3052,9.3108,9.3334,9.3825,9.5326,9.6435,9.6435,9.722,9.7396,9.6506,9.6435,9.5721,9.4042,9.4541,9.4613,9.3971,9.3899,9.3899,9.3899,9.3899,9.4327,9.5326,9.6896,9.8823,10.1034,10.2328,10.3117,10.343,10.5231,10.5773,0.0,0.0,0.0,0.0,4.6317,0.0,0.0,0.0,0.0,0.0,0.0,0.0,0.0,0.0,0.0,0.0,0.0,0.0,0.0,0.0,0.0,0.0,0.0,0.0,0.0,0.0,7.1378,7.8409,7.6955,7.7711,8.2381,8.3644,8.4148,8.4148,8.4148,8.5009,8.6742,8.5009,8.4496,8.5014,8.3379,8.2614,8.2614,8.284,8.4474,8.7047,8.6282,8.843,9.2345,8.9966,9.0686,9.3318,9.3121,9.3903,9.5021,9.5218,9.5284,9.5087,9.3837,9.4232,9.4626,9.0615,8.9366,8.9037,8.7393,8.8708,9.0484,8.9168,9.0944,9.2785,9.1338,9.1075,9.0812,8.9234,8.7853,8.6921,8.6724,8.7488,8.8298,8.8383,9.0242,9.1772,9.1899,9.215,9.2711,9.3749,9.5184,9.6149,9.6149,9.6149,9.6149,9.6149,9.6149,9.5469,9.4042,9.5398,9.5683,9.4042,9.4042,9.4113,9.3899,9.3899,9.3899,9.3899,9.5683,9.8077,10.082,10.1856,10.2827,10.3675,10.4308,10.457,0.0,0.0,0.0,0.0,0.0,4.1826,0.0,0.0,0.0,0.0,0.0,0.0,0.0,0.0,0.0,0.0,0.0,0.0,0.0,0.0,0.0,0.0,0.0,0.0,0.0,7.5384,7.7769,8.145,8.2073,8.2754,8.3818,8.4032,8.4148,8.4148,8.4148,8.4379,8.4763,8.4379,8.4263,8.4353,8.3971,8.3876,8.3876,8.5422,8.6502,8.7253,8.9913,9.1636,9.2538,9.2296,9.3213,9.4758,9.3515,9.3252,9.3706,9.4824,9.5284,9.5218,9.4955,9.5021,9.4955,9.2982,9.2267,9.1864,8.9234,8.884,8.9168,8.8905,9.0944,9.2785,9.1338,9.1864,9.2062,8.9497,8.8642,8.8116,8.6987,8.6875,8.7344,8.8298,8.8831,8.9444,9.0425,9.2233,9.3674,9.3862,9.4185,9.4399,9.4399,9.4399,9.4399,9.4399,9.4399,9.4256,9.3899,9.5398,9.5683,9.4042,9.5184,9.5326,9.3971,9.3899,9.3899,9.3899,9.6753,9.8609,9.9179,10.1877,10.395,10.5244,10.4813,10.4274,0.0,0.0,0.0,4.0288,0.0,0.0,0.0,0.0,0.0,0.0,0.0,0.0,0.0,0.0,0.0,0.0,0.0,0.0,0.0,0.0,0.0,0.0,0.0,0.0,0.0,7.9107,8.0343,8.2265,8.2488,8.2549,8.2549,8.2549,8.3021,8.4148,8.5084,8.516,8.4148,8.516,8.516,8.4148,8.4148,8.4148,8.4225,8.6151,8.7555,8.8564,9.1365,9.3048,9.3864,9.335,9.391,9.5152,9.4495,9.4232,9.4298,9.5021,9.5284,9.5152,9.4429,9.4692,9.4889,9.2785,9.2522,9.2529,8.9694,8.884,8.8708,8.7985,8.93,9.0681,8.9168,8.9892,9.0418,8.8248,8.7722,8.7524,8.6856,8.6724,8.6875,8.7502,8.8044,8.8831,9.0011,9.1745,9.3257,9.3825,9.3899,9.3899,9.3899,9.3899,9.3899,9.3899,9.3899,9.3899,9.3899,9.4684,9.4755,9.3971,9.4684,9.4755,9.3971,9.3899,9.3899,9.3899,9.6325,9.8751,10.1106,10.2302,10.361,10.512,10.5254,10.5027,0.0,0.0,0.0,0.0,0.0,0.0,4.1672,4.2658,0.0,0.0,0.0,0.0,0.0,0.0,0.0,0.0,0.0,0.0,0.0,0.0,0.0,0.0,0.0,0.0,0.0,8.0751,8.1052,8.1661,8.1178,8.0839,8.0839,8.1241,8.2312,8.4071,8.5688,8.5763,8.4148,8.5763,8.5763,8.4148,8.4148,8.4379,8.478,8.6742,8.8634,9.0434,9.228,9.3866,9.5152,9.4035,9.4232,9.5284,9.5284,9.5284,9.5284,9.5284,9.5284,9.5021,9.364,9.4035,9.4824,9.2259,9.2391,9.3048,9.0484,8.9497,8.8971,8.7459,8.7919,8.8511,8.7119,8.7919,8.884,8.7119,8.6921,8.7053,8.679,8.6724,8.6724,8.6724,8.7645,8.8831,9.0011,9.1272,9.2519,9.3749,9.3899,9.3899,9.3899,9.3899,9.3899,9.3899,9.3899,9.3899,9.3899,9.4185,9.4256,9.3899,9.4185,9.4256,9.3899,9.3899,9.3899,9.3899,9.5184,9.8109,10.2533,10.2001,10.2648,10.4383,10.5447,10.5909,0.0,0.0,0.0,0.0,0.0,0.0,5.3315,5.6242,0.0,0.0,0.0,0.0,0.0,0.0,0.0,0.0,0.0,0.0,0.0,0.0,0.0,0.0,0.0,0.0,0.0,8.1566,8.1375,7.9441,8.0327,8.0839,8.0839,8.2707,8.3916,8.4148,8.4379,8.4379,8.4148,8.4379,8.4379,8.4148,8.4148,8.5084,8.6815,8.8704,9.0501,9.228,9.4179,9.5038,9.5218,9.5087,9.5152,9.5284,9.5284,9.5284,9.5284,9.5284,9.5284,9.5021,9.364,9.4035,9.5021,9.3443,9.3837,9.4692,9.3055,9.1733,9.0418,8.9037,8.8708,8.8511,8.7119,8.8698,9.0023,8.7382,8.7656,8.8248,8.6987,8.6724,8.6724,8.6724,8.7645,8.8831,9.0011,9.1272,9.2519,9.3749,9.3899,9.3899,9.3899,9.3899,9.3899,9.3899,9.3899,9.3899,9.3899,9.5255,9.5507,9.3971,9.5255,9.5469,9.3971,9.3899,9.3899,9.3899,9.4113,9.5826,9.9251,9.9803,10.1251,10.3566,10.5187,10.5909,0.0,0.0,0.0,0.0,0.0,0.0,0.0,5.2624,0.0,0.0,0.0,0.0,0.0,0.0,0.0,0.0,0.0,0.0,0.0,0.0,0.0,0.0,0.0,0.0,0.0,0.0,0.0,8.0111,7.7962,7.7342,7.89,8.1056,8.2786,8.4148,8.5312,8.5312,8.4148,8.5312,8.5312,8.4148,8.4148,8.461,8.5538,8.8432,9.0231,9.1166,9.399,9.5284,9.5158,9.4052,9.368,9.368,9.368,9.4302,9.5284,9.5284,9.5284,9.5021,9.364,9.4035,9.5021,9.3581,9.41,9.4955,9.3515,9.2128,9.0681,8.9234,8.8248,8.7459,8.6856,8.7579,8.8172,8.6987,8.7185,8.7393,8.6856,8.6724,8.6724,8.6724,8.7645,8.8583,8.9058,9.0831,9.2274,9.2791,9.345,9.3899,9.3899,9.3899,9.3899,9.3899,9.3899,9.3899,9.3899,9.4541,9.4613,9.3971,9.4541,9.4613,9.3899,9.3899,9.3899,9.3899,9.4827,9.604,9.7396,9.8073,9.9645,10.2154,10.5677,10.7298,3.4567,0.0,0.0,0.0,0.0,0.0,0.0,0.0,0.0,0.0,0.0,0.0,0.0,0.0,0.0,0.0,0.0,0.0,0.0,0.0,0.0,0.0,0.0,0.0,0.0,0.0,0.0,0.0,7.6168,7.4875,7.7477,7.9121,8.1298,8.4071,8.5538,8.5613,8.4148,8.5613,8.5613,8.4148,8.4148,8.4456,8.5084,8.829,9.0095,9.0703,9.3866,9.4977,9.4364,9.2473,9.2086,9.2473,9.2473,9.368,9.5284,9.5284,9.5284,9.5021,9.364,9.4035,9.5021,9.3581,9.41,9.5087,9.4035,9.2456,9.0747,8.9694,8.8116,8.6724,8.6724,8.6724,8.6724,8.6724,8.6724,8.6724,8.6724,8.6724,8.6724,8.6724,8.7397,8.8044,8.8383,9.0196,9.1772,9.2067,9.3108,9.3899,9.3899,9.3899,9.3899,9.3899,9.3899,9.3899,9.3899,9.3899,9.3899,9.3899,9.3899,9.3899,9.3899,9.3899,9.3899,9.3899,9.5112,9.5721,9.5721,9.6585,9.8224,10.0553,10.4937,10.7381,0.0,0.0,0.0,0.0,0.0,0.0,6.1682,0.0,0.0,0.0,0.0,0.0,0.0,0.0,0.0,0.0,0.0,0.0,0.0,0.0,0.0,0.0,0.0,0.0,0.0,0.0,0.0,0.0,7.5422,7.5023,7.75,7.7669,7.9671,8.4071,8.4225,8.4225,8.4148,8.4225,8.4225,8.4148,8.4148,8.516,8.7035,8.8985,9.077,9.2538,9.4425,9.4241,9.2473,9.0636,9.0903,9.2473,9.2473,9.368,9.5284,9.5284,9.5284,9.5021,9.364,9.4035,9.5021,9.3581,9.41,9.5284,9.5218,9.318,9.0944,9.0878,8.8895,8.6724,8.6724,8.6724,8.6724,8.6724,8.6724,8.6724,8.6724,8.6724,8.6724,8.6724,8.6724,8.7078,8.8248,8.9444,9.0628,9.1941,9.3108,9.3899,9.3899,9.3899,9.3899,9.3899,9.3899,9.3899,9.3899,9.3899,9.3899,9.3899,9.3899,9.3899,9.3899,9.3899,9.3899,9.3899,9.3971,9.3971,9.3971,9.5468,9.7152,9.888,10.2086,10.5287,3.8182,0.0,0.0,0.0,0.0,5.5945,6.3389,0.0,0.0,0.0,0.0,0.0,0.0,0.0,0.0,0.0,0.0,0.0,0.0,0.0,0.0,0.0,0.0,0.0,0.0,0.0,0.0,0.0,0.0,0.0,7.7392,7.877,8.0914,8.409,8.4148,8.4148,8.4148,8.4148,8.4148,8.4148,8.4148,8.4533,8.5236,8.712,8.8985,9.077,9.1302,9.0631,8.8915,8.9547,9.0163,9.0837,9.2021,9.368,9.5284,9.5284,9.5284,9.5152,9.4692,9.4889,9.5152,9.4692,9.4889,9.5087,9.4166,9.2522,9.0747,8.9826,8.8182,8.6724,8.6724,8.6724,8.6724,8.6724,8.6724,8.6724,8.6724,8.6724,8.6724,8.6724,8.6724,8.7091,8.8248,8.9444,9.0652,9.1941,9.3108,9.3899,9.3899,9.3899,9.3899,9.3899,9.3899,9.3899,9.3899,9.3899,9.3899,9.3899,9.3899,9.3899,9.3899,9.3899,9.3899,9.3899,9.3899,9.3899,9.3899,9.5426,9.7107,9.8807,10.0799,10.3567,0.0,0.0,0.0,5.5551,5.8918,6.154,6.6659,0.0,0.0,0.0,0.0,0.0,0.0,0.0,0.0,0.0,0.0,0.0,0.0,0.0,0.0,0.0,0.0,0.0,0.0,0.0,0.0,0.0,0.0,7.5201,7.8568,7.9936,8.1721,8.409,8.4148,8.4148,8.4148,8.4148,8.4148,8.4148,8.4148,8.4148,8.4225,8.6151,8.7699,8.8775,8.8139,8.7494,8.718,8.8352,8.9263,8.9959,9.1825,9.368,9.5284,9.5284,9.5284,9.5284,9.5284,9.5284,9.5284,9.5284,9.5284,9.4955,9.3515,9.2128,9.0681,8.9234,8.7787,8.6724,8.6724,8.6724,8.6724,8.6724,8.6724,8.6724,8.6724,8.6724,8.6724,8.6724,8.6724,8.7091,8.8248,8.9058,9.0196,9.1899,9.2791,9.3411,9.3825,9.3899,9.3899,9.3899,9.3899,9.3899,9.3899,9.3899,9.3899,9.3899,9.3899,9.3899,9.3899,9.3899,9.3899,9.3899,9.3899,9.3899,9.3899,9.5426,9.6814,9.7898,9.9906,10.2052,0.0,4.7824,0.0,6.0547,6.421,0.0,0.0,0.0,0.0,0.0,0.0,0.0,0.0,0.0,0.0,0.0,0.0,0.0,0.0,0.0,0.0,0.0,0.0,0.0,0.0,0.0,0.0,0.0,7.5561,7.6285,8.0596,8.1,8.2017,8.4071,8.4148,8.4148,8.4148,8.4148,8.4148,8.4148,8.4148,8.4148,8.4225,8.6077,8.6961,8.6815,8.4933,8.5312,8.7107,8.718,8.8281,9.0095,9.1956,9.3742,9.5284,9.5284,9.5284,9.5284,9.5284,9.5284,9.5284,9.5284,9.5284,9.4955,9.3515,9.2193,9.0747,8.93,8.7853,8.679,8.6724,8.6724,8.6724,8.6724,8.6724,8.6724,8.6724,8.6724,8.6724,8.6724,8.6724,8.7091,8.8248,8.8433,8.9252,9.1772,9.215,9.259,9.3749,9.3899,9.3899,9.3899,9.3899,9.3899,9.3899,9.3899,9.3899,9.3899,9.3899,9.3899,9.3899,9.3899,9.3899,9.3899,9.3899,9.3899,9.3899,9.5426,9.6199,9.6272,9.9289,10.0781,0.0,0.0,5.7315,6.7609,6.9058,6.9626,0.0,0.0,0.0,0.0,0.0,0.0,0.0,0.0,0.0,0.0,0.0,0.0,0.0,0.0,0.0,0.0,0.0,0.0,0.0,0.0,0.0,0.0,7.7561,7.9643,8.0839,8.247,8.3548,8.4148,8.4148,8.4148,8.4148,8.4148,8.4148,8.4148,8.4148,8.4148,8.4148,8.4628,8.4857,8.4857,8.4379,8.5312,8.718,8.8564,9.0163,9.2021,9.3866,9.4856,9.5284,9.5284,9.5284,9.5284,9.5284,9.5284,9.5284,9.5284,9.5284,9.4955,9.3515,9.2858,9.2062,8.9563,8.8577,8.805,8.6987,8.6724,8.6724,8.6724,8.6724,8.6724,8.6724,8.6724,8.6724,8.6724,8.6724,8.7091,8.8248,8.8433,8.9252,9.1772,9.215,9.259,9.3749,9.3899,9.3899,9.3899,9.3899,9.3899,9.3899,9.3899,9.3899,9.3899,9.3899,9.3899,9.3899,9.3899,9.3899,9.3899,9.3899,9.3899,9.3899,9.5426,9.5911,9.5395,9.7993,9.9481,4.8691,5.5155,6.1893,0.0,7.1134,7.2185,7.806,0.0,7.5384,0.0,0.0,0.0,0.0,0.0,0.0,0.0,0.0,0.0,0.0,0.0,0.0,0.0,0.0,0.0,0.0,0.0,0.0,0.0,7.9396,8.1241,8.2255,8.347,8.4148,8.4148,8.4148,8.4148,8.4148,8.4148,8.4148,8.4148,8.4148,8.4148,8.4148,8.4148,8.4148,8.4225,8.5084,8.6077,8.7326,8.989,9.1629,9.273,9.4547,9.5284,9.5284,9.5284,9.5284,9.5284,9.5284,9.5284,9.5284,9.5284,9.5284,9.4955,9.3515,9.2661,9.1733,8.9497,8.884,8.8511,8.7119,8.7645,8.8303,8.6987,8.7185,8.7459,8.6856,8.6724,8.6724,8.6724,8.6724,8.7091,8.8248,8.8433,8.9252,9.1772,9.215,9.259,9.3749,9.3899,9.3899,9.3899,9.3899,9.3899,9.3899,9.3899,9.3899,9.3899,9.3899,9.3899,9.3899,9.3899,9.3899,9.3899,9.3899,9.3899,9.3899,9.5149,9.5488,9.5076,9.6741,9.7782,4.6388,5.4743,6.4383,0.0,7.1883,7.4221,0.0,0.0,7.5489,0.0,0.0,0.0,0.0,0.0,0.0,0.0,0.0,0.0,0.0,0.0,0.0,0.0,0.0,0.0,0.0,0.0,0.0,0.0,8.1081,8.2097,8.4071,8.4148,8.4148,8.4148,8.4148,8.4148,8.4148,8.4148,8.4148,8.4148,8.4148,8.4148,8.4148,8.4148,8.4148,8.4302,8.6225,8.7253,8.7699,9.1166,9.2602,9.3048,9.4608,9.5284,9.5284,9.5284,9.5284,9.5284,9.5284,9.5284,9.5284,9.5284,9.5284,9.5021,9.3712,9.2391,9.0944,8.9497,8.8971,8.8511,8.7119,8.8566,8.976,8.7316,8.7787,8.8445,8.7053,8.6724,8.6724,8.6724,8.6724,8.7037,8.8044,8.8349,8.9203,9.1489,9.2025,9.259,9.3749,9.3899,9.3899,9.3899,9.3899,9.3899,9.3899,9.3899,9.3899,9.3899,9.3899,9.3899,9.3899,9.3899,9.3899,9.3899,9.3899,9.3899,9.3899,9.4649,9.4945,9.4918,9.5793,9.6171,5.2952,5.8859,6.468,7.0811,7.3262,0.0,7.6838,7.678,7.617,7.6023,0.0,0.0,0.0,0.0,0.0,0.0,0.0,0.0,0.0,0.0,0.0,0.0,0.0,0.0,0.0,0.0,0.0,0.0,0.0,8.3703,8.4148,8.4148,8.4148,8.4148,8.4148,8.4148,8.4148,8.4148,8.4148,8.4148,8.4148,8.4148,8.4148,8.4148,8.4148,8.4302,8.6225,8.7986,8.9478,9.1629,9.3429,9.4856,9.5098,9.5284,9.5284,9.5284,9.5284,9.5284,9.5284,9.5284,9.5284,9.5284,9.5284,9.5218,9.4955,9.3903,9.2456,9.101,8.976,8.8511,8.7119,8.7053,8.7316,8.6856,8.7787,8.8445,8.7053,8.6724,8.6724,8.6724,8.6724,8.6779,8.6983,8.7801,8.8862,9.0265,9.1446,9.259,9.3749,9.3899,9.3899,9.3899,9.3899,9.3899,9.3899,9.3899,9.3899,9.3899,9.3899,9.3899,9.3899,9.3899,9.3899,9.3899,9.3899,9.3899,9.3899,9.4649,9.4717,9.4122,9.555,9.5882,5.1869,5.5931,6.0171,6.5429,0.0,7.1417,7.5984,7.4671,7.2452,7.2152,6.9126,0.0,0.0,0.0,0.0,0.0,0.0,0.0,0.0,0.0,0.0,0.0,0.0,0.0,0.0,0.0,0.0,0.0,0.0,8.4148,8.4148,8.4148,8.4148,8.4148,8.4148,8.4148,8.4148,8.4148,8.4148,8.4148,8.4148,8.4148,8.4148,8.4148,8.4148,8.4302,8.7265,8.8985,9.0027,9.2794,9.3866,9.3804,9.3804,9.3804,9.3804,9.3804,9.4425,9.5284,9.5284,9.5284,9.5152,9.4429,9.4692,9.5152,9.4363,9.3114,9.1864,9.1141,8.9957,8.8511,8.7119,8.7843,8.8566,8.7053,8.725,8.7524,8.6856,8.6724,8.6724,8.6724,8.6724,8.6724,8.6724,8.7131,8.8146,8.9895,9.1787,9.3257,9.3825,9.3899,9.3899,9.3899,9.3899,9.3899,9.3899,9.3899,9.3899,9.3899,9.3899,9.3899,9.3899,9.3899,9.3899,9.3899,9.3899,9.3899,9.3899,9.4231,9.4267,9.3899,9.4687,9.5051,4.9985,5.3244,5.6989,6.1375,6.4236,6.7637,7.4549,7.1108,6.6689,6.7493,6.6457,0.0,0.0,0.0,0.0,0.0,0.0,0.0,0.0,0.0,0.0,0.0,0.0,0.0,0.0,0.0,0.0,0.0,0.0,0.0,8.4148,8.4148,8.4148,8.4148,8.4148,8.4148,8.4148,8.4148,8.4148,8.4148,8.4148,8.4148,8.4148,8.4148,8.4148,8.4379,8.7782,8.9202,8.9478,9.273,9.3238,9.1956,9.1956,9.2151,9.2473,9.2473,9.368,9.5284,9.5284,9.5284,9.5021,9.3581,9.3903,9.4626,9.3449,9.2128,9.0944,9.0944,8.9957,8.8511,8.7119,8.8369,8.9431,8.725,8.6724,8.6724,8.6724,8.6724,8.6724,8.6724,8.6724,8.6724,8.6724,8.6724,8.745,8.9492,9.1913,9.3564,9.3862,9.3899,9.3899,9.3899,9.3899,9.3899,9.3899,9.3899,9.3899,9.3899,9.3899,9.3899,9.3899,9.3899,9.3899,9.3899,9.3899,9.3899,9.3899,9.3899,9.3899,9.3899,9.3899,9.4339,5.2281,5.6079,6.0153,6.5263,6.584,6.6381,7.0832,6.5152,5.9691,6.2602,0.0,6.4726,0.0,0.0,0.0,0.0,0.0,0.0,0.0,0.0,0.0,0.0,0.0,0.0,0.0,0.0,0.0,0.0,0.0,0.0,0.0,8.4148,8.4148,8.4148,8.4148,8.4148,8.4148,8.4148,8.4148,8.4148,8.4148,8.4148,8.4148,8.4148,8.4148,8.4302,8.6373,8.7326,8.7483,8.9478,9.0163,9.0027,9.0027,9.1037,9.2473,9.2473,9.368,9.5284,9.5284,9.5284,9.5021,9.3581,9.3187,9.3252,9.3121,9.2128,9.0944,9.0944,8.9957,8.8511,8.7119,8.6921,8.7053,8.679,8.6724,8.6724,8.6724,8.6724,8.6724,8.6724,8.6724,8.6724,8.6724,8.6724,8.7078,8.8383,9.0697,9.2711,9.3787,9.3899,9.3899,9.3899,9.3899,9.3899,9.3899,9.3899,9.3899,9.3899,9.3899,9.3899,9.3899,9.3899,9.3899,9.3899,9.3899,9.3899,9.3899,9.3899,9.3899,9.3899,9.3899,9.4339,4.5137,4.95,5.3962,5.5729,6.0507,6.4427,6.3103,0.0,0.0,0.0,6.3777,6.3893,6.5994,0.0,0.0,0.0,0.0,0.0,0.0,0.0,0.0,0.0,0.0,0.0,0.0,0.0,0.0,0.0,0.0,0.0,0.0,8.4148,8.4148,8.4148,8.4148,8.4148,8.4148,8.4148,8.4148,8.4148,8.4148,8.4148,8.4148,8.4148,8.4148,8.4225,8.5009,8.6062,8.7253,8.9055,8.9194,8.82,8.82,8.9333,9.0837,9.0837,9.273,9.5284,9.5284,9.5284,9.5021,9.3581,9.3121,9.2924,9.2062,9.0812,8.9892,9.0681,8.9957,8.8708,8.8116,8.7985,8.7722,8.6921,8.6724,8.6724,8.6724,8.6724,8.6724,8.6724,8.6724,8.6724,8.6724,8.6724,8.7078,8.8298,8.9917,9.166,9.3602,9.3899,9.3899,9.3899,9.3899,9.3899,9.3899,9.3899,9.3899,9.3899,9.3899,9.3899,9.3899,9.3899,9.3899,9.3899,9.3899,9.3899,9.3899,9.3899,9.3899,9.3899,9.3899,9.4339,4.1298,4.4905,4.8822,4.9592,5.5308,0.0,0.0,5.7727,0.0,0.0,6.2947,6.3529,6.5148,0.0,0.0,0.0,0.0,0.0,0.0,0.0,0.0,0.0,0.0,0.0,0.0,0.0,0.0,0.0,0.0,0.0,0.0,8.4148,8.4148,8.4148,8.4148,8.4148,8.4148,8.4148,8.4148,8.4148,8.4148,8.4148,8.4148,8.4148,8.4148,8.4148,8.4148,8.4933,8.6299,8.7638,8.735,8.6225,8.6225,8.7638,8.9822,8.9822,9.2086,9.5284,9.5284,9.5284,9.5021,9.3581,9.3121,9.2924,9.193,9.0615,8.976,9.1207,9.0549,8.9366,8.8971,8.884,8.8445,8.7053,8.6724,8.6724,8.6724,8.6724,8.6724,8.6724,8.6724,8.6724,8.6724,8.6724,8.6983,8.7801,8.8979,9.0334,9.1997,9.2911,9.3488,9.3862,9.3899,9.3899,9.3899,9.3899,9.3899,9.3899,9.3899,9.3899,9.3899,9.3899,9.3899,9.3899,9.3899,9.3899,9.3899,9.3899,9.3899,9.3899,9.3899,9.4339,4.3723,4.5004,4.6824,5.0721,5.1672,0.0,5.6806,5.4944,5.3094,5.5756,6.057,6.3938,6.2815,0.0,0.0,0.0,0.0,0.0,0.0,0.0,0.0,0.0,0.0,0.0,0.0,0.0,0.0,0.0,0.0,0.0,0.0,8.4148,8.4148,8.4148,8.4148,8.4148,8.4148,8.4148,8.4148,8.4148,8.4148,8.4148,8.4148,8.4148,8.4148,8.4148,8.4148,8.4148,8.4225,8.4225,8.4225,8.4225,8.4225,8.6535,8.9822,8.9822,9.2086,9.5284,9.5284,9.5284,9.5021,9.3581,9.3121,9.3121,9.3055,9.2128,9.1207,9.2719,9.2062,9.0615,8.9234,8.884,8.8445,8.7053,8.6724,8.6724,8.6724,8.6724,8.6724,8.6724,8.6724,8.6724,8.6724,8.6724,8.6724,8.6724,8.7698,8.8433,8.8483,9.0652,9.263,9.3787,9.3899,9.3899,9.3899,9.3899,9.3899,9.3899,9.3899,9.3899,9.3899,9.3899,9.3899,9.3899,9.3899,9.3899,9.3899,9.3899,9.3899,9.3899,9.3899,9.4339,3.9997,4.2927,4.6377,4.8601,4.9659,5.101,5.4853,5.4492,5.4502,5.8654,6.0665,6.1781,6.2346,0.0,0.0,0.0,0.0,0.0,0.0,0.0,0.0,0.0,0.0,0.0,0.0,0.0,0.0,0.0,0.0,0.0,0.0,8.4148,8.4148,8.4148,8.4148,8.4148,8.4148,8.4148,8.4148,8.4148,8.4148,8.4148,8.4148,8.4148,8.4148,8.4148,8.4148,8.4148,8.4148,8.4148,8.4148,8.4302,8.5688,8.7638,8.9959,9.1169,9.3175,9.5284,9.5284,9.5284,9.5152,9.4758,9.3903,9.2924,9.193,9.0681,8.9629,9.0089,8.9892,8.9629,9.0155,8.9563,8.8445,8.7053,8.6724,8.6724,8.6724,8.6724,8.6724,8.6724,8.6724,8.6724,8.6724,8.6724,8.6724,8.6724,8.7698,8.8732,8.9539,9.1097,9.263,9.3787,9.3899,9.3899,9.3899,9.3899,9.3899,9.3899,9.3899,9.3899,9.3899,9.3899,9.3899,9.3899,9.3899,9.3899,9.3899,9.3899,9.3899,9.3899,9.3899,9.4339,4.0638,4.3141,4.5831,4.8469,4.8638,4.9127,5.2814,5.2614,5.2782,5.6661,5.7756,0.0,0.0,0.0,6.3842,6.5994,6.6437,0.0,0.0,0.0,0.0,0.0,0.0,0.0,0.0,0.0,0.0,0.0,0.0,0.0,8.4148,8.4148,8.4148,8.4148,8.4148,8.4148,8.4148,8.4148,8.4148,8.4148,8.4148,8.4148,8.4148,8.4148,8.4148,8.4148,8.4148,8.4148,8.4148,8.4148,8.4148,8.4302,8.5538,8.7555,9.0027,9.1891,9.368,9.5284,9.5284,9.5284,9.5284,9.5284,9.4692,9.3771,9.2851,9.1601,9.0549,9.1141,9.0484,8.9563,8.9366,8.8708,8.7787,8.6921,8.6724,8.6724,8.6724,8.6724,8.6724,8.6724,8.6724,8.6724,8.6724,8.6724,8.6724,8.6724,8.7698,8.8732,8.9444,9.1053,9.2397,9.3179,9.3602,9.3899,9.3899,9.3899,9.3899,9.3899,9.3899,9.3899,9.3899,9.3899,9.3899,9.3899,9.3899,9.3899,9.3899,9.3899,9.3899,9.3899,9.3899,9.4339,4.4032,4.4771,4.5167,4.9469,4.8412,4.741,5.1104,4.9878,0.0,5.1181,0.0,0.0,0.0,6.1491,6.484,6.685,6.7204,6.7991,0.0,0.0,0.0,0.0,0.0,0.0,0.0,0.0,0.0,0.0,0.0,0.0,8.3839,8.4071,8.4148,8.4148,8.4148,8.4148,8.4148,8.4148,8.4032,8.3858,8.409,8.4032,8.3916,8.409,8.4148,8.4148,8.4128,8.4128,8.4148,8.4128,8.4128,8.4148,8.4148,8.6387,8.9822,9.1825,9.368,9.5284,9.5284,9.5284,9.5284,9.5284,9.5284,9.5218,9.5152,9.4166,9.3318,9.4495,9.2917,9.0352,8.7711,8.6856,8.6724,8.6724,8.6724,8.6724,8.6724,8.6724,8.6724,8.6724,8.6724,8.6724,8.6724,8.6724,8.6724,8.6724,8.7698,8.8433,8.8533,9.0652,9.215,9.2233,9.3257,9.3899,9.3899,9.3899,9.3899,9.3899,9.3899,9.3899,9.3899,9.3899,9.3899,9.3899,9.3899,9.3899,9.3899,9.3899,9.3899,9.3899,9.3974,9.4373,3.9764,4.2035,4.4454,4.5931,4.7907,5.0347,5.3498,5.1219,0.0,0.0,0.0,0.0,0.0,5.4187,0.0,6.1938,6.4033,6.5981,0.0,0.0,0.0,0.0,0.0,0.0,0.0,0.0,0.0,0.0,0.0,0.0,8.1618,8.3236,8.4148,8.4148,8.4148,8.4148,8.4148,8.4148,8.3237,8.1375,8.3218,8.3237,8.1375,8.3353,8.4148,8.4109,8.3277,8.3425,8.4051,8.335,8.3484,8.4148,8.4148,8.5629,8.8128,9.1365,9.368,9.5284,9.5284,9.5284,9.5284,9.5284,9.5284,9.5021,9.3969,9.3443,9.2727,9.0878,9.0615,9.0812,9.0089,8.8369,8.6724,8.6724,8.6724,8.6724,8.6724,8.6724,8.6724,8.6724,8.6724,8.6724,8.6724,8.6724,8.6724,8.6724,8.7698,8.8782,8.9682,9.1141,9.2509,9.3373,9.3749,9.3899,9.3899,9.3899,9.3899,9.3899,9.3899,9.3899,9.3899,9.3899,9.3899,9.3899,9.3899,9.3899,9.3899,9.3899,9.3899,9.3899,9.4514,9.5173,4.0463,4.2908,4.4664,4.3481,4.5671,4.8494,4.9803,0.0,0.0,0.0,0.0,0.0,0.0,0.0,5.3801,5.8896,0.0,6.3943,6.5638,6.8883,0.0,0.0,0.0,0.0,0.0,0.0,0.0,0.0,0.0,0.0,8.0839,8.2943,8.4148,8.4148,8.4148,8.4148,8.4148,8.4148,8.2946,8.0518,8.3004,8.2888,8.0503,8.3062,8.4148,8.4167,0.0,8.3641,8.4109,8.3556,8.3641,8.4148,8.4148,8.5387,8.7471,9.0231,9.2409,9.4117,9.4977,9.5284,9.5284,9.5284,9.5284,9.5152,9.4363,9.41,9.3771,9.2259,9.1864,9.1667,9.0352,8.884,8.7524,8.6856,8.6724,8.6724,8.6724,8.6724,8.6724,8.6724,8.6724,8.6724,8.6724,8.6724,8.6875,8.745,8.8483,8.9682,9.0965,9.2192,9.3218,9.3825,9.3899,9.3899,9.3899,9.3899,9.3899,9.3899,9.3899,9.3899,9.3899,9.3899,9.3899,9.3899,9.3899,9.3899,9.3899,9.3899,9.3899,9.3899,9.4302,9.5149,4.2365,4.466,4.5536,4.3059,4.4096,4.5633,4.5269,0.0,0.0,0.0,0.0,0.0,0.0,4.95,5.1893,0.0,0.0,6.1493,0.0,0.0,7.2053,7.31,0.0,0.0,0.0,0.0,0.0,0.0,0.0,7.8539,8.0758,8.2943,8.4148,8.4148,8.4148,8.4148,8.4148,8.4148,8.2946,8.0518,8.3004,8.2888,8.0503,8.3062,8.4148,8.4148,0.0,8.3971,8.409,8.399,8.403,8.4148,8.4148,8.5387,8.7326,8.9063,9.0903,9.2794,9.4608,9.5284,9.5284,9.5284,9.5284,9.5284,9.5284,9.5284,9.5284,9.5284,9.4232,9.2529,9.0155,8.9168,8.8511,8.7316,8.6856,8.6724,8.6724,8.6724,8.6724,8.6724,8.6724,8.6724,8.6724,8.6724,8.7078,8.8298,8.9444,9.0628,9.1983,9.3179,9.3899,9.3899,9.3899,9.3899,9.3899,9.3899,9.3899,9.3899,9.3899,9.3899,9.3899,9.3899,9.3899,9.3899,9.3899,9.3899,9.3899,9.3899,9.3899,9.3899,9.3976,9.4751,3.922,4.3132,4.735,4.7946,4.7854,4.7849,4.8876,0.0,0.0,0.0,4.2198,4.1668,0.0,4.4338,0.0,0.0,0.0,0.0,6.3333,6.8332,7.175,7.2803,7.4772,0.0,0.0,0.0,0.0,0.0,0.0,7.8539,8.0758,8.2943,8.4148,8.4148,8.4148,8.4148,8.4148,8.4148,8.2946,8.0518,8.3004,8.2888,8.0503,8.3062,8.4148,8.4109,0.0,0.0,8.4128,8.326,8.3322,8.4148,8.4148,8.5387,8.7326,8.9063,9.0903,9.2794,9.4608,9.5284,9.5284,9.5284,9.5284,9.5284,9.5284,9.5284,9.5284,9.5284,9.4232,9.2989,9.2529,9.0681,8.8774,8.8577,8.7524,8.6724,8.6724,8.6724,8.6724,8.6724,8.6724,8.6724,8.6724,8.6724,8.7078,8.8298,8.9444,9.0628,9.1983,9.3179,9.3899,9.3899,9.3899,9.3899,9.3899,9.3899,9.3899,9.3899,9.3899,9.3899,9.3899,9.3899,9.3899,9.3899,9.3899,9.3899,9.3899,9.3899,9.3899,9.3899,9.4583,9.4945,4.0303,4.38,4.7347,4.706,4.7058,4.7197,4.749,4.5238,4.2868,0.0,4.1002,4.0567,4.1089,4.2025,4.4638,5.0619,5.4027,0.0,0.0,0.0,7.3858,7.2863,7.5408,0.0,0.0,0.0,0.0,0.0,0.0,7.8539,8.0758,8.2943,8.4148,8.4148,8.4148,8.4148,8.4148,8.4148,8.2946,8.0518,8.3004,8.2581,7.9755,8.2798,8.3867,8.3336,8.3425,8.3742,8.4109,8.3641,8.3726,8.4148,8.4148,8.4704,8.5853,8.8713,9.0299,9.1497,9.4302,9.5284,9.5284,9.5284,9.5284,9.5284,9.5284,9.5284,9.5087,9.4363,9.364,9.2924,9.2193,9.0418,8.884,8.884,8.7722,8.6724,8.6724,8.6724,8.6724,8.6724,8.6724,8.6724,8.6724,8.6724,8.7291,8.9106,8.9802,9.092,9.2831,9.3526,9.3899,9.3899,9.3899,9.3899,9.3899,9.3899,9.3899,9.3899,9.3899,9.3899,9.3899,9.3899,9.3899,9.3899,9.3899,9.3899,9.3899,9.3899,9.3899,9.3899,9.4267,9.4615,4.4695,0.0,4.9661,4.7778,4.805,4.8356,0.0,4.5734,4.4161,4.1378,4.0598,4.0595,4.1184,4.0842,4.315,5.1146,5.4476,5.8518,6.5374,0.0,0.0,7.3223,7.5631,0.0,0.0,0.0,0.0,0.0,0.0,7.8539,8.0758,8.2943,8.4148,8.4148,8.4148,8.4148,8.4148,8.4148,8.3237,8.1375,8.3218,8.26,7.9903,8.282,8.3599,8.2691,8.3742,8.4148,8.4148,8.4148,8.4148,8.4148,8.4148,8.4456,8.5236,8.8573,9.0095,9.0903,9.4179,9.5284,9.5284,9.5284,9.5284,9.5284,9.5284,9.5284,9.5021,9.3969,9.3318,9.2858,9.1733,9.0155,8.884,8.884,8.7722,8.6724,8.6724,8.6724,8.6724,8.6724,8.6724,8.6724,8.6724,8.6929,8.775,8.9539,9.0265,9.1359,9.3186,9.3749,9.3899,9.3899,9.3899,9.3899,9.3899,9.3899,9.3899,9.3899,9.3899,9.3899,9.3899,9.3899,9.3899,9.3899,9.3899,9.3899,9.3899,9.3899,9.3899,9.3899,9.3899,9.4231,0.0,5.6354,5.749,5.5041,5.4998,5.4483,5.0555,4.8427,0.0,4.177,4.1729,4.1722,3.9045,4.0472,4.2267,4.3004,4.8632,5.4241,0.0,6.2332,0.0,0.0,7.3378,0.0,0.0,0.0,0.0,0.0,0.0,0.0,8.0758,8.2943,8.4148,8.4148,8.4148,8.4148,8.4148,8.4148,8.4032,8.3916,8.409,8.354,8.2403,8.3566,8.3599,0.0,8.3742,8.4148,8.4148,8.4148,8.4148,8.4148,8.4148,8.5312,8.7107,8.9124,9.0837,9.2666,9.4547,9.5284,9.5284,9.5284,9.5284,9.5284,9.5284,9.5284,9.5218,9.5152,9.4166,9.3055,9.2989,9.0944,8.884,8.884,8.7722,8.6724,8.6724,8.6724,8.6724,8.6724,8.6724,8.6724,8.6724,8.7593,8.84,8.8533,9.0516,9.2067,9.2233,9.3257,9.3899,9.3899,9.3899,9.3899,9.3899,9.3899,9.3899,9.3899,9.3899,9.3899,9.3899,9.3899,9.3899,9.3899,9.3899,9.3899,9.3899,9.3899,9.3899,9.3899,9.3899,9.3937,5.3155,5.6991,6.0115,5.493,5.6245,5.7277,5.1335,5.0108,4.8454,4.2146,4.1238,4.1125,3.976,3.9612,4.2113,4.9325,5.205,0.0,0.0,0.0,0.0,7.5373,0.0,0.0,0.0,0.0,0.0,0.0,0.0,0.0,8.0783,8.2943,8.4148,8.4148,8.4148,8.4148,8.4148,8.4148,8.4148,8.4148,8.4148,8.3657,8.2702,8.3684,8.3599,8.2691,8.3742,8.3826,0.0,8.3908,8.3767,8.3305,8.3967,8.461,8.5538,8.741,8.9263,9.1037,9.2921,9.4302,9.5284,9.5284,9.5284,9.5284,9.5284,9.5284,9.5087,9.4166,9.2917,9.1996,9.2917,9.0352,8.7919,8.976,8.8379,8.6724,8.6724,8.6724,8.6724,8.6724,8.6724,8.6724,8.6724,8.7091,8.7593,8.8349,8.987,9.1229,9.2025,9.3179,9.3899,9.3899,9.3899,9.3899,9.3899,9.3899,9.3899,9.3899,9.3899,9.3899,9.3899,9.3899,9.3899,9.3899,9.3899,9.3899,9.3899,9.3899,9.3899,9.3899,9.3899,9.3899,5.4919,5.8627,6.2003,5.6561,5.8614,6.0035,5.291,5.178,5.0048,4.2397,4.0583,4.037,4.0274,3.9495,4.1958,5.1338,5.3681,0.0,0.0,0.0,0.0,7.5675,7.4512,0.0,0.0,0.0,0.0,0.0,0.0,0.0,7.967,8.2549,8.4148,8.4148,8.4148,8.4148,8.4148,8.4148,8.4148,8.4148,8.4148,8.3657,8.2702,8.3684,8.3599,8.2691,8.3742,8.3614,8.2751,8.3726,8.3556,8.2741,8.3784,8.4148,8.4379,8.6373,8.821,9.0027,9.1891,9.3742,9.5284,9.5284,9.5284,9.5284,9.5284,9.5284,9.5021,9.41,9.2785,9.1799,9.2325,8.9892,8.7722,8.9234,8.8106,8.6724,8.6724,8.6724,8.6724,8.6724,8.6724,8.6724,8.6724,8.7037,8.7397,8.7853,8.9539,9.1009,9.1446,9.2911,9.3899,9.3899,9.3899,9.3899,9.3899,9.3899,9.3899,9.3899,9.3899,9.3899,9.3899,9.3899,9.3899,9.3899,9.3899,9.3899,9.3899,9.3899,9.3899,9.3899,9.3899,9.3899,5.9819,6.242,6.37,6.125,6.2897,6.3226,0.0,0.0,5.0591,4.249,4.0105,3.9637,4.0165,4.0273,4.1758,4.6331,0.0,0.0,6.0013,6.6463,7.1836,0.0,0.0,0.0,0.0,0.0,0.0,0.0,0.0,0.0,7.7584,8.1835,8.4148,8.4148,8.4148,8.4148,8.4148,8.4148,8.4148,8.4148,8.4148,8.3657,8.2632,8.3684,8.3599,8.2691,8.3742,8.3556,0.0,8.3726,8.3497,8.2681,8.3784,8.4148,8.4379,8.6299,8.821,9.0027,9.1891,9.3742,9.5284,9.5284,9.5284,9.5284,9.5284,9.5284,9.5284,9.5284,9.4232,9.2792,9.1338,8.9892,8.8511,8.7053,8.6724,8.6724,8.6724,8.6724,8.6724,8.6724,8.6724,8.6724,8.6724,8.7645,8.8044,8.6875,8.9776,9.1617,9.0356,9.2356,9.3899,9.3899,9.3899,9.3899,9.3899,9.3899,9.3899,9.3899,9.3899,9.3899,9.3899,9.3899,9.3899,9.3899,9.3899,9.3899,9.3899,9.3899,9.3899,9.3899,9.3899,9.3899,5.562,5.9546,6.3444,5.9888,6.2813,6.4439,0.0,0.0,5.1816,4.2677,4.0105,3.9935,4.137,4.1589,4.3651,0.0,0.0,5.5199,6.0288,6.4343,6.7346,0.0,0.0,7.1326,0.0,0.0,0.0,0.0,0.0,0.0,7.9751,8.2628,8.4148,8.4148,8.4148,8.4148,8.4148,8.4148,8.4148,8.4148,8.4148,8.4048,8.3742,8.403,8.399,8.3742,8.403,8.3155,0.0,8.3425,8.3109,8.1664,8.3469,8.4148,8.4225,8.478,8.712,8.989,9.0434,9.2666,9.5284,9.5284,9.5284,9.5284,9.5284,9.5284,9.5284,9.5284,9.4955,9.4298,9.2851,9.0681,8.8774,8.8314,8.7393,8.6724,8.6724,8.6724,8.6724,8.6724,8.6724,8.6724,8.6724,8.6983,8.7397,8.7905,8.9539,9.0965,9.1489,9.2911,9.3899,9.3899,9.3899,9.3899,9.3899,9.3899,9.3899,9.3899,9.3899,9.3899,9.3899,9.3899,9.3899,9.3899,9.3899,9.3899,9.3899,9.3899,9.3899,9.3899,9.3899,9.3899,5.3645,5.6869,6.0549,5.9382,6.195,6.3318,5.8011,0.0,5.1592,4.4115,4.1118,4.0514,4.2914,4.3705,4.6166,0.0,0.0,0.0,6.0122,6.4202,6.6577,6.6292,6.8596,0.0,0.0,0.0,0.0,0.0,0.0,0.0,8.204,8.347,8.4148,8.4148,8.4148,8.4148,8.4148,8.4148,8.4148,8.4148,8.4148,8.4148,8.4148,8.4148,8.4148,8.4148,8.4148,8.326,0.0,8.3469,8.3142,8.1891,8.3512,8.4148,8.4225,8.5009,8.7205,8.989,9.0636,9.2794,9.5284,9.5284,9.5284,9.5284,9.5284,9.5284,9.5284,9.5284,9.5284,9.5087,9.4232,9.1864,8.9366,8.8248,8.7327,8.6724,8.6724,8.6724,8.6724,8.6724,8.6724,8.6724,8.6724,8.6724,8.7078,8.8298,8.9444,9.0628,9.1983,9.3179,9.3899,9.3899,9.3899,9.3899,9.3899,9.3899,9.3899,9.3899,9.3899,9.3899,9.3899,9.3899,9.3899,9.3899,9.3899,9.3899,9.3899,9.3899,9.3899,9.3899,9.3899,9.3899,5.345,5.4619,5.6107,5.9307,6.0582,6.0889,6.027,0.0,0.0,4.5908,4.2524,4.132,4.4304,4.5983,4.8888,0.0,0.0,5.8669,5.9699,6.4872,6.7511,6.4986,0.0,0.0,7.0074,0.0,0.0,0.0,0.0,0.0,8.3392,8.3994,8.4148,8.4148,8.4148,8.4148,8.4148,8.4148,8.4148,8.4148,8.4148,8.4148,8.4148,8.4148,8.4148,8.4148,8.4148,8.3614,0.0,8.3726,8.3556,8.2741,8.3784,8.4148,8.4379,8.6373,8.821,9.0027,9.1891,9.3742,9.5284,9.5284,9.5284,9.5284,9.5284,9.5284,9.5284,9.5284,9.5284,9.5218,9.5087,9.3048,9.0286,8.7579,8.679,8.6724,8.6724,8.6724,8.6724,8.6724,8.6724,8.6724,8.6724,8.6724,8.7078,8.8383,8.9539,9.0673,9.2109,9.3257,9.3899,9.3899,9.3899,9.3899,9.3899,9.3899,9.3899,9.3899,9.3899,9.3899,9.3899,9.3899,9.3899,9.3899,9.3899,9.3899,9.3899,9.3899,9.3899,9.3899,9.3899,9.3899,5.3776,5.4489,5.5952,5.8161,6.0582,6.124,5.6998,5.5402,0.0,0.0,4.1993,4.1997,4.2682,4.6219,5.0466,0.0,5.8106,6.01,5.9651,6.0754,6.1106,0.0,6.0801,0.0,6.6268,6.7084,0.0,0.0,0.0,0.0,7.8845,8.2312,8.4148,8.4148,8.4148,8.4148,8.4148,8.4148,8.4148,8.4148,8.4148,8.4148,8.4148,8.4148,8.4148,8.4148,8.4148,8.3614,8.2751,8.3726,8.3556,8.2741,8.3784,8.4148,8.4379,8.6373,8.821,9.0027,9.1891,9.3742,9.5284,9.5284,9.5284,9.5284,9.5284,9.5284,9.5284,9.5284,9.5284,9.5021,9.3903,9.2259,9.0484,8.8774,8.7524,8.6724,8.6724,8.6724,8.6724,8.6724,8.6724,8.6724,8.6724,8.6724,8.745,8.9539,8.9988,9.0984,9.3257,9.3749,9.3899,9.3899,9.3899,9.3899,9.3899,9.3899,9.3899,9.3899,9.3899,9.3899,9.3899,9.3899,9.3899,9.3899,9.3899,9.3899,9.3899,9.3899,9.3899,9.3899,9.3899,9.3899,5.3812,5.3949,5.4842,5.7285,5.9239,6.0265,5.8846,0.0,0.0,0.0,4.6462,4.5525,4.4656,4.8605,0.0,5.5767,5.9395,6.0979,5.8671,6.0526,0.0,5.7472,6.069,6.3574,0.0,6.667,0.0,0.0,0.0,7.7043,7.6701,8.1439,8.4148,8.4148,8.4148,8.4148,8.4148,8.4148,8.4148,8.4148,8.4148,8.4148,8.4148,8.4148,8.4148,8.4148,8.4148,8.3867,8.344,8.3949,8.3867,8.3366,8.4008,8.4148,8.4533,8.7338,8.8985,9.0163,9.2921,9.4425,9.5284,9.5284,9.5284,9.5284,9.5284,9.5284,9.5284,9.5284,9.4758,9.4035,9.3252,9.1536,8.976,8.9037,8.7722,8.6724,8.6724,8.6724,8.6724,8.6724,8.6724,8.6724,8.6724,8.6724,8.7436,8.987,9.0173,9.1141,9.3564,9.3899,9.3899,9.3899,9.3899,9.3899,9.3899,9.3899,9.3899,9.3899,9.3899,9.3899,9.3899,9.3899,9.3899,9.3899,9.3899,9.3899,9.3899,9.3899,9.3899,9.3899,9.3899,9.3899,5.4188,5.3584,5.3683,5.633,5.7574,5.8779,6.1043,6.051,0.0,0.0,5.1916,4.9952,4.7698,5.1388,5.5443,5.7453,6.0901,6.2205,5.8896,6.1988,6.2631,0.0,6.1576,6.4845,6.4104,6.6221,0.0,0.0,0.0,7.6354,7.574,8.0712,8.3683,8.4148,8.4148,8.4148,8.4148,8.4148,8.4148,8.4148,8.4148,8.4148,8.4148,8.4148,8.407,8.3967,8.4128,0.0,8.4438,8.4223,8.4379,8.4686,8.4302,8.4148,8.4628,8.8361,8.9616,8.989,9.3866,9.5038,9.4856,9.5164,9.5284,9.5284,9.5284,9.5284,9.5284,9.5284,9.4429,9.3318,9.2917,9.101,8.9103,8.8577,8.7524,8.6724,8.6724,8.6724,8.6724,8.6724,8.6724,8.6724,8.6724,8.6875,8.775,8.9849,9.0356,9.1359,9.3564,9.3899,9.3899,9.3899,9.3899,9.3899,9.3899,9.3899,9.3899,9.3899,9.3899,9.3899,9.3899,9.3899,9.3899,9.3899,9.3899,9.3899,9.3899,9.3899,9.3899,9.3899,9.3899,9.3899,5.5675,5.4464,5.3486,5.5177,5.6578,5.7535,5.7684,5.9064,5.884,5.3861,0.0,5.2762,4.8912,5.2652,5.6946,5.9025,0.0,6.5109,6.361,6.3092,6.1639,5.8081,5.767,5.8944,6.2474,6.3207,6.4579,6.7452,7.0842,7.3517,7.5059,7.8836,8.1957,8.409,8.4148,8.4148,8.4148,8.4148,8.4148,8.4148,8.4148,8.4148,8.4148,8.4148,8.37,8.2886,8.3767,8.462,8.532,8.4458,8.516,8.6521,8.478,8.4148,8.4628,8.8361,8.8845,8.82,9.3429,9.4241,9.3112,9.4735,9.5284,9.5284,9.5284,9.5284,9.5284,9.5284,9.5152,9.4429,9.193,9.0944,9.0023,8.7579,8.6856,8.6724,8.6724,8.6724,8.6724,8.6724,8.6724,8.6724,8.6724,8.7488,8.8683,9.0011,9.1185,9.2356,9.3749,9.3899,9.3899,9.3899,9.3899,9.3899,9.3899,9.3899,9.3899,9.3899,9.3899,9.3899,9.3899,9.3899,9.3899,9.3899,9.3899,9.3899,9.3899,9.3899,9.3899,9.3899,9.3899,9.3899,5.5751,5.4953,5.4143,5.4808,5.6141,5.7311,5.7234,5.9706,6.0828,5.6445,5.5951,0.0,5.1125,0.0,0.0,0.0,0.0,0.0,6.2942,6.2081,6.0954,0.0,5.9707,0.0,6.2158,6.3072,6.4058,0.0,6.9596,7.2878,7.4471,7.8973,8.2364,8.409,8.4148,8.4148,8.4148,8.4148,8.4148,8.4148,8.4148,8.4148,8.4148,8.4148,8.3891,8.3587,0.0,8.6082,8.6351,8.5969,8.6299,8.6888,8.4933,8.4148,8.4533,8.7265,8.8422,8.9124,9.2537,9.3175,9.2858,9.4608,9.5284,9.5284,9.5284,9.5284,9.5284,9.5284,9.4692,9.3574,9.1536,9.0352,8.9234,8.7185,8.6724,8.6724,8.6724,8.6724,8.6724,8.6724,8.6724,8.6875,8.7541,8.8095,8.9058,9.1009,9.1815,9.259,9.3749,9.3899,9.3899,9.3899,9.3899,9.3899,9.3899,9.3899,9.3899,9.3899,9.3899,9.3899,9.3899,9.3899,9.3899,9.3899,9.3899,9.3899,9.3899,9.3899,9.4122,9.4548,9.4548,9.4751,5.5793,5.4954,5.4008,5.4491,5.5694,5.6821,5.7249,6.0124,6.1849,5.9103,5.8456,5.7351,0.0,0.0,0.0,5.8867,5.9178,0.0,6.3407,6.2164,0.0,6.201,0.0,6.1382,6.1914,6.3015,0.0,0.0,6.8297,7.2061,7.4674,7.9067,8.2248,8.409,8.4148,8.4148,8.4148,8.4148,8.4148,8.4148,8.4148,8.4148,8.4148,8.4148,8.4277,8.4607,8.6368,8.7191,8.7364,8.7168,8.7107,8.6888,8.4933,8.4456,8.516,8.7047,8.8634,9.0027,9.1891,9.2858,9.3492,9.4856,9.5284,9.5284,9.5284,9.5284,9.5152,9.4824,9.3969,9.2661,9.0878,8.9629,8.8445,8.7053,8.6724,8.6724,8.6724,8.6724,8.6724,8.6724,8.6724,8.7091,8.8248,8.8979,9.0011,9.1857,9.2356,9.2911,9.3787,9.3899,9.3899,9.3899,9.3899,9.3899,9.3899,9.3899,9.3899,9.3899,9.3899,9.3899,9.3899,9.3899,9.3899,9.3899,9.4049,9.4195,9.4195,9.4373,9.4751,9.5332,9.5332,9.5672,5.6313,5.4314,5.2276,5.4114,5.4687,5.5203,5.6907,5.9133,6.0748,6.0522,6.047,5.9538,0.0,0.0,6.0471,6.2142,6.3703,6.5571,6.7942,6.4959,6.2653,0.0,0.0,0.0,0.0,0.0,0.0,6.4735,0.0,6.9877,7.617,7.7859,8.0386,8.4032,8.4148,8.4148,8.4148,8.4148,8.4148,8.4148,8.4148,8.4148,8.4148,8.4148,8.4634,8.5554,8.6606,8.7499,8.8136,8.7381,8.7107,8.6888,8.4933,8.5312,8.718,8.8985,8.9685,9.0027,9.1891,9.368,9.5098,9.5158,9.5284,9.5284,9.5284,9.5284,9.4955,9.3581,9.3121,9.2464,8.9694,8.8905,8.8445,8.7053,8.6724,8.6724,8.6724,8.6724,8.6724,8.6724,8.6724,8.7091,8.8248,9.038,9.1983,9.2109,9.3069,9.3825,9.3862,9.3899,9.3899,9.3899,9.3899,9.3899,9.3899,9.3899,9.3899,9.3899,9.3899,9.3899,9.3899,9.3899,9.3899,9.3899,9.458,9.5018,9.5018,9.5733,9.6114,9.6142,9.6142,9.6171,5.5961,5.4735,5.3104,5.4623,5.5273,5.559,5.5562,5.7315,5.8708,5.7889,5.8336,5.8586,5.7498,5.8115,5.9426,6.1235,6.0304,6.1282,6.6589,6.362,6.2379,6.6491,6.3471,6.1703,0.0,0.0,0.0,6.5422,6.7752,7.1464,7.6777,7.8797,8.1143,8.4032,8.4148,8.4148,8.4148,8.4148,8.4148,8.4148,8.4148,8.4148,8.4148,8.4148,8.4329,8.4854,8.7641,8.8291,8.756,8.8414,8.8139,8.6888,8.4933,8.5387,8.718,8.7842,8.954,9.1825,9.368,9.4735,9.5284,9.5284,9.5284,9.5284,9.5284,9.4626,9.3771,9.3252,9.2456,9.1273,8.9366,8.884,8.8445,8.7053,8.6724,8.6724,8.6724,8.6724,8.6929,8.7698,8.7853,8.8197,8.9348,9.1009,9.2356,9.3108,9.3602,9.3899,9.3899,9.4302,9.4687,9.4687,9.5116,9.5364,9.5364,9.5364,9.5364,9.5364,9.5364,9.5364,9.5364,9.5364,9.5872,9.7026,9.7307,9.7928,9.8908,9.9249,9.962,10.0074,10.0074,9.9757,5.3801,5.2896,5.213,5.3515,5.4529,5.5055,5.4713,5.6324,5.7593,5.6397,5.7105,5.7935,5.7935,5.8472,5.9399,6.0766,5.9253,5.9878,6.5827,6.2944,6.2144,6.7733,6.4997,0.0,0.0,0.0,0.0,6.7191,6.8909,7.2175,7.7515,7.949,8.1433,8.3527,8.3916,8.4148,8.4148,8.4148,8.4148,8.4148,8.4148,8.4148,8.4148,8.4148,8.4533,8.5312,8.7782,8.8271,8.718,8.8352,8.7782,8.5928,8.4628,8.5387,8.718,8.7771,9.0293,9.3617,9.4856,9.5284,9.5284,9.5284,9.5284,9.5152,9.4692,9.3903,9.2924,9.1938,9.101,8.9892,8.8445,8.8116,8.7853,8.6921,8.6724,8.6724,8.6724,8.7037,8.7488,8.8298,8.8782,8.9444,9.0652,9.1532,9.2519,9.3749,9.3899,9.4049,9.4618,9.5187,9.556,9.556,9.6162,9.6475,9.6389,9.6362,9.6329,9.6227,9.6199,9.6199,9.6199,9.6199,9.6741,9.7869,9.8636,9.961,10.0641,10.0883,10.1288,10.1766,10.1245,10.0698,0.0,0.0,4.9321,5.0931,5.2208,5.3298,5.4274,5.6226,5.7544,5.63,5.7105,5.7935,5.7935,5.9545,6.0912,6.0961,6.0912,6.2226,6.6092,6.3264,6.2359,6.6564,6.4785,6.3262,0.0,6.2536,6.4345,6.9861,6.9391,7.1676,7.8063,7.9688,8.1042,8.2323,8.3469,8.4032,8.409,8.409,8.409,8.4148,8.4148,8.4148,8.4148,8.4148,8.5236,8.7035,8.7035,8.7035,8.7035,8.7035,8.5987,8.4148,8.4148,8.5387,8.7398,8.9263,9.2151,9.5158,9.5218,9.5284,9.5284,9.5284,9.5218,9.4955,9.3515,9.3055,9.2456,8.9629,8.884,8.8445,8.7119,8.6724,8.6724,8.6724,8.6724,8.6779,8.6779,8.7645,8.8483,8.8533,8.9492,9.0628,9.1983,9.2192,9.26,9.3716,9.3974,9.4476,9.6056,9.6426,9.664,9.6663,9.6884,9.6983,9.6731,9.6686,9.6575,9.632,9.6339,9.6339,9.6339,9.6339,9.6339,9.6412,9.8646,9.9876,10.0025,10.0783,10.108,10.1005,9.9454,9.8725,5.275,0.0,0.0,5.0288,5.1873,5.2712,5.1394,5.3981,5.6178,5.4323,5.6031,5.7935,5.7935,5.7691,5.8081,5.9692,5.8569,5.9379,6.4679,6.3829,6.3524,6.606,6.5683,6.4925,6.4397,6.3891,6.4819,6.7527,6.9079,7.1826,7.6044,7.809,7.963,8.0984,8.1317,8.1957,8.2829,8.2888,8.3353,8.4148,8.4148,8.4148,8.4148,8.4148,8.4456,8.5009,8.6447,8.6299,8.5084,8.6521,8.5987,8.4148,8.4148,8.6165,8.9333,9.1166,9.2409,9.3492,9.4796,9.5284,9.5284,9.5284,9.4561,9.364,9.3187,9.1609,8.9892,8.9037,8.8116,8.725,8.679,8.6724,8.6724,8.6724,8.7344,8.7941,8.7941,8.893,9.0011,9.092,9.1359,9.2025,9.3147,9.387,9.437,9.4683,9.5411,9.5968,9.6428,9.6717,9.7154,9.7662,9.8271,9.8667,9.8565,9.8565,9.8524,9.8486,9.8471,9.8471,9.8471,9.8471,9.9615,10.1962,10.2433,10.3831,10.6174,10.623,10.5661,10.4539,10.4091,10.2595,5.1014,0.0,0.0,0.0,4.8185,4.9426,4.8641,5.1443,5.3884,5.2683,5.4957,5.7349,5.7837,5.7739,5.7957,0.0,5.8347,5.9279,6.4201,6.4467,6.4803,6.6564,6.6145,6.523,6.3964,6.4112,6.5366,6.806,6.9562,7.2011,7.5733,7.7601,7.8874,7.963,8.0154,8.0867,8.1624,8.2148,8.2789,8.3469,8.3916,8.4148,8.4148,8.4148,8.4148,8.4225,8.5387,8.5236,8.4225,8.5387,8.516,8.4225,8.5084,8.6682,8.8985,9.1563,9.2985,9.3804,9.4917,9.5284,9.5284,9.5284,9.4298,9.2989,9.2391,9.0681,8.8708,8.8116,8.7327,8.6724,8.6724,8.6724,8.6767,8.7291,8.8461,8.9578,9.0125,9.1686,9.3074,9.3517,9.4005,9.4473,9.4755,9.5278,9.5735,9.6302,9.7175,9.7767,9.7767,9.8468,9.914,9.9768,10.0232,10.018,9.9409,9.9237,9.9094,9.9041,9.9036,9.9036,9.9036,9.9036,9.987,10.176,10.3148,10.4745,10.6634,10.7291,10.7182,10.6279,10.5419,10.3642,4.6163,0.0,0.0,4.142,4.2624,4.454,0.0,0.0,5.0712,5.0777,5.3319,5.5733,5.6837,5.7915,5.8672,5.8911,5.896,6.0252,6.3914,6.4736,6.5536,6.7155,6.6271,6.4819,6.293,6.3694,6.5917,6.9773,7.0236,7.2058,7.5984,7.7568,7.8176,7.7885,7.9281,7.9921,7.9878,8.1275,8.2148,8.2439,8.3469,8.4032,8.4148,8.4148,8.4148,8.4148,8.4148,8.4148,8.4148,8.4379,8.4533,8.4686,8.6668,8.7483,8.8128,9.1563,9.3866,9.5284,9.5284,9.5284,9.5284,9.5284,9.4166,9.2654,9.1338,8.992,8.8359,8.7103,8.6721,8.6866,8.7158,8.7225,8.7555,8.8904,9.037,9.175,9.3047,9.5337,9.6941,9.6334,9.6918,9.7358,9.6639,9.6467,9.6845,9.8066,9.8883,9.9355,9.9355,10.0602,10.1598,10.2044,10.2069,10.142,9.9773,9.9268,9.887,9.8628,9.863,9.863,9.863,9.863,9.8706,9.8934,10.1951,10.3727,10.4106,10.5788,10.6524,10.6297,10.4537,10.2969,0.0,0.0,0.0,0.0,0.0,0.0,0.0,0.0,4.5976,4.6192,4.8885,5.1205,5.1307,5.2348,5.3686,5.5296,5.5592,5.6927,6.0974,6.2246,6.3252,6.4409,6.5226,6.5282,6.4138,6.4265,6.5392,6.7834,6.9462,7.1456,7.3927,7.593,7.6024,7.393,7.614,7.6838,7.5791,7.8118,8.0402,8.2439,8.2672,8.3237,8.4148,8.4148,8.4148,8.4148,8.4148,8.4148,8.4302,8.5853,8.6521,8.6668,8.8564,9.0163,9.176,9.3866,9.4917,9.5284,9.5284,9.5284,9.5284,9.5284,9.3508,9.1338,9.101,8.9323,8.7347,8.7122,8.7197,8.795,8.9917,9.0391,9.1063,9.3268,9.4708,9.5889,9.6752,9.8202,9.9438,9.9965,9.9188,9.8485,9.8522,9.7936,9.7884,9.8914,9.9296,9.9491,9.9491,9.9951,10.0827,10.22,10.2192,10.1925,10.1538,10.0118,9.9256,9.9144,9.9144,9.9144,9.9144,9.9144,9.975,10.1046,10.1522,10.309,10.5818,10.5998,10.5374,10.4086,10.3695,10.3417,0.0,0.0,0.0,0.0,0.0,0.0,0.0,0.0,0.0,0.0,0.0,4.6575,0.0,0.0,5.125,5.28,5.4372,5.6585,6.0162,6.1683,6.216,6.163,6.2631,6.3385,6.3517,6.4385,6.6152,6.868,7.0826,7.284,7.4927,7.4771,7.4046,7.2767,7.3988,7.4337,7.3697,7.6896,7.9165,8.0518,8.1159,8.2073,8.3295,8.3295,8.3644,8.4148,8.4148,8.4148,8.4225,8.5236,8.6225,8.7471,9.11,9.3048,9.3919,9.4331,9.4341,9.4212,9.4412,9.4284,9.4298,9.5021,9.3771,9.2062,9.2062,9.0651,8.8986,8.8986,8.9213,8.9758,9.1661,9.2121,9.2791,9.5309,9.7334,9.8922,9.9903,10.1715,10.3123,10.3041,10.2538,10.1815,10.057,10.0859,10.1397,10.208,10.2232,10.2257,10.2257,10.3111,10.3342,10.2507,10.1488,10.0796,10.0711,9.8155,9.7599,9.9974,10.0938,10.139,10.139,10.0562,10.0125,10.0139,10.0124,10.0953,10.2618,10.3504,10.387,10.3699,10.0286,9.9547,0.0,0.0,0.0,0.0,0.0,0.0,0.0,0.0,0.0,0.0,0.0,0.0,0.0,0.0,0.0,5.0679,5.3693,5.6779,5.9402,6.071,6.0878,5.9602,6.0229,6.1156,6.2181,6.4099,6.6646,6.9807,7.2007,7.4138,7.6465,7.4628,7.3232,7.2767,7.3174,7.3232,7.2708,7.6315,7.8292,7.8525,0.0,0.0,8.2032,8.2032,8.2681,8.3775,8.3581,8.3599,8.385,8.3901,8.5259,8.7702,9.2151,9.4065,9.427,9.347,9.2935,9.2812,9.3388,9.335,9.3318,9.4824,9.4298,9.3121,9.3121,9.2371,0.0,9.1457,9.1715,9.2298,9.3802,9.4313,9.5121,9.7718,9.9996,10.1857,10.3012,10.4501,10.5658,10.5783,10.5285,10.4338,10.2987,10.3504,10.3914,10.319,10.3039,10.3039,10.3039,10.4784,10.5009,10.2579,10.1526,10.0917,10.0696,9.648,9.5959,10.1044,10.1155,10.0875,10.0576,9.9172,9.734,9.508,9.5154,9.599,9.7519,9.9079,10.0729,10.2036,9.2872,9.087,0.0,0.0,0.0,0.0,0.0,0.0,0.0,0.0,0.0,0.0,0.0,0.0,0.0,0.0,0.0,0.0,5.2189,5.5422,5.6516,5.6764,5.7523,5.9253,5.9594,6.0082,6.1107,6.2865,6.535,6.8757,7.0739,7.3176,7.6407,0.0,0.0,0.0,0.0,7.5035,7.2767,7.5442,7.742,7.8525,7.87,7.9398,8.0751,8.0751,8.1389,8.2539,8.14,8.1519,8.2666,8.296,8.4985,8.7825,8.8709,9.0042,9.1462,9.1286,9.1295,9.1396,9.268,0.0,0.0,9.4824,9.4298,9.3121,9.3121,9.3208,9.3225,9.3225,9.4303,9.5952,9.8362,9.9435,10.0597,10.3087,10.4556,10.5621,10.6676,10.4789,10.4039,10.8025,10.5145,10.3044,10.5994,10.4373,10.1216,9.6812,9.6205,9.6205,9.6205,9.868,10.0821,10.1959,0.0,0.0,10.5558,9.8179,9.6294,10.2745,9.6463,9.1902,9.0349,8.9817,8.7224,8.2423,8.2057,8.5344,9.2366,9.2611,9.3596,9.4827,7.7147,7.4355,0.0,0.0,0.0,0.0,0.0,0.0,0.0,0.0,0.0,0.0,0.0,0.0,0.0,0.0,0.0,0.0,4.8596,5.1709,5.1365,5.3119,5.5265,5.7326,5.7518,5.868,6.1456,6.3466,6.6,6.9128,7.1142,7.2881,7.4269,7.3697,7.2825,7.172,7.3406,7.3814,7.2708,7.5326,7.6896,7.742,7.742,7.8118,7.9339,7.9339,8.0074,8.1346,8.1709,8.2223,8.2864,8.4001,8.589,0.0,0.0,0.0,0.0,0.0,9.0418,8.9985,9.1542,9.2044,9.2367,9.5415,9.5967,9.567,9.649,9.6773,9.6902,9.6902,9.7675,9.9056,10.0972,10.2003,10.311,10.5163,10.6255,10.6997,10.7601,10.714,10.7208,10.9091,10.785,0.0,10.8558,10.7742,10.6152,10.4026,10.3722,10.372,10.3538,10.4633,10.4863,10.3461,10.3344,10.3362,10.3407,9.9145,0.0,0.0,0.0,9.9828,10.0053,9.988,0.0,0.0,0.0,7.9548,0.0,0.0,0.0,0.0,6.5837,6.4495,0.0,0.0,0.0,0.0,0.0,0.0,0.0,0.0,0.0,0.0,0.0,0.0,0.0,0.0,0.0,0.0,0.0,4.7672,4.6686,5.0272,5.3528,5.4866,5.6283,5.7973,6.0221,6.3276,6.6094,6.854,7.0888,7.2359,7.2708,7.1894,7.169,7.202,7.2857,7.3699,7.4561,7.6341,7.7519,7.8007,7.8007,7.8482,7.9431,7.9431,8.0152,8.1392,8.2283,8.2834,8.3323,8.4597,8.6178,8.7728,8.8087,8.9118,9.0309,9.0309,8.98,8.9457,9.1119,9.1521,9.2008,9.5397,9.6462,9.6743,9.8243,9.9111,9.969,10.0107,10.1134,10.2321,10.3336,10.4284,10.5225,10.6479,10.7347,10.8076,10.8336,10.8283,10.8559,10.9506,10.9861,10.9721,10.8809,10.8658,10.8278,10.7367,10.7212,0.0,10.689,10.756,10.7045,10.4397,10.3571,10.3191,10.3217,9.9939,10.0352,10.6184,10.4464,10.4764,10.8129,10.5441,10.1908,9.7635,8.4271,7.6246,0.0,0.0,0.0,0.0,0.0,0.0,0.0,0.0,0.0,0.0,0.0,0.0,0.0,0.0,0.0,0.0,0.0,0.0,0.0,0.0,0.0,0.0,0.0,0.0,4.3314,4.8538,5.229,5.2042,5.6375,5.8478,5.6236,6.1103,6.4865,6.6105,6.9177,7.1487,7.265,7.265,7.3318,7.4804,7.4743,7.6063,7.9248,7.9089,7.9822,8.1543,8.1543,8.1543,8.1543,8.1543,8.225,8.3462,8.2204,8.2369,8.3636,8.3976,8.5109,8.6372,8.6641,8.7463,8.8517,8.8517,8.9242,9.0356,9.1983,9.2486,9.2713,9.4293,9.4773,9.5048,9.6589,9.8548,10.0557,10.2095,10.4261,10.6126,10.6227,10.6998,10.774,10.7832,10.8514,10.9278,10.9488,10.7021,10.5775,10.9339,11.0024,10.8961,10.5696,10.5089,10.4026,10.0761,10.004,0.0,9.981,10.2294,10.3903,10.3813,10.6326,10.8095,10.8074,10.0745,9.9529,10.768,10.0726,9.9903,10.7904,9.8374,9.2535,9.2019,8.247,7.5294,7.0679,0.0,0.0,0.0,0.0,0.0,0.0,0.0,0.0,0.0,0.0,0.0,0.0,0.0,0.0,0.0,0.0,0.0,0.0,0.0,0.0,0.0,0.0,0.0,0.0,0.0,4.8257,4.9429,5.1472,5.2533,5.1991,5.5926,5.9258,6.0909,6.6504,6.9945,7.0361,7.3013,7.4772,7.5313,7.6053,7.7399,7.9432,7.9434,8.0113,8.1605,8.1605,8.1605,8.1605,8.1605,8.1849,8.2309,8.3003,8.3594,8.4125,8.5337,8.582,8.5812,8.5846,8.6186,8.6559,8.6559,8.7427,8.8819,8.9847,9.1498,9.3642,9.6549,9.7486,9.7746,9.9185,10.0246,10.1285,10.2988,10.4526,10.5952,10.7039,10.8104,10.8826,10.9013,10.9258,10.9583,10.9849,10.9025,10.8574,10.9796,10.7099,10.3223,9.8878,10.3674,10.5438,9.7799,10.2165,10.6158,10.5953,10.6578,10.6982,10.6739,10.7707,10.8278,10.8278,10.5736,10.5287,10.8054,10.5661,10.5362,10.8129,10.4801,10.0861,9.6449,9.423,8.2623,6.1124,0.0,0.0,0.0,0.0,0.0,0.0,0.0,0.0,0.0,0.0,0.0,0.0,0.0,0.0,0.0,0.0,0.0,0.0,0.0,0.0,0.0,0.0,0.0,0.0,0.0,0.0,4.8851,5.0322,0.0,4.9403,5.1784,5.3898,5.5031,6.0353,6.4334,6.6295,6.9907,7.2793,7.4634,7.5999,7.7604,7.9705,7.9632,8.032,8.1852,8.236,8.2614,8.2614,8.3245,8.3435,8.3495,8.5063,8.542,8.5008,8.6452,8.6058,8.4362,8.3262,8.2385,8.1783,8.1833,8.3504,8.5988,8.7672,9.0342,9.3313,9.563,9.4433,9.2047,9.2882,9.2168,9.2087,9.6684,9.9192,10.1247,10.4631,10.6928,10.8404,10.8581,10.9037,10.9566,10.968,10.8383,10.7251,10.7855,10.4168,9.9415,9.451,9.9089,10.1044,9.4223,9.937,10.4876,10.711,10.8059,10.85,10.8319,10.8278,10.8278,10.8278,10.8278,10.8278,10.8278,10.8278,10.8278,10.8278,10.7137,10.3314,9.6375,9.3937,8.1508,0.0,0.0,0.0,0.0,0.0,0.0,0.0,0.0,0.0,0.0,0.0,0.0,0.0,0.0,0.0,0.0,0.0,0.0,0.0,0.0,0.0,0.0,0.0,0.0,0.0,0.0,0.0,4.9901,5.2325,0.0,0.0,0.0,0.0,4.8389,5.1303,5.5288,6.0369,6.3579,6.7628,7.2822,7.4272,7.6572,7.9799,7.9666,8.0496,8.2301,8.375,8.4342,8.4461,8.5964,8.6623,8.6731,8.7894,8.7522,8.6232,8.6793,8.499,8.162,7.8465,7.5958,7.4108,7.4546,7.7517,8.1737,8.5028,8.8436,9.1289,9.1083,8.5669,7.9022,7.8438,7.5458,0.0,0.0,8.8554,9.2156,9.9034,10.3377,10.6071,10.6449,10.7801,10.9001,10.9001,10.5182,10.2013,0.0,10.033,9.6346,9.0943,0.0,9.0341,8.8576,9.1426,9.6202,10.2964,10.6397,10.8319,10.8502,10.8428,10.8428,10.8428,10.8428,10.8353,10.8278,10.8278,10.8278,10.8236,10.481,9.9158,9.1354,8.1862,0.0,0.0,0.0,0.0,0.0,0.0,0.0,0.0,0.0,0.0,0.0,0.0,0.0,0.0,0.0,0.0,0.0,0.0,0.0,0.0,0.0,0.0,0.0,0.0,0.0,0.0,3.9917,4.4197,4.6667,4.5899,4.3594,0.0,0.0,0.0,0.0,0.0,0.0,5.2474,5.6386,6.089,6.5928,6.7677,7.1103,7.6555,7.782,8.0113,8.3475,8.3876,8.4498,8.5235,8.5643,8.5779,8.5872,8.6772,8.6901,8.6083,8.0218,7.5853,7.2565,6.9256,6.6115,6.3718,6.6294,6.8723,7.1314,7.5106,7.936,8.26,7.9478,7.7873,7.6225,7.1152,0.0,0.0,0.0,0.0,7.9728,9.1344,9.5,9.7287,10.3366,10.5172,10.5465,10.5465,10.2543,9.7399,0.0,8.346,7.6933,6.5912,0.0,0.0,0.0,0.0,9.4016,9.8019,10.4414,10.9456,11.1761,11.0895,11.0169,11.0169,11.0169,10.9645,10.8353,10.8278,10.8011,10.7397,9.9826,9.1873,8.3912,0.0,0.0,0.0,0.0,0.0,0.0,0.0,0.0,0.0,0.0,0.0,0.0,0.0,0.0,0.0,0.0,0.0,0.0,0.0,0.0,0.0,0.0,0.0,0.0,0.0,0.0,0.0,3.5929,4.0376,4.2849,4.1646,3.9118,0.0,0.0,0.0,0.0,0.0,0.0,0.0,0.0,0.0,5.7174,5.8907,6.2128,6.7095,6.9965,7.3242,7.6982,7.9728,8.1751,8.2996,8.4006,8.4813,8.5528,8.5092,8.2922,7.9227,7.4151,6.9295,6.4627,0.0,0.0,0.0,0.0,5.7467,5.9993,6.3676,6.7666,7.0637,6.7632,0.0,0.0,0.0,0.0,0.0,0.0,0.0,7.1076,0.0,0.0,9.4935,9.9495,10.001,9.9722,10.0462,9.1153,8.0812,0.0,6.9494,6.3088,5.365,0.0,0.0,0.0,0.0,8.7665,9.3671,10.4018,11.1476,11.3128,11.2466,11.1867,11.1867,11.1216,11.0393,10.9421,10.769,10.4753,10.0301,9.2107,8.1809,0.0,0.0,0.0,0.0,0.0,0.0,0.0,0.0,0.0,0.0,0.0,0.0,0.0,0.0,0.0,0.0,0.0,0.0,0.0,0.0,0.0,0.0,0.0,0.0,0.0,0.0,0.0,0.0,0.0,3.7152,3.8806,0.0,0.0,0.0,0.0,0.0,0.0,0.0,0.0,0.0,0.0,0.0,0.0,0.0,5.1374,5.4893,5.8868,6.256,6.5981,7.1779,7.5414,7.7129,7.9275,8.1299,8.3005,8.0388,0.0,6.9911,6.7485,0.0,0.0,0.0,0.0,0.0,0.0,0.0,0.0,0.0,0.0,0.0,0.0,0.0,0.0,0.0,0.0,0.0,0.0,0.0,0.0,0.0,0.0,9.1079,9.2201,9.1677,9.0912,0.0,7.448,6.0025,6.0672,5.697,0.0,0.0,0.0,0.0,0.0,0.0,0.0,8.9379,10.4121,11.3818,11.3952,11.3812,11.3662,11.3662,11.2092,11.0917,11.0468,10.5527,9.8843,9.032,8.3066,0.0,0.0,0.0,0.0,0.0,0.0,0.0,0.0,0.0,0.0,0.0,0.0,0.0,0.0,0.0,0.0,0.0,0.0,0.0,0.0,0.0,0.0,0.0,0.0,0.0,0.0,0.0,0.0,0.0,0.0,0.0,0.0,0.0,0.0,0.0,0.0,0.0,0.0,0.0,0.0,0.0,0.0,0.0,0.0,0.0,0.0,0.0,0.0,0.0,0.0,5.8152,6.0752,6.3401,6.5087,6.752,7.0105,6.4139,6.3858,6.6944,5.7046,0.0,0.0,0.0,0.0,0.0,0.0,0.0,0.0,0.0,0.0,0.0,0.0,0.0,0.0,0.0,0.0,0.0,0.0,0.0,0.0,0.0,0.0,0.0,0.0,7.5525,7.4749,6.5335,0.0,0.0,0.0,0.0,0.0,0.0,0.0,0.0,0.0,0.0,0.0,8.4572,10.2184,11.4871,11.7063,11.6055,11.5232,11.5232,11.3812,11.1718,10.8876,9.7882,8.9163,0.0,0.0,0.0,0.0,0.0,0.0,0.0,0.0,0.0,0.0,0.0,0.0,0.0,0.0,0.0,0.0,0.0,0.0,0.0,0.0,0.0,0.0,0.0,0.0,0.0,0.0,0.0,0.0,0.0,0.0,0.0,0.0,0.0,0.0,0.0,0.0,0.0,0.0,0.0,0.0,0.0,0.0,0.0,0.0,0.0,0.0,0.0,0.0,0.0,0.0,0.0,0.0,0.0,0.0,0.0,0.0,0.0,0.0,0.0,5.039,0.0,0.0,0.0,0.0,0.0,0.0,0.0,0.0,0.0,0.0,0.0,0.0,0.0,0.0,0.0,0.0,0.0,0.0,0.0,0.0,0.0,0.0,0.0,0.0,0.0,0.0,0.0,0.0,0.0,0.0,0.0,0.0,0.0,0.0,0.0,0.0,0.0,0.0,0.0,0.0,8.3354,10.3211,11.7131,11.8058,11.7476,11.6952,11.6952,11.4709,11.0073,10.2371,9.153,0.0,0.0,0.0,0.0,0.0,0.0,0.0,0.0,0.0,0.0,0.0,0.0,0.0,0.0,0.0,0.0,0.0,0.0,0.0,0.0,0.0,0.0,0.0,0.0,0.0,0.0,0.0,0.0,0.0,0.0,0.0,0.0,0.0,0.0,0.0,0.0,0.0,0.0,0.0,0.0,0.0,0.0,0.0,0.0,0.0,0.0,0.0,0.0,0.0,0.0,0.0,0.0,0.0,0.0,0.0,0.0,0.0,0.0,0.0,4.5461,0.0,0.0,0.0,0.0,0.0,0.0,0.0,0.0,0.0,0.0,0.0,0.0,0.0,0.0,0.0,0.0,0.0,0.0,0.0,0.0,0.0,0.0,0.0,0.0,0.0,0.0,0.0,0.0,0.0,0.0,0.0,0.0,0.0,0.0,0.0,0.0,0.0,0.0,0.0,0.0,0.0,8.3354,10.4636,11.8867,11.8283,11.8149,11.8149,11.8149,11.4859,10.7829,9.6239,8.5139,0.0,0.0,0.0,0.0,0.0,0.0,0.0,0.0,0.0,0.0,0.0,0.0,0.0,0.0,0.0,0.0,0.0,0.0,0.0,0.0,0.0,0.0,0.0,0.0,0.0,0.0,0.0,0.0,0.0,0.0,0.0,0.0,0.0,0.0,0.0,0.0,0.0,0.0,0.0,0.0,0.0,0.0,0.0,0.0,0.0,0.0,0.0,0.0,0.0,0.0,0.0,0.0,0.0,0.0,0.0,0.0,0.0,0.0,0.0,0.0,0.0,0.0,0.0,0.0,0.0,0.0,0.0,0.0,0.0,0.0,0.0,0.0,0.0,0.0,0.0,0.0,0.0,0.0,0.0,0.0,0.0,0.0,0.0,0.0,0.0,0.0,0.0,0.0,0.0,0.0,0.0,0.0,0.0,0.0,0.0,0.0,0.0,0.0,0.0,0.0,0.0,8.3354,10.4636,11.8867,11.8283,11.8149,11.8149,11.8149,11.3812,10.6035,9.4444,0.0,0.0,0.0,0.0,0.0,0.0,0.0,0.0,0.0,0.0,0.0,0.0,0.0,0.0,0.0,0.0,0.0,0.0,0.0,0.0,0.0,0.0,0.0,0.0,0.0,0.0,0.0,0.0,0.0,0.0,0.0,0.0,0.0,0.0,0.0,0.0,0.0,0.0,0.0,0.0,0.0,0.0,0.0,0.0,0.0,0.0,0.0,0.0,0.0,0.0,0.0,0.0,0.0,0.0,0.0,0.0,0.0,0.0,0.0,0.0,0.0,0.0,0.0,0.0,0.0,0.0,0.0,0.0,0.0,0.0,0.0,0.0,0.0,0.0,0.0,0.0,0.0,0.0,0.0,0.0,0.0,0.0,0.0,0.0,0.0,0.0,0.0,0.0,0.0,0.0,0.0,0.0,0.0,0.0,0.0,0.0,0.0,0.0,0.0,0.0,0.0,0.0,8.3268,10.3805,11.7796,11.8133,11.8149,11.8149,11.8149,11.3609,10.3288,8.5695,0.0,0.0,0.0,0.0,0.0,0.0,0.0,0.0,0.0,0.0,0.0,0.0,0.0,0.0,0.0,0.0,0.0,0.0,0.0,0.0,0.0,0.0,0.0,0.0,0.0,0.0,0.0,0.0,0.0,0.0,0.0,0.0,0.0,0.0,0.0,0.0,0.0,0.0,0.0,0.0,0.0,0.0,0.0,0.0,0.0,0.0,0.0,0.0,0.0,0.0,0.0,0.0,0.0,0.0,0.0,0.0,0.0,0.0,0.0,0.0,0.0,0.0,0.0,0.0,0.0,0.0,0.0,0.0,0.0,0.0,0.0,0.0,0.0,0.0,0.0,0.0,0.0,0.0,0.0,0.0,0.0,0.0,0.0,0.0,0.0,0.0,0.0,0.0,0.0,0.0,0.0,0.0,0.0,0.0,0.0,0.0,0.0,0.0,0.0,0.0,0.0,0.0,8.3264,10.3255,11.7083,11.8215,11.8261,11.8149,11.8149,11.3235,10.1343,8.076,0.0,0.0,0.0,0.0,0.0,0.0,0.0,0.0,0.0,0.0,0.0,0.0,0.0,0.0,0.0,0.0,0.0,0.0,0.0,0.0,0.0,0.0,0.0,0.0,0.0,0.0,0.0,0.0,0.0,0.0,0.0,0.0,0.0,0.0,0.0,0.0,0.0,0.0,0.0,0.0,0.0,0.0,0.0,0.0,0.0,0.0,0.0,0.0,0.0,0.0,0.0,0.0,0.0,0.0,0.0,0.0,0.0,0.0,0.0,0.0,0.0,0.0,0.0,0.0,0.0,0.0,0.0,0.0,0.0,0.0,0.0,0.0,0.0,0.0,0.0,0.0,0.0,0.0,0.0,0.0,0.0,0.0,0.0,0.0,0.0,0.0,0.0,0.0,0.0,0.0,0.0,0.0,0.0,0.0,0.0,0.0,0.0,0.0,0.0,0.0,0.0,0.0,8.3455,10.3309,11.7101,11.8468,11.8344,11.8149,11.8149,11.2092,10.0576,0.0,0.0,0.0,0.0,0.0,0.0,0.0,0.0,0.0,0.0,0.0,0.0,0.0,0.0,0.0,0.0,0.0,0.0,0.0,0.0,0.0,0.0,0.0,0.0,0.0,0.0,0.0,0.0,0.0,0.0,0.0,0.0,0.0,0.0,0.0,0.0,0.0,0.0,0.0,0.0,0.0,0.0,0.0,0.0,0.0,0.0,0.0,0.0,0.0,0.0,0.0,0.0,0.0,0.0,0.0,0.0,0.0,0.0,0.0,0.0,0.0,0.0,0.0,0.0,0.0,0.0,0.0,0.0,0.0,0.0,0.0,0.0,0.0,0.0,0.0,0.0,0.0,0.0,0.0,0.0,0.0,0.0,0.0,0.0,0.0,0.0,0.0,0.0,0.0,0.0,0.0,0.0,0.0,0.0,0.0,0.0,0.0,0.0,0.0,0.0,0.0,0.0,0.0,7.9498,9.5924,10.9081,0.0,11.7669,11.8149,11.8149,11.316,10.1772,8.2464,0.0,0.0,0.0,0.0,0.0,0.0,0.0,0.0,0.0,0.0,0.0,0.0,0.0,0.0,0.0,0.0,0.0,0.0,0.0,0.0,0.0,0.0,0.0,0.0,0.0,0.0,0.0,0.0,0.0,0.0,0.0,0.0,0.0,0.0,0.0,0.0,0.0,0.0,0.0,0.0,0.0,0.0,0.0,0.0,0.0,0.0,0.0,0.0,0.0,0.0,0.0,0.0,0.0,0.0,0.0,0.0,0.0,0.0,0.0,0.0,0.0,0.0,0.0,0.0,0.0,0.0,0.0,0.0,0.0,0.0,0.0,0.0,0.0,0.0,0.0,0.0,0.0,0.0,0.0,0.0,0.0,0.0,0.0,0.0,0.0,0.0,0.0,0.0,0.0,0.0,0.0,0.0,0.0,0.0,0.0,0.0,0.0,0.0,0.0,0.0,0.0,0.0,0.0,9.3182,10.6009,0.0,11.6061,11.6421,11.6376,11.2316,10.1623,8.2464,0.0,0.0,0.0,0.0,0.0,0.0,0.0,0.0,0.0,0.0,0.0,0.0,0.0,0.0,0.0,0.0,0.0,0.0,0.0,0.0,0.0,0.0,0.0,0.0,0.0,0.0,0.0,0.0,0.0,0.0,0.0,0.0,0.0,0.0,0.0,0.0,0.0,0.0,0.0,0.0,0.0,0.0,0.0,0.0,0.0,0.0,0.0,0.0,0.0,0.0,0.0,0.0,0.0,0.0,0.0,0.0,0.0,0.0,0.0,0.0,0.0,0.0,0.0,0.0,0.0,0.0,0.0,0.0,0.0,0.0,0.0,0.0,0.0,0.0,0.0,0.0,0.0,0.0,0.0,0.0,0.0,0.0,0.0,0.0,0.0,0.0,0.0,0.0,0.0,0.0,0.0,0.0,0.0,0.0,0.0,0.0,0.0,0.0,0.0,0.0,0.0,0.0,0.0,9.4097,10.6553,11.3213,11.3844,11.3638,11.3374,11.0318,10.0651,8.2389,7.2086,0.0,0.0,0.0,0.0,0.0,0.0,0.0,0.0,0.0,0.0,0.0,0.0,0.0,0.0,0.0,0.0,0.0,0.0,0.0,0.0,0.0,0.0,0.0,0.0,0.0,0.0,0.0,0.0,0.0,0.0,0.0,0.0,0.0,0.0,0.0,0.0,0.0,0.0,0.0,0.0,0.0,0.0,0.0,0.0,0.0,0.0,0.0,0.0,0.0,0.0,0.0,0.0,0.0,0.0,0.0,0.0,0.0,0.0,0.0,0.0,0.0,0.0,0.0,0.0,0.0,0.0,0.0,0.0,0.0,0.0,0.0,0.0,0.0,0.0,0.0,0.0,0.0,0.0,0.0,0.0,0.0,0.0,0.0,0.0,0.0,0.0,0.0,0.0,0.0,0.0,0.0,0.0,0.0,0.0,0.0,0.0,0.0,0.0,0.0,0.0,0.0,0.0,9.0708,10.2049,11.1432,11.3223,11.3684,11.3656,11.1516,10.1922,8.2464,7.3193,0.0,0.0,0.0,0.0,0.0,0.0,0.0,0.0,0.0,0.0,0.0,0.0,0.0,0.0,0.0,0.0,0.0,0.0,0.0,0.0,0.0,0.0,0.0,0.0,0.0,0.0,0.0,0.0,0.0,0.0,0.0,0.0,0.0,0.0,0.0,0.0,0.0,0.0,0.0,0.0,0.0,0.0,0.0,0.0,0.0,0.0,0.0,0.0,0.0,0.0,0.0,0.0,0.0,0.0,0.0,0.0,0.0,0.0,0.0,0.0,0.0,0.0,0.0,0.0,0.0,0.0,0.0,0.0,0.0,0.0,0.0,0.0,0.0,0.0,0.0,0.0,0.0,0.0,0.0,0.0,0.0,0.0,0.0,0.0,0.0,0.0,0.0,0.0,0.0,0.0,0.0,0.0,0.0,0.0,0.0,0.0,0.0,0.0,0.0,0.0,0.0,0.0,7.5163,9.0771,10.7926,11.0902,11.1599,11.1417,10.9626,10.0426,8.1283,7.2385,0.0,0.0,0.0,0.0,0.0,0.0,0.0,0.0,0.0,0.0,0.0,0.0,0.0,0.0,0.0,0.0,0.0,0.0,0.0,0.0,0.0,0.0,0.0,0.0,0.0,0.0,0.0,0.0,0.0,0.0,0.0,0.0,0.0,0.0,0.0,0.0,0.0,0.0,0.0,0.0,0.0,0.0,0.0,0.0,0.0,0.0,0.0,0.0,0.0,0.0,0.0,0.0,0.0,0.0,0.0,0.0,0.0,0.0,0.0,0.0,0.0,0.0,0.0,0.0,0.0,0.0,0.0,0.0,0.0,0.0,0.0,0.0,0.0,0.0,0.0,0.0,0.0,0.0,0.0,0.0,0.0,0.0,0.0,0.0,0.0,0.0,0.0,0.0,0.0,0.0,0.0,0.0,0.0,0.0,0.0,0.0,0.0,0.0,0.0,0.0,0.0,0.0,0.0,7.7824,10.1445,10.6657,10.8401,10.8361,10.6381,9.751,7.9504,0.0,0.0,0.0,0.0,0.0,0.0,0.0,0.0,0.0,0.0,0.0,0.0,0.0,0.0,0.0,0.0,0.0,0.0,0.0,0.0,0.0,0.0,0.0,0.0,0.0,0.0,0.0,0.0,0.0,0.0,0.0,0.0,0.0,0.0,0.0,0.0,0.0,0.0,0.0,0.0,0.0,0.0,0.0,0.0,0.0,0.0,0.0,0.0,0.0,0.0,0.0,0.0,0.0,0.0,0.0,0.0,0.0,0.0,0.0,0.0,0.0,0.0,0.0,0.0,0.0,0.0,0.0,0.0,0.0,0.0,0.0,0.0,0.0,0.0,0.0,0.0,0.0,0.0,0.0,0.0,0.0,0.0,0.0,0.0,0.0,0.0,0.0,0.0,0.0,0.0,0.0,0.0,0.0,0.0,0.0,0.0,0.0,0.0,0.0,0.0,0.0,0.0,0.0,0.0,7.1546,8.79,9.8642,10.5319,10.6895,10.3717,9.4519,7.7784,0.0,0.0,0.0,0.0,0.0,0.0,0.0,0.0,0.0,0.0,0.0,0.0,0.0,0.0]}]]]